Date StartTime U_cm/s V_cm/s W_cm/s Ustd_cm/s Vstd_cm/s Wstd_cm/s Uvar_(cm/s)^2 Vvar_(cm/s)^2 Wvar_(cm/s)^2 KE_(m/s)^2 TurbulentKE_(m/s)^2 HorizWindSpeed_cm/s FrictionSpeec_cm/s DragCoef SpeedOfSound_m/s SonicTemperature_C Pressure_mb 
06/15/2013  00:00:00     -117.479      -12.952       -2.652       47.299       24.527       19.756     2237.181      601.587      390.309        0.860        0.161      118.191       21.110        0.032      341.445       16.161      859.756
06/15/2013  00:01:00     -128.841      -32.895       -2.703       25.708       25.055       17.042      660.890      627.769      290.445        0.963        0.079      132.974       15.619        0.014      341.451       16.173      859.758
06/15/2013  00:02:00     -128.519      -45.488      -15.139       34.254       35.221       22.761     1173.326     1240.541      518.081        1.087        0.147      136.331       21.117        0.024      341.470       16.205      859.751
06/15/2013  00:03:00     -134.599      -55.566       -4.467       24.094       18.138       14.700      580.535      329.000      216.076        1.117        0.056      145.618       11.703        0.006      341.365       16.026      859.757
06/15/2013  00:04:00     -113.180      -46.740       -5.152       28.151       16.873       12.567      792.453      284.682      157.935        0.813        0.062      122.451       14.398        0.014      341.441       16.155      859.765
06/15/2013  00:05:00      -80.721      -52.221       -4.371       40.613       20.575       14.231     1649.439      423.322      202.533        0.577        0.114       96.140       15.636        0.026      341.437       16.150      859.775
06/15/2013  00:06:00      -78.197      -52.711       -1.692       34.390       17.880       15.272     1182.693      319.678      233.232        0.532        0.087       94.304        9.643        0.010      341.463       16.193      859.764
06/15/2013  00:07:00      -77.435      -41.451       -3.152       24.819       19.750       16.787      615.975      390.061      281.819        0.451        0.064       87.832       11.935        0.018      341.457       16.183      859.760
06/15/2013  00:08:00      -81.543      -30.363      -10.279       23.217       15.523       11.009      539.028      240.973      121.206        0.429        0.045       87.013       10.091        0.013      341.443       16.159      859.755
06/15/2013  00:09:00      -94.837      -40.143       -3.084       18.811       17.482       13.421      353.836      305.624      180.121        0.573        0.042      102.984       12.374        0.014      341.410       16.103      859.751
06/15/2013  00:10:00      -85.322      -27.545        0.593       24.009       16.510       12.017      576.436      272.588      144.419        0.452        0.050       89.658       12.064        0.018      341.401       16.087      859.748
06/15/2013  00:11:00      -77.563      -32.932        1.527       22.572       19.588       12.133      509.489      383.688      147.206        0.407        0.052       84.265       10.084        0.014      341.389       16.067      859.749
06/15/2013  00:12:00      -79.735      -16.804       -3.131       23.967       19.614       15.214      574.410      384.692      231.453        0.392        0.060       81.487       14.831        0.033      341.316       15.944      859.760
06/15/2013  00:13:00     -110.589      -27.730       -8.331       23.128       18.730       11.479      534.910      350.823      131.764        0.704        0.051      114.013        7.845        0.005      341.318       15.949      859.750
06/15/2013  00:14:00     -112.242      -24.538      -11.326       28.282       14.814       15.681      799.892      219.441      245.886        0.730        0.063      114.892       16.479        0.021      341.257       15.845      859.748
06/15/2013  00:15:00     -130.976      -29.179      -10.052       31.650       18.079       15.266     1001.745      326.839      233.037        0.983        0.078      134.187       14.789        0.012      341.316       15.944      859.751
06/15/2013  00:16:00     -125.820      -25.300       -6.865       30.205       21.743       16.521      912.368      472.752      272.954        0.909        0.083      128.338       14.391        0.013      341.290       15.901      859.742
06/15/2013  00:17:00     -113.378      -20.203       -4.492       48.920       23.431       17.432     2393.157      549.019      303.885        0.826        0.162      115.164       14.483        0.016      341.247       15.828      859.732
06/15/2013  00:18:00     -126.227      -32.703       -8.960       33.490       25.869       19.820     1121.578      669.187      392.819        0.963        0.109      130.395       18.152        0.019      341.283       15.888      859.727
06/15/2013  00:19:00     -106.736      -29.471       -6.515       31.545       28.858       16.729      995.107      832.779      279.847        0.721        0.105      110.730       11.133        0.010      341.189       15.731      859.730
06/15/2013  00:20:00     -125.763      -27.829       -7.457       27.355       23.601       17.099      748.293      556.991      292.393        0.912        0.080      128.805       11.833        0.008      341.181       15.717      859.722
06/15/2013  00:21:00      -99.104      -54.444       -4.566       22.555       23.695       14.195      508.736      561.448      201.511        0.704        0.064      113.074        8.306        0.005      341.212       15.768      859.708
06/15/2013  00:22:00      -88.261      -43.297       -2.465       32.740       26.778       17.778     1071.935      717.036      316.061        0.589        0.105       98.309       16.712        0.029      341.220       15.782      859.705
06/15/2013  00:23:00     -108.883      -32.824       -9.220       19.056       20.773       14.948      363.149      431.509      223.453        0.702        0.051      113.723       10.215        0.008      341.278       15.879      859.703
06/15/2013  00:24:00     -130.106      -46.081      -14.996       18.487       16.567       12.723      341.763      274.453      161.874        1.003        0.039      138.025        9.738        0.005      341.174       15.704      859.689
06/15/2013  00:25:00     -116.287      -28.517       -7.250       31.415       31.917       18.139      986.897     1018.718      329.014        0.836        0.117      119.732       17.761        0.022      341.126       15.624      859.678
06/15/2013  00:26:00     -130.825      -10.543       -6.814       41.202       35.006       25.903     1697.581     1225.387      670.942        1.043        0.180      131.249       23.648        0.032      341.042       15.481      859.684
06/15/2013  00:27:00     -177.633       -1.912      -19.152       31.213       17.978       15.957      974.266      323.205      254.633        1.674        0.078      177.643       14.761        0.007      341.011       15.428      859.671
06/15/2013  00:28:00     -157.392      -11.874      -16.993       16.152       19.382       11.531      260.888      375.650      132.955        1.299        0.038      157.839        5.270        0.001      340.992       15.394      859.664
06/15/2013  00:29:00     -142.860      -22.834      -19.391       16.593       18.577       16.682      275.340      345.087      278.304        1.110        0.045      144.674        9.592        0.004      340.964       15.348      859.655
06/15/2013  00:30:00     -139.200      -21.775      -18.131       27.827       28.789       17.416      774.329      828.820      303.311        1.104        0.095      140.893       13.889        0.010      340.919       15.273      859.654
06/15/2013  00:31:00     -119.814      -51.788      -11.318       23.759       25.538       15.748      564.491      652.203      247.990        0.931        0.073      130.527       10.688        0.007      340.958       15.339      859.644
06/15/2013  00:32:00     -125.109      -20.454       -4.306       27.870       27.424       19.930      776.742      752.068      397.203        0.901        0.096      126.770       15.785        0.016      340.913       15.261      859.634
06/15/2013  00:33:00     -122.054      -47.891       -7.107       37.166       34.309       20.913     1381.347     1177.106      437.365        1.012        0.150      131.114       16.717        0.016      340.864       15.180      859.633
06/15/2013  00:34:00     -140.101      -48.870       -6.150       24.600       29.814       15.581      605.136      888.891      242.777        1.190        0.087      148.380        8.118        0.003      340.877       15.202      859.613
06/15/2013  00:35:00     -132.505      -40.103       -6.056       34.849       26.313       17.753     1214.425      692.354      315.164        1.071        0.111      138.441       11.893        0.007      340.885       15.214      859.592
06/15/2013  00:36:00     -123.825      -64.286      -14.145       38.825       26.991       17.666     1507.381      728.516      312.100        1.111        0.127      139.518        7.704        0.003      340.892       15.225      859.578
06/15/2013  00:37:00     -136.687      -51.790      -13.876       31.047       30.386       20.236      963.913      923.327      409.492        1.193        0.115      146.170       11.853        0.007      340.866       15.182      859.572
06/15/2013  00:38:00     -143.438      -73.097       -4.692       34.379       25.565       24.038     1181.885      653.567      577.819        1.418        0.121      160.990       23.130        0.021      340.770       15.021      859.560
06/15/2013  00:39:00      -90.741      -57.210        3.490       50.901       45.556       27.636     2590.948     2075.361      763.744        0.847        0.272      107.270       25.176        0.055      340.718       14.931      859.559
06/15/2013  00:40:00     -143.138      -56.626       -9.612       24.567       31.153       18.656      603.549      970.538      348.032        1.285        0.096      153.932       14.442        0.009      340.825       15.112      859.568
06/15/2013  00:41:00      -89.972      -73.800        4.003       43.239       32.017       24.851     1869.603     1025.081      617.567        0.853        0.176      116.367       19.986        0.029      340.779       15.034      859.562
06/15/2013  00:42:00      -71.100      -37.013        2.357       54.091       31.731       25.712     2925.863     1006.839      661.086        0.551        0.230       80.157       30.513        0.145      340.765       15.012      859.561
06/15/2013  00:43:00      -46.690      -16.266       13.746       60.210       30.591       28.175     3625.299      935.795      793.840        0.399        0.268       49.442       26.792        0.294      340.754       14.994      859.551
06/15/2013  00:44:00      -87.333      -65.216       -3.467       41.420       32.383       28.693     1715.607     1048.661      823.267        0.774        0.179      108.997       20.086        0.034      340.735       14.960      859.555
06/15/2013  00:45:00      -46.781      -33.185       14.219       64.390       32.443       24.637     4146.083     1052.577      606.999        0.465        0.290       57.356       32.883        0.329      340.656       14.827      859.555
06/15/2013  00:46:00     -115.506      -49.399       -5.590       39.826       35.486       21.149     1586.081     1259.231      447.272        0.955        0.165      125.626       21.494        0.029      340.638       14.798      859.543
06/15/2013  00:47:00      -77.017      -46.168      -11.096       48.225       23.520       24.612     2325.665      553.186      605.748        0.583        0.174       89.794       17.788        0.039      340.693       14.889      859.544
06/15/2013  00:48:00     -113.304      -49.749        0.253       38.775       26.908       21.277     1503.517      724.028      452.730        0.900        0.134      123.744       16.606        0.018      340.601       14.734      859.529
06/15/2013  00:49:00      -96.049      -39.066        3.829       41.587       40.448       21.026     1729.447     1636.052      442.080        0.729        0.190      103.690       18.978        0.033      340.530       14.613      859.520
06/15/2013  00:50:00      -99.576      -52.664       -6.329       36.041       30.661       20.575     1298.921      940.127      423.350        0.770        0.133      112.645       15.544        0.019      340.606       14.742      859.516
06/15/2013  00:51:00     -108.843      -13.413      -12.810       32.857       30.908       16.866     1079.599      955.284      284.460        0.725        0.116      109.666       15.255        0.019      340.608       14.746      859.500
06/15/2013  00:52:00     -133.442       -9.799      -21.673       25.119       21.149       15.057      630.963      447.287      226.722        0.984        0.065      133.801       10.866        0.007      340.520       14.599      859.498
06/15/2013  00:53:00     -117.505       -3.885      -10.328       39.463       37.585       25.441     1557.330     1412.663      647.222        0.877        0.181      117.569       20.593        0.031      340.493       14.551      859.480
06/15/2013  00:54:00     -125.135       -5.590      -12.963       28.139       26.190       16.632      791.779      685.937      276.623        0.881        0.088      125.260       14.339        0.013      340.492       14.549      859.467
06/15/2013  00:55:00     -115.155        3.892       -3.149       41.045       22.903       23.798     1684.731      524.552      566.325        0.803        0.139      115.221       25.034        0.047      340.486       14.540      859.466
06/15/2013  00:56:00      -69.621       -3.194        3.747       44.182       35.459       21.210     1952.049     1257.374      449.868        0.426        0.183       69.694       22.546        0.105      340.403       14.398      859.460
06/15/2013  00:57:00      -82.347        1.747       -8.603       29.949       27.149       15.691      896.950      737.069      246.197        0.437        0.094       82.365       10.668        0.017      340.419       14.428      859.457
06/15/2013  00:58:00      -42.476      -13.955        2.107       41.740       26.550       20.183     1742.225      704.902      407.345        0.243        0.143       44.710       22.071        0.244      340.430       14.445      859.443
06/15/2013  00:59:00      -83.138      -39.450       -3.846       33.417       25.097       14.108     1116.723      629.849      199.039        0.521        0.097       92.023       15.059        0.027      340.521       14.599      859.448
06/15/2013  01:00:00      -55.046      -22.618       -0.609       44.707       22.367       15.724     1998.737      500.299      247.252        0.314        0.137       59.512       16.930        0.081      340.626       14.777      859.432
06/15/2013  01:01:00      -33.249      -37.752       -3.271       27.812       16.719       15.797      773.499      279.517      249.538        0.192        0.065       50.306       10.169        0.041      340.655       14.826      859.429
06/15/2013  01:02:00      -44.444      -39.542       -2.858       30.125       22.828       15.850      907.512      521.129      251.212        0.261        0.084       59.488       17.140        0.083      340.576       14.692      859.419
06/15/2013  01:03:00      -38.219      -33.412        4.550       28.316       15.764       13.220      801.824      248.511      174.768        0.191        0.061       50.765       13.630        0.072      340.560       14.664      859.403
06/15/2013  01:04:00      -48.957      -32.971       -1.917       26.339       14.167       14.491      693.726      200.694      209.988        0.230        0.055       59.024       16.137        0.075      340.602       14.737      859.400
06/15/2013  01:05:00      -67.916      -27.978       -5.786       12.855       15.382       14.021      165.246      236.620      196.591        0.301        0.030       73.453        8.176        0.012      340.619       14.767      859.395
06/15/2013  01:06:00      -49.500      -10.502       -0.124       22.775       15.682       12.865      518.700      245.928      165.504        0.175        0.047       50.601       11.006        0.047      340.518       14.594      859.387
06/15/2013  01:07:00        2.109      -38.381       -4.442       19.227       21.777       13.020      369.666      474.223      169.518        0.126        0.051       38.439       10.366        0.073      340.617       14.762      859.407
06/15/2013  01:08:00      -13.317      -40.039        5.770       23.322       30.195       20.424      543.901      911.749      417.128        0.184        0.094       42.195       16.414        0.151      340.519       14.595      859.436
06/15/2013  01:09:00        4.031      -93.711      -14.566       31.436       26.615       19.781      988.242      708.335      391.269        0.555        0.104       93.798       14.119        0.023      340.479       14.529      859.454
06/15/2013  01:10:00      -21.324      -58.123        2.889       26.411       35.193       23.285      697.522     1238.570      542.204        0.316        0.124       61.911        8.160        0.017      340.358       14.325      859.483
06/15/2013  01:11:00      -16.818       -3.469       19.970       26.881       20.594       15.488      722.580      424.098      239.867        0.104        0.069       17.172       12.746        0.551      340.306       14.235      859.521
06/15/2013  01:12:00       -5.782      -46.610        1.972       22.104       36.863       27.692      488.574     1358.850      766.832        0.241        0.131       46.967       20.203        0.185      340.322       14.262      859.530
06/15/2013  01:13:00      -43.017      -20.479        7.016       51.176       46.609       20.025     2618.971     2172.440      400.989        0.375        0.260       47.643       22.869        0.230      340.348       14.307      859.530
06/15/2013  01:14:00      -79.958      -51.622        4.728       56.893       39.642       27.754     3236.820     1571.511      770.263        0.733        0.279       95.174       27.658        0.084      340.233       14.112      859.519
06/15/2013  01:15:00      -60.367      -63.683        6.470       59.703       34.448       20.173     3564.402     1186.648      406.935        0.645        0.258       87.747       24.449        0.078      340.248       14.137      859.503
06/15/2013  01:16:00      -34.309      -47.518       14.390       59.576       40.611       25.596     3549.293     1649.265      655.130        0.475        0.293       58.610       28.314        0.233      340.266       14.168      859.481
06/15/2013  01:17:00        0.421      -32.091       12.297       39.207       35.011       29.772     1537.227     1225.758      886.356        0.241        0.182       32.094       24.747        0.595      340.305       14.233      859.469
06/15/2013  01:18:00      -59.653      -33.680        5.967       59.923       33.616       32.501     3590.792     1130.045     1056.299        0.525        0.289       68.504       25.335        0.137      340.327       14.271      859.464
06/15/2013  01:19:00      -94.952      -43.863        3.356       47.846       44.120       33.548     2289.214     1946.581     1125.499        0.816        0.268      104.594       30.490        0.085      340.331       14.277      859.453
06/15/2013  01:20:00       -2.456      -11.536       15.482       29.023       32.601       25.094      842.328     1062.842      629.711        0.146        0.127       11.795       15.407        1.706      340.256       14.151      859.458
06/15/2013  01:21:00      -62.555      -51.260        0.863       43.920       29.287       23.958     1928.930      857.734      573.964        0.495        0.168       80.875       13.042        0.026      340.234       14.113      859.465
06/15/2013  01:22:00      -59.009      -43.028       -6.465       27.308       28.027       16.634      745.754      785.536      276.686        0.359        0.090       73.030        8.960        0.015      340.227       14.104      859.473
06/15/2013  01:23:00      -86.712      -65.260      -11.203       23.115       17.293       12.664      534.315      299.039      160.378        0.645        0.050      108.526       10.657        0.010      340.257       14.154      859.465
06/15/2013  01:24:00      -62.925      -71.405       -0.017       36.189       38.927       21.335     1309.679     1515.288      455.167        0.617        0.164       95.175       21.212        0.050      340.243       14.130      859.452
06/15/2013  01:25:00      -51.561      -40.294        0.140       33.801       31.235       17.974     1142.520      975.599      323.070        0.336        0.122       65.438       18.525        0.080      340.211       14.074      859.453
06/15/2013  01:26:00      -86.565      -31.280       -6.277       25.359       23.440       14.436      643.103      549.417      208.386        0.496        0.070       92.043        9.585        0.011      340.254       14.146      859.447
06/15/2013  01:27:00      -61.228      -15.260       -5.410       34.791       25.726       16.205     1210.408      661.829      262.600        0.307        0.107       63.101       15.526        0.061      340.071       13.840      859.434
06/15/2013  01:28:00      -87.679      -23.396       -1.769       30.194       21.495       16.889      911.694      462.018      285.232        0.495        0.083       90.747       13.995        0.024      340.005       13.728      859.416
06/15/2013  01:29:00      -90.295       -2.092       -3.600       35.075       25.761       17.044     1230.244      663.643      290.514        0.518        0.109       90.320       17.930        0.039      339.925       13.592      859.411
06/15/2013  01:30:00      -92.588       -1.253        1.775       28.267       24.085       20.806      799.040      580.097      432.908        0.519        0.091       92.597       18.993        0.042      339.862       13.488      859.394
06/15/2013  01:31:00      -89.747      -19.203       -1.709       45.682       36.033       20.023     2086.870     1298.369      400.928        0.611        0.189       91.779       21.315        0.054      339.880       13.517      859.382
06/15/2013  01:32:00     -137.088      -42.119       -8.269       25.085       26.360       18.568      629.265      694.833      344.787        1.115        0.083      143.413       15.909        0.012      339.904       13.557      859.364
06/15/2013  01:33:00     -102.821      -66.353       -1.496       32.286       32.966       22.722     1042.368     1086.776      516.293        0.881        0.132      122.372       19.221        0.025      339.952       13.640      859.351
06/15/2013  01:34:00     -103.077      -36.673       -3.703       48.579       27.274       20.497     2359.960      743.894      420.141        0.775        0.176      109.407       25.381        0.054      339.949       13.633      859.352
06/15/2013  01:35:00     -103.298      -58.798      -11.283       37.311       23.124       17.285     1392.096      534.713      298.779        0.824        0.111      118.859        4.973        0.002      339.928       13.598      859.353
06/15/2013  01:36:00      -72.010      -28.096        3.391       53.346       24.216       24.919     2845.848      586.395      620.953        0.502        0.203       77.297       25.784        0.111      339.927       13.597      859.345
06/15/2013  01:37:00     -107.493      -58.511       -3.365       26.528       42.221       17.684      703.748     1782.602      312.737        0.889        0.140      122.386       15.296        0.016      339.843       13.452      859.343
06/15/2013  01:38:00     -121.061      -45.390       -6.118       45.690       37.898       19.890     2087.568     1436.277      395.596        1.034        0.196      129.290       18.790        0.021      339.771       13.333      859.350
06/15/2013  01:39:00     -136.435      -43.907       -5.166       30.091       28.951       19.766      905.486      838.179      390.697        1.135        0.107      143.326       16.766        0.014      339.747       13.292      859.355
06/15/2013  01:40:00     -152.471      -47.108      -12.886       31.119       39.004       17.540      968.367     1521.302      307.665        1.421        0.140      159.583       12.527        0.006      339.729       13.261      859.349
06/15/2013  01:41:00     -101.222      -68.511       -3.457       46.712       30.789       26.222     2182.004      947.993      687.611        0.938        0.191      122.228        9.392        0.006      339.807       13.392      859.327
06/15/2013  01:42:00     -132.003      -27.693       -2.756       42.396       34.000       21.896     1797.445     1156.023      479.442        1.082        0.172      134.876       22.265        0.027      339.724       13.254      859.329
06/15/2013  01:43:00     -126.984      -62.647        2.895       51.233       43.211       27.733     2624.870     1867.229      769.114        1.266        0.263      141.596       25.838        0.033      339.697       13.208      859.310
06/15/2013  01:44:00     -152.291      -49.096       -1.441       41.533       36.603       25.338     1724.957     1339.807      642.010        1.466        0.185      160.009       25.766        0.026      339.704       13.220      859.293
06/15/2013  01:45:00     -141.147      -77.612        4.573       52.997       44.288       26.902     2808.728     1961.413      723.739        1.573        0.275      161.078       29.032        0.032      339.747       13.292      859.284
06/15/2013  01:46:00     -157.469      -69.472       -9.913       31.173       32.045       19.401      971.780     1026.878      376.402        1.605        0.119      172.113       15.056        0.008      339.802       13.385      859.287
06/15/2013  01:47:00     -111.726      -27.391       10.936       52.043       32.750       27.266     2708.504     1072.551      743.411        0.894        0.226      115.035       28.764        0.063      339.701       13.217      859.280
06/15/2013  01:48:00     -122.273      -68.277        0.070       40.970       38.154       23.494     1678.544     1455.708      551.976        1.165        0.184      140.045       20.366        0.021      339.724       13.252      859.278
06/15/2013  01:49:00     -102.637      -61.467       -0.920       37.874       33.627       19.127     1434.461     1130.796      365.831        0.862        0.147      119.635       17.620        0.022      339.720       13.248      859.286
06/15/2013  01:50:00      -50.605      -58.896        6.979       37.440       28.578       21.480     1401.759      816.703      461.373        0.438        0.134       77.651       18.138        0.055      339.770       13.331      859.285
06/15/2013  01:51:00      -66.791      -75.439        7.656       42.063       37.499       25.937     1769.301     1406.148      672.723        0.703        0.192      100.757       19.385        0.037      339.735       13.274      859.285
06/15/2013  01:52:00     -114.347      -88.254       -6.549       41.316       48.703       26.640     1707.025     2371.978      709.714        1.285        0.239      144.444       19.170        0.018      339.718       13.245      859.290
06/15/2013  01:53:00     -127.405      -67.137      -14.452       75.935       56.815       33.230     5766.189     3227.977     1104.252        1.552        0.505      144.012       36.408        0.064      339.672       13.165      859.287
06/15/2013  01:54:00     -148.343     -107.120       -0.506       58.189       51.791       29.705     3385.929     2682.308      882.402        2.021        0.348      182.976       26.686        0.021      339.619       13.074      859.286
06/15/2013  01:55:00     -134.435      -95.470        1.396       65.398       56.620       37.321     4276.944     3205.825     1392.828        1.803        0.444      164.886       35.072        0.045      339.647       13.121      859.281
06/15/2013  01:56:00     -146.044      -99.013        3.919       63.517       52.558       30.667     4034.360     2762.392      940.465        1.944        0.387      176.443       30.538        0.030      339.586       13.018      859.263
06/15/2013  01:57:00     -136.520     -108.259        1.141       60.242       48.711       35.590     3629.054     2372.796     1266.683        1.881        0.363      174.235       28.844        0.027      339.616       13.070      859.272
06/15/2013  01:58:00     -128.603      -86.090        2.686       58.007       52.399       30.946     3364.839     2745.627      957.636        1.551        0.353      154.759       18.506        0.014      339.641       13.112      859.283
06/15/2013  01:59:00     -106.842      -80.155       -0.826       49.837       47.916       27.534     2483.774     2295.913      758.102        1.169        0.277      133.567       25.026        0.035      339.593       13.032      859.284
06/15/2013  02:00:00     -104.155      -76.542        3.913       47.087       42.060       24.018     2217.199     1769.050      576.874        1.064        0.228      129.256       13.501        0.011      339.641       13.114      859.296
06/15/2013  02:01:00     -157.815     -103.470       -7.661       36.717       55.387       20.063     1348.124     3067.744      402.514        2.024        0.241      188.710       17.443        0.009      339.602       13.045      859.298
06/15/2013  02:02:00     -130.377     -109.787       -7.150       39.423       32.009       27.863     1554.190     1024.559      776.370        1.623        0.168      170.445       20.767        0.015      339.559       12.975      859.302
06/15/2013  02:03:00     -106.990      -98.085        4.905       47.866       44.616       30.465     2291.188     1990.568      928.142        1.315        0.260      145.147       27.867        0.037      339.563       12.982      859.306
06/15/2013  02:04:00     -108.253      -95.329        0.353       45.553       42.088       31.048     2075.118     1771.430      964.008        1.281        0.241      144.244       30.886        0.046      339.555       12.968      859.315
06/15/2013  02:05:00      -68.597      -59.193        6.201       48.689       33.510       27.277     2370.580     1122.893      744.021        0.624        0.212       90.605       25.051        0.076      339.584       13.017      859.320
06/15/2013  02:06:00      -40.938      -44.943        9.914       36.451       30.223       21.230     1328.659      913.457      450.700        0.324        0.135       60.793       20.373        0.112      339.622       13.082      859.341
06/15/2013  02:07:00      -98.796      -49.328       -4.993       25.695       25.309       16.551      660.245      640.532      273.928        0.690        0.079      110.426       14.503        0.017      339.674       13.171      859.340
06/15/2013  02:08:00      -44.965      -45.118        4.409       39.487       35.674       20.296     1559.225     1272.668      411.915        0.366        0.162       63.698       23.123        0.132      339.629       13.093      859.332
06/15/2013  02:09:00      -40.969      -36.564       17.618       45.013       28.847       24.254     2026.167      832.143      588.233        0.339        0.172       54.913       24.036        0.192      339.574       13.000      859.336
06/15/2013  02:10:00      -17.425      -45.996       11.409       30.297       31.647       17.157      917.908     1001.545      294.353        0.238        0.111       49.186       17.026        0.120      339.596       13.036      859.346
06/15/2013  02:11:00      -10.554      -25.119       10.815       24.500       17.642       15.555      600.232      311.240      241.947        0.101        0.058       27.246       14.522        0.284      339.619       13.076      859.369
06/15/2013  02:12:00      -26.683      -38.067        6.122       28.183       32.222       17.528      794.302     1038.284      307.230        0.217        0.107       46.488       18.978        0.167      339.592       13.032      859.371
06/15/2013  02:13:00      -60.232      -63.425       -4.202       19.009       23.912       12.728      361.339      571.783      162.002        0.438        0.055       87.468       12.074        0.019      339.574       13.002      859.371
06/15/2013  02:14:00      -67.349      -52.947       -1.791       18.171       23.290       13.573      330.168      542.431      184.224        0.420        0.053       85.670        5.462        0.004      339.580       13.010      859.370
06/15/2013  02:15:00      -48.730      -48.412       -1.954       19.608       21.688       14.339      384.484      470.357      205.608        0.289        0.053       68.690        6.748        0.010      339.558       12.974      859.363
06/15/2013  02:16:00      -42.913      -32.566        2.006       28.302       17.151       16.939      800.997      294.146      286.921        0.214        0.069       53.871       14.125        0.069      339.590       13.027      859.362
06/15/2013  02:17:00      -47.159      -57.688        3.696       39.616       32.132       21.269     1569.435     1032.441      452.388        0.431        0.153       74.511       19.491        0.068      339.535       12.935      859.364
06/15/2013  02:18:00      -77.547      -82.109        1.858       35.140       32.922       26.405     1234.798     1083.856      697.219        0.789        0.151      112.940       23.622        0.044      339.471       12.827      859.350
06/15/2013  02:19:00      -83.490      -61.344        6.295       45.500       43.472       27.462     2070.216     1889.782      754.178        0.774        0.236      103.603       26.048        0.063      339.448       12.788      859.334
06/15/2013  02:20:00      -83.574      -71.363        2.967       48.879       40.483       24.806     2389.174     1638.895      615.359        0.836        0.232      109.897       23.532        0.046      339.461       12.809      859.330
06/15/2013  02:21:00      -86.294      -83.437        5.667       53.260       46.373       30.414     2836.650     2150.449      925.027        1.018        0.296      120.035       26.455        0.049      339.432       12.760      859.327
06/15/2013  02:22:00     -120.608     -113.423        6.146       58.045       40.029       33.072     3369.201     1602.313     1093.787        1.676        0.303      165.562       33.370        0.041      339.469       12.822      859.316
06/15/2013  02:23:00     -114.652      -69.185        1.549       40.434       44.124       26.732     1634.905     1946.955      714.606        1.111        0.215      133.909       19.170        0.020      339.440       12.773      859.314
06/15/2013  02:24:00     -116.786      -94.648        4.991       44.507       33.556       28.298     1980.880     1125.985      800.794        1.326        0.195      150.323       26.259        0.031      339.404       12.713      859.316
06/15/2013  02:25:00      -63.826      -51.644       11.749       63.085       38.795       33.407     3979.778     1505.045     1116.014        0.674        0.330       82.103       32.947        0.161      339.374       12.664      859.302
06/15/2013  02:26:00      -60.351      -66.597        6.747       59.249       43.954       27.806     3510.401     1931.939      773.165        0.717        0.311       89.875       29.141        0.105      339.346       12.615      859.300
06/15/2013  02:27:00      -73.766      -58.163        9.159       44.440       37.865       26.499     1974.918     1433.774      702.201        0.651        0.206       93.938       23.071        0.060      339.414       12.732      859.301
06/15/2013  02:28:00     -100.417      -87.880        4.879       55.379       40.886       24.235     3066.806     1671.633      587.328        1.158        0.266      133.441       27.522        0.043      339.445       12.783      859.295
06/15/2013  02:29:00     -131.403      -82.788        5.900       34.817       33.700       24.309     1212.206     1135.659      590.910        1.355        0.147      155.308       19.209        0.015      339.443       12.779      859.292
06/15/2013  02:30:00     -133.008      -78.891       -1.642       31.017       31.790       19.472      962.047     1010.591      379.163        1.313        0.118      154.645       15.972        0.011      339.451       12.792      859.294
06/15/2013  02:31:00     -162.363      -65.072       -4.462       29.674       37.264       18.965      880.526     1388.612      359.653        1.662        0.131      174.918       13.868        0.006      339.410       12.722      859.303
06/15/2013  02:32:00     -130.198      -55.365       -7.025       30.128       27.374       21.096      907.669      749.324      445.028        1.108        0.105      141.480       16.305        0.013      339.344       12.613      859.292
06/15/2013  02:33:00     -133.540      -36.152       -3.634       41.050       29.641       19.697     1685.140      878.561      387.967        1.105        0.148      138.347       19.769        0.020      339.311       12.557      859.299
06/15/2013  02:34:00     -135.025      -32.994       -0.744       43.429       36.254       21.320     1886.117     1314.336      454.551        1.149        0.183      138.998       21.469        0.024      339.243       12.441      859.288
06/15/2013  02:35:00     -130.384      -45.176        0.027       43.384       40.210       21.506     1882.167     1616.842      462.527        1.150        0.198      137.989       22.534        0.027      339.219       12.401      859.275
06/15/2013  02:36:00      -81.273      -61.130        5.842       46.849       35.957       21.624     2194.809     1292.899      467.583        0.717        0.198      101.697       19.460        0.037      339.244       12.444      859.284
06/15/2013  02:37:00      -52.237      -48.736        8.235       37.501       39.553       24.612     1406.332     1564.467      605.765        0.437        0.179       71.442       24.644        0.119      339.287       12.517      859.279
06/15/2013  02:38:00      -21.830      -35.130       13.779       45.046       32.690       26.191     2029.119     1068.627      685.956        0.284        0.189       41.360       23.331        0.318      339.273       12.492      859.281
06/15/2013  02:39:00      -51.424      -50.236        6.952       49.191       32.410       27.076     2419.721     1050.424      733.106        0.471        0.210       71.889       25.117        0.122      339.205       12.379      859.292
06/15/2013  02:40:00      -74.018      -57.833        0.386       50.802       39.853       22.046     2580.843     1588.260      486.039        0.674        0.233       93.932       26.805        0.081      339.206       12.379      859.294
06/15/2013  02:41:00      -91.542      -55.460       -6.557       39.411       26.212       18.220     1553.201      687.093      331.956        0.703        0.129      107.032       14.194        0.018      339.211       12.390      859.282
06/15/2013  02:42:00     -104.201      -47.327       -5.226       25.199       24.244       15.172      635.007      587.756      230.182        0.729        0.073      114.445       11.551        0.010      339.191       12.354      859.278
06/15/2013  02:43:00      -69.459      -39.332        1.706       44.879       29.124       17.036     2014.123      848.223      290.217        0.476        0.158       79.822       20.631        0.067      339.191       12.355      859.273
06/15/2013  02:44:00      -67.386      -35.239        4.613       42.616       26.671       20.215     1816.141      711.361      408.636        0.437        0.147       76.044       24.168        0.101      339.201       12.372      859.266
06/15/2013  02:45:00      -47.374      -24.586        5.118       25.362       20.711       12.363      643.225      428.947      152.852        0.205        0.061       53.374       11.305        0.045      339.262       12.474      859.268
06/15/2013  02:46:00      -41.502      -27.536       11.577       33.708       19.791       16.205     1136.197      391.703      262.587        0.220        0.090       49.806       13.030        0.068      339.299       12.537      859.281
06/15/2013  02:47:00      -30.555      -48.991       14.658       34.310       30.796       23.422     1177.208      948.410      548.600        0.311        0.134       57.739       20.348        0.124      339.334       12.597      859.284
06/15/2013  02:48:00      -42.103      -40.215        9.254       39.393       29.891       20.012     1551.823      893.469      400.464        0.316        0.142       58.223       22.162        0.145      339.353       12.629      859.287
06/15/2013  02:49:00      -76.258      -52.591       -3.448       21.525       25.944       14.848      463.314      673.075      220.461        0.497        0.068       92.634       11.460        0.015      339.370       12.656      859.305
06/15/2013  02:50:00      -70.200      -56.405       -8.231       27.572       24.040       20.235      760.203      577.932      409.471        0.496        0.087       90.053        4.915        0.003      339.438       12.770      859.308
06/15/2013  02:51:00      -68.027      -39.017       -3.743       27.308       18.937       17.467      745.715      358.614      305.111        0.379        0.070       78.422       15.078        0.037      339.398       12.704      859.306
06/15/2013  02:52:00      -53.754      -36.477        7.983       38.180       26.198       22.006     1457.687      686.310      484.245        0.346        0.131       64.962       22.773        0.123      339.363       12.644      859.314
06/15/2013  02:53:00      -36.209      -38.475        8.499       31.053       19.245       20.167      964.313      370.351      406.725        0.230        0.087       52.834       17.518        0.110      339.346       12.616      859.329
06/15/2013  02:54:00      -28.457      -40.789        8.608       35.368       31.892       20.246     1250.860     1017.118      409.915        0.261        0.134       49.734       21.670        0.190      339.333       12.595      859.337
06/15/2013  02:55:00      -64.199      -59.014       -1.017       38.377       34.645       24.417     1472.756     1200.292      596.188        0.544        0.163       87.202       23.966        0.076      339.181       12.339      859.343
06/15/2013  02:56:00     -118.158      -83.063       -1.514       61.683       42.570       30.569     3804.800     1812.238      934.458        1.371        0.328      144.432       34.603        0.057      339.138       12.265      859.341
06/15/2013  02:57:00     -132.564      -96.765       -2.276       46.488       36.809       30.423     2161.173     1354.937      925.534        1.569        0.222      164.124       29.923        0.033      339.081       12.169      859.349
06/15/2013  02:58:00     -168.700     -100.242      -11.625       48.075       42.633       25.360     2311.191     1817.592      643.135        2.171        0.239      196.236       16.317        0.007      339.013       12.053      859.348
06/15/2013  02:59:00     -154.756     -104.973       -6.098       55.876       39.688       30.078     3122.104     1575.121      904.699        2.030        0.280      186.999       33.088        0.031      339.051       12.117      859.347
06/15/2013  03:00:00     -145.332      -80.372        0.084       33.222       27.524       22.472     1103.697      757.592      505.012        1.497        0.118      166.076       17.488        0.011      339.058       12.130      859.353
06/15/2013  03:01:00      -62.129      -49.395        4.427       33.662       29.108       22.582     1133.155      847.261      509.967        0.440        0.125       79.372       14.125        0.032      339.045       12.108      859.361
06/15/2013  03:02:00      -64.694      -34.206        8.591       57.361       34.749       25.189     3290.252     1207.493      634.481        0.528        0.257       73.180       24.118        0.109      339.032       12.088      859.362
06/15/2013  03:03:00      -77.884      -35.497        4.292       52.399       32.929       27.596     2745.630     1084.287      761.562        0.597        0.230       85.592       28.208        0.109      339.050       12.117      859.360
06/15/2013  03:04:00     -125.537      -92.622       -8.945       34.755       29.437       20.050     1207.899      866.518      402.021        1.345        0.124      156.008       18.807        0.015      339.013       12.055      859.368
06/15/2013  03:05:00      -90.683      -74.458        8.217       46.843       31.806       28.883     2194.272     1011.598      834.235        0.894        0.202      117.335       21.211        0.033      338.987       12.011      859.362
06/15/2013  03:06:00     -131.210      -45.202       -3.095       37.850       29.643       19.584     1432.607      878.695      383.520        1.098        0.135      138.778       16.559        0.014      338.921       11.900      859.351
06/15/2013  03:07:00     -114.295      -10.982        0.457       42.277       30.705       25.700     1787.359      942.771      660.481        0.829        0.170      114.821       25.082        0.048      338.819       11.731      859.338
06/15/2013  03:08:00     -125.063       -8.316       -5.531       42.091       35.372       21.826     1771.690     1251.190      476.365        0.962        0.175      125.339       21.797        0.030      338.716       11.557      859.337
06/15/2013  03:09:00     -130.232      -46.171       -3.121       33.305       31.416       22.932     1109.256      986.947      525.854        1.086        0.131      138.175       16.817        0.015      338.700       11.529      859.341
06/15/2013  03:10:00     -147.776      -60.903       -9.647       36.844       38.316       18.089     1357.445     1468.145      327.214        1.440        0.158      159.834       15.706        0.010      338.699       11.528      859.337
06/15/2013  03:11:00     -148.217      -67.046       -7.646       22.310       38.694       16.540      497.758     1497.255      273.580        1.439        0.113      162.676       10.958        0.005      338.748       11.611      859.337
06/15/2013  03:12:00     -122.748      -56.523        2.676       34.401       26.307       20.665     1183.448      692.057      427.036        1.029        0.115      135.137       16.577        0.015      338.665       11.471      859.334
06/15/2013  03:13:00     -132.790      -48.837       -0.153       28.446       28.097       16.113      809.159      789.428      259.624        1.094        0.093      141.486        6.070        0.002      338.741       11.598      859.320
06/15/2013  03:14:00     -114.977      -64.486        2.019       40.260       25.905       20.603     1620.831      671.071      424.486        1.005        0.136      131.826       19.738        0.022      338.778       11.660      859.309
06/15/2013  03:15:00     -101.930      -46.823       -1.555       35.965       31.267       18.581     1293.446      977.635      345.266        0.760        0.131      112.170       18.353        0.027      338.841       11.766      859.311
06/15/2013  03:16:00      -64.156      -42.781        4.155       47.921       23.587       19.064     2296.470      556.341      363.446        0.459        0.161       77.112       18.385        0.057      338.854       11.788      859.311
06/15/2013  03:17:00      -52.950      -59.689        1.582       32.040       30.828       23.581     1026.559      950.363      556.086        0.445        0.127       79.790       23.394        0.086      338.863       11.802      859.314
06/15/2013  03:18:00      -53.735      -62.692       -0.839       40.666       26.622       20.922     1653.702      708.710      437.731        0.481        0.140       82.570       24.132        0.085      338.879       11.829      859.318
06/15/2013  03:19:00      -35.756      -50.126        9.782       47.149       30.636       24.749     2223.036      938.559      612.509        0.383        0.189       61.572       27.996        0.207      338.822       11.735      859.312
06/15/2013  03:20:00      -57.560      -71.346       -6.576       26.691       22.015       15.871      712.417      484.673      251.880        0.495        0.072       91.670       11.976        0.017      338.838       11.761      859.311
06/15/2013  03:21:00      -82.486      -49.604       -9.112       20.007       24.978       11.320      400.274      623.919      128.133        0.525        0.058       96.252        6.493        0.005      338.834       11.753      859.314
06/15/2013  03:22:00      -77.060      -46.369        1.935       44.450       33.123       18.986     1975.766     1097.113      360.453        0.576        0.172       89.935       18.913        0.044      338.759       11.628      859.313
06/15/2013  03:23:00     -104.935      -49.573       -0.231       31.358       21.133       16.056      983.324      446.599      257.797        0.758        0.084      116.056       14.178        0.015      338.798       11.696      859.303
06/15/2013  03:24:00      -89.128      -52.290        0.602       25.708       26.767       18.906      660.918      716.456      357.452        0.621        0.087      103.335       16.967        0.027      338.729       11.579      859.299
06/15/2013  03:25:00      -92.751      -30.789       -8.495       31.552       30.756       17.239      995.518      945.901      297.198        0.593        0.112       97.728       13.097        0.018      338.754       11.622      859.304
06/15/2013  03:26:00     -102.067      -47.426       -9.024       17.048       18.752       12.272      290.620      351.651      150.608        0.677        0.040      112.547        9.588        0.007      338.713       11.551      859.295
06/15/2013  03:27:00      -95.757      -39.088       -2.207       14.228       19.270       13.699      202.440      371.329      187.661        0.573        0.038      103.428        7.804        0.006      338.773       11.654      859.288
06/15/2013  03:28:00      -78.556      -52.236       -1.605       28.965       18.460       17.885      838.977      340.773      319.866        0.520        0.075       94.338       19.208        0.041      338.835       11.755      859.295
06/15/2013  03:29:00      -45.295      -31.050        5.589       34.946       21.192       18.357     1221.234      449.107      336.985        0.253        0.100       54.916       17.141        0.097      338.809       11.712      859.293
06/15/2013  03:30:00      -46.823      -41.357       11.993       33.886       23.832       19.117     1148.279      567.983      365.471        0.306        0.104       62.472       18.680        0.089      338.807       11.710      859.284
06/15/2013  03:31:00      -25.107      -32.271       14.450       32.218       18.004       17.646     1038.016      324.148      311.397        0.178        0.084       40.887       19.237        0.221      338.866       11.808      859.283
06/15/2013  03:32:00      -28.410      -32.940        7.603       27.868       22.448       16.652      776.621      503.931      277.281        0.175        0.078       43.499       14.719        0.115      338.816       11.726      859.285
06/15/2013  03:33:00      -69.180      -52.340       -3.017       24.157       19.477       14.721      583.556      379.353      216.707        0.436        0.059       86.749        7.891        0.008      338.833       11.753      859.288
06/15/2013  03:34:00      -20.850      -22.367        8.805       27.901       17.160       15.369      778.445      294.479      236.212        0.116        0.065       30.578       11.717        0.147      338.862       11.801      859.285
06/15/2013  03:35:00      -18.015      -24.157        7.408       23.085       17.738       16.454      532.923      314.650      270.738        0.104        0.056       30.134       12.523        0.173      338.807       11.710      859.282
06/15/2013  03:36:00      -41.777      -55.802        4.659       34.943       18.985       20.198     1221.015      360.419      407.976        0.343        0.099       69.708       17.428        0.063      338.796       11.691      859.276
06/15/2013  03:37:00      -62.701      -62.183        3.252       40.840       36.465       23.331     1667.903     1329.671      544.313        0.567        0.177       88.307       26.368        0.089      338.650       11.444      859.280
06/15/2013  03:38:00      -84.867      -58.646       -2.966       42.199       25.813       21.525     1780.716      666.287      463.306        0.678        0.146      103.158       15.665        0.023      338.585       11.336      859.284
06/15/2013  03:39:00     -110.049      -65.783       -5.665       26.302       25.251       15.940      691.800      637.610      254.071        0.903        0.079      128.212       11.157        0.008      338.593       11.349      859.276
06/15/2013  03:40:00      -61.453      -48.992        8.942       45.751       31.688       25.965     2093.143     1004.119      674.187        0.501        0.189       78.592       28.013        0.127      338.587       11.340      859.279
06/15/2013  03:41:00      -58.069      -45.232        5.115       39.466       26.559       20.461     1557.578      705.376      418.650        0.406        0.134       73.606       22.281        0.092      338.548       11.274      859.287
06/15/2013  03:42:00      -67.917      -49.265        4.322       42.606       26.214       21.818     1815.305      687.177      476.032        0.502        0.149       83.904       15.541        0.034      338.611       11.379      859.305
06/15/2013  03:43:00      -60.581      -60.493        8.987       39.820       34.591       23.938     1585.634     1196.511      573.042        0.538        0.168       85.612       23.995        0.079      338.619       11.395      859.307
06/15/2013  03:44:00      -36.845      -61.495       10.900       38.312       30.814       25.807     1467.840      949.517      665.981        0.417        0.154       71.688       22.218        0.096      338.603       11.366      859.305
06/15/2013  03:45:00      -69.297      -48.817        9.089       54.289       29.895       25.661     2947.269      893.729      658.488        0.588        0.225       84.766       27.672        0.107      338.599       11.360      859.302
06/15/2013  03:46:00      -80.766      -47.693        8.840       61.586       40.485       28.365     3792.824     1639.041      804.574        0.755        0.312       93.796       29.821        0.101      338.589       11.344      859.312
06/15/2013  03:47:00     -111.015      -72.525       -3.641       57.790       42.348       23.163     3339.631     1793.316      536.537        1.163        0.283      132.605       25.351        0.037      338.653       11.451      859.313
06/15/2013  03:48:00     -106.165      -50.960      -10.715       22.135       28.466       16.759      489.942      810.304      280.858        0.778        0.079      117.763       11.156        0.009      338.698       11.526      859.308
06/15/2013  03:49:00     -131.912      -45.058       -9.028       26.497       24.350       13.620      702.107      592.941      185.506        1.050        0.074      139.395       14.118        0.010      338.700       11.532      859.297
06/15/2013  03:50:00     -135.163      -56.275       -2.002       26.542       23.788       15.106      704.503      565.888      228.183        1.147        0.075      146.410       13.494        0.008      338.663       11.467      859.285
06/15/2013  03:51:00     -112.046      -58.714       -1.689       27.060       29.792       20.710      732.271      887.559      428.904        0.903        0.102      126.497       15.342        0.015      338.684       11.504      859.279
06/15/2013  03:52:00     -116.819      -44.185       -2.780       23.001       23.035       14.117      529.045      530.622      199.287        0.843        0.063      124.896        8.685        0.005      338.738       11.592      859.277
06/15/2013  03:53:00      -98.233      -18.913       -6.513       38.150       29.238       19.204     1455.401      854.867      368.784        0.636        0.134      100.037       18.198        0.033      338.576       11.321      859.269
06/15/2013  03:54:00     -112.736      -30.425       -4.732       31.701       25.638       19.328     1004.981      657.309      373.564        0.785        0.102      116.769       16.181        0.019      338.495       11.186      859.269
06/15/2013  03:55:00     -113.583      -50.827      -10.788       23.496       11.381       14.196      552.072      129.523      201.520        0.824        0.044      124.436        8.090        0.004      338.564       11.302      859.278
06/15/2013  03:56:00      -19.009      -23.577        7.645       30.431       23.439       18.072      926.057      549.392      326.580        0.139        0.090       30.286       19.104        0.398      338.560       11.294      859.283
06/15/2013  03:57:00      -21.026      -37.711        3.173       32.273       32.511       14.108     1041.528     1056.948      199.024        0.209        0.115       43.176       16.691        0.149      338.561       11.296      859.287
06/15/2013  03:58:00      -15.972      -40.496        6.105       27.647       24.191       22.333      764.343      585.193      498.748        0.189        0.092       43.532       19.152        0.194      338.658       11.459      859.307
06/15/2013  03:59:00      -37.033      -64.084       -9.760       19.212       28.189       12.691      369.102      794.633      161.063        0.345        0.066       74.015       10.982        0.022      338.699       11.528      859.334
06/15/2013  04:00:00      -24.289      -53.318        6.805       38.232       41.696       25.343     1461.704     1738.598      642.270        0.366        0.192       58.590       17.617        0.090      338.625       11.404      859.344
06/15/2013  04:01:00      -30.525      -29.600        9.147       48.816       33.196       20.950     2383.040     1101.989      438.904        0.291        0.196       42.520       20.411        0.230      338.590       11.344      859.345
06/15/2013  04:02:00      -37.522      -30.000        9.543       45.445       25.259       18.895     2065.261      638.029      357.009        0.273        0.153       48.041       19.520        0.165      338.562       11.297      859.342
06/15/2013  04:03:00      -62.514      -40.552        5.424       54.244       28.136       20.960     2942.359      791.617      439.317        0.488        0.209       74.515       25.598        0.118      338.511       11.212      859.352
06/15/2013  04:04:00      -13.854      -68.273        2.436       33.566       39.994       23.961     1126.704     1599.517      574.111        0.408        0.165       69.664       16.008        0.053      338.543       11.266      859.359
06/15/2013  04:05:00      -26.603      -57.049        8.348       49.184       38.242       27.719     2419.017     1462.478      768.368        0.434        0.232       62.947       20.570        0.107      338.530       11.244      859.366
06/15/2013  04:06:00      -51.529      -55.799       -2.953       68.467       38.461       28.517     4687.780     1479.252      813.243        0.638        0.349       75.952       23.571        0.096      338.480       11.159      859.371
06/15/2013  04:07:00      -26.843      -31.606        7.006       32.108       26.653       18.433     1030.937      710.390      339.777        0.192        0.104       41.467       10.238        0.061      338.452       11.113      859.382
06/15/2013  04:08:00      -16.317      -52.048        5.194       46.059       35.201       24.937     2121.395     1239.077      621.835        0.349        0.199       54.546       17.096        0.098      338.459       11.125      859.386
06/15/2013  04:09:00      -50.226      -40.523       11.301       50.968       27.047       25.584     2597.765      731.515      654.559        0.414        0.199       64.535       21.963        0.116      338.363       10.964      859.379
06/15/2013  04:10:00       -3.798      -16.818       17.809       37.782       30.878       23.825     1427.448      953.480      567.624        0.178        0.147       17.241       16.121        0.874      338.377       10.986      859.371
06/15/2013  04:11:00      -81.687      -71.533        1.729       60.728       37.786       29.565     3687.850     1427.776      874.115        0.889        0.299      108.581       22.499        0.043      338.372       10.978      859.382
06/15/2013  04:12:00     -105.957      -89.875       -0.084       53.770       46.203       31.662     2891.244     2134.729     1002.479        1.267        0.301      138.940       27.409        0.039      338.374       10.982      859.379
06/15/2013  04:13:00      -89.700      -90.051        1.038       48.966       44.610       30.743     2397.708     1990.056      945.123        1.074        0.267      127.104       30.657        0.058      338.384       10.999      859.365
06/15/2013  04:14:00     -103.088      -94.082        0.325       41.921       40.825       28.817     1757.341     1666.653      830.399        1.187        0.213      139.565       24.573        0.031      338.413       11.047      859.353
06/15/2013  04:15:00     -107.862      -78.809       -3.486       36.932       35.797       20.612     1363.981     1281.449      424.847        1.046        0.154      133.585       18.442        0.019      338.421       11.061      859.354
06/15/2013  04:16:00     -103.663      -57.354       -1.560       26.368       25.167       17.647      695.279      633.368      311.403        0.784        0.082      118.472        9.859        0.007      338.386       11.001      859.358
06/15/2013  04:17:00      -91.678      -48.796        0.444       38.904       26.366       17.688     1513.539      695.190      312.880        0.665        0.126      103.855       21.397        0.042      338.413       11.047      859.356
06/15/2013  04:18:00     -124.330      -56.356       -4.215       21.838       29.860       16.316      476.903      891.630      266.200        1.014        0.082      136.507       14.316        0.011      338.486       11.170      859.361
06/15/2013  04:19:00      -39.585      -47.199        5.280       43.167       31.184       26.318     1863.372      972.423      692.623        0.367        0.176       61.602       25.785        0.175      338.478       11.157      859.378
06/15/2013  04:20:00      -21.042      -43.517       11.515       40.917       23.312       22.144     1674.172      543.456      490.377        0.259        0.135       48.338       22.718        0.221      338.408       11.039      859.383
06/15/2013  04:21:00      -12.106      -31.062       16.615       26.183       21.447       15.586      685.565      459.970      242.913        0.139        0.069       33.338       15.505        0.216      338.435       11.084      859.384
06/15/2013  04:22:00      -41.918      -26.014        2.790       27.468       19.770       12.579      754.509      390.862      158.219        0.187        0.065       49.334        8.489        0.030      338.428       11.073      859.389
06/15/2013  04:23:00        8.258      -17.936       11.813       24.677       20.908       20.159      608.933      437.153      406.400        0.099        0.073       19.745       15.414        0.609      338.456       11.120      859.400
06/15/2013  04:24:00      -46.540      -29.073        8.896       45.368       32.597       21.343     2058.261     1062.576      455.514        0.333        0.179       54.874       17.932        0.107      338.308       10.872      859.405
06/15/2013  04:25:00     -113.745      -76.049        3.952       40.719       34.546       23.815     1658.028     1193.460      567.145        1.108        0.171      136.826       21.837        0.025      338.356       10.951      859.392
06/15/2013  04:26:00     -141.433      -58.576      -13.089       37.702       31.501       20.174     1421.432      992.333      406.979        1.321        0.141      153.083       19.685        0.017      338.315       10.884      859.387
06/15/2013  04:27:00      -98.178      -60.156        1.885       38.368       26.200       18.372     1472.073      686.453      337.522        0.788        0.125      115.142       15.940        0.019      338.322       10.894      859.385
06/15/2013  04:28:00      -94.901      -59.988       -1.498       30.909       24.699       18.187      955.375      610.023      330.773        0.725        0.095      112.271       18.084        0.026      338.318       10.887      859.375
06/15/2013  04:29:00      -61.989      -36.706        5.019       38.297       19.350       17.579     1466.653      374.424      309.030        0.368        0.108       72.042       21.253        0.087      338.336       10.918      859.378
06/15/2013  04:30:00      -53.439      -20.832       -1.164       30.703       15.235       15.479      942.666      232.110      239.607        0.235        0.071       57.356       16.151        0.079      338.390       11.008      859.386
06/15/2013  04:31:00      -82.861      -21.494       -6.572       11.682       13.821       10.111      136.458      191.034      102.226        0.390        0.021       85.603        4.810        0.003      338.381       10.993      859.405
06/15/2013  04:32:00      -62.134      -18.294       -4.902       18.926       21.335       12.571      358.183      455.188      158.022        0.260        0.049       64.771       12.047        0.035      338.331       10.910      859.410
06/15/2013  04:33:00      -80.452       -0.244       -5.820       20.909       12.271        9.942      437.207      150.578       98.837        0.360        0.034       80.452       10.284        0.016      338.239       10.756      859.417
06/15/2013  04:34:00      -88.590        0.992       -9.286       21.785       10.206       12.504      474.566      104.170      156.339        0.434        0.037       88.595       11.909        0.018      338.188       10.671      859.428
06/15/2013  04:35:00      -87.625       -0.816       -4.123       27.362       17.138       14.590      748.698      293.725      212.877        0.448        0.063       87.628       14.860        0.029      338.119       10.553      859.423
06/15/2013  04:36:00      -85.053       -6.958       -2.458       20.505       20.240       15.788      420.440      409.661      249.265        0.418        0.054       85.337       12.684        0.022      338.074       10.476      859.417
06/15/2013  04:37:00      -58.556       -2.597        2.608       28.491       17.047       13.610      811.759      290.602      185.225        0.236        0.064       58.613       13.854        0.056      338.088       10.502      859.420
06/15/2013  04:38:00      -75.294      -12.603        0.155       23.084       16.068       13.914      532.886      258.186      193.605        0.341        0.049       76.342       13.395        0.031      338.119       10.554      859.419
06/15/2013  04:39:00      -61.268      -23.788        6.291       29.287       15.890       14.998      857.717      252.480      224.946        0.285        0.067       65.723       15.926        0.059      338.207       10.703      859.409
06/15/2013  04:40:00      -53.689      -25.230        6.909       22.006       18.203       12.427      484.256      331.349      154.421        0.227        0.049       59.322        9.696        0.027      338.222       10.726      859.405
06/15/2013  04:41:00      -67.101      -33.231       -0.001       19.256       19.826       13.828      370.806      393.072      191.218        0.328        0.048       74.879       12.598        0.028      338.292       10.844      859.402
06/15/2013  04:42:00      -91.298      -18.221       -7.782       16.037       12.603       10.446      257.190      158.834      109.115        0.463        0.026       93.098        6.776        0.005      338.271       10.808      859.410
06/15/2013  04:43:00      -91.118      -10.774       -9.283       20.241       15.420       13.566      409.691      237.781      184.047        0.467        0.042       91.753       12.277        0.018      338.206       10.701      859.406
06/15/2013  04:44:00      -86.426      -10.984       -2.748       24.538       21.175       14.950      602.096      448.396      223.490        0.444        0.064       87.121       15.213        0.030      338.209       10.703      859.394
06/15/2013  04:45:00     -114.286      -14.182       -7.854       30.266       15.381       17.754      916.037      236.563      315.201        0.740        0.073      115.163       19.165        0.028      338.137       10.583      859.380
06/15/2013  04:46:00     -111.731      -19.051       -7.286       29.475       19.392       17.955      868.764      376.053      322.392        0.723        0.078      113.344       16.748        0.022      338.081       10.489      859.370
06/15/2013  04:47:00      -77.819      -39.759        2.499       34.596       21.402       16.250     1196.903      458.056      264.063        0.478        0.096       87.388       15.730        0.032      337.995       10.346      859.372
06/15/2013  04:48:00      -95.489      -44.532       -0.019       28.055       24.387       16.005      787.057      594.735      256.160        0.637        0.082      105.362       14.682        0.019      338.033       10.409      859.371
06/15/2013  04:49:00      -94.941      -54.397       -1.903       34.285       30.480       18.995     1175.477      929.004      360.805        0.722        0.123      109.421       15.962        0.021      338.035       10.411      859.370
06/15/2013  04:50:00     -107.348      -40.234       -7.060       28.469       23.786       17.176      810.465      565.778      295.018        0.743        0.084      114.640       16.945        0.022      338.044       10.428      859.377
06/15/2013  04:51:00      -90.895      -44.498       -4.321       22.118       29.371       15.349      489.208      862.655      235.583        0.592        0.079      101.203       15.604        0.024      338.134       10.580      859.384
06/15/2013  04:52:00      -75.404      -55.090       -1.764       26.864       23.382       14.727      721.659      546.723      216.878        0.510        0.074       93.384       13.364        0.020      338.193       10.679      859.388
06/15/2013  04:53:00      -77.954      -54.506       -6.109       26.291       17.212       17.554      691.197      296.262      308.155        0.519        0.065       95.120       14.385        0.023      338.161       10.625      859.391
06/15/2013  04:54:00      -48.850      -50.860       -2.305       33.337       19.342       17.781     1111.369      374.097      316.171        0.339        0.090       70.520       13.089        0.034      338.173       10.646      859.398
06/15/2013  04:55:00      -54.442      -47.697        7.096       51.672       30.021       24.229     2670.041      901.255      587.049        0.472        0.208       72.381       25.026        0.120      338.039       10.420      859.409
06/15/2013  04:56:00      -86.945      -76.700       -0.626       39.310       28.975       21.150     1545.245      839.563      447.307        0.814        0.142      115.941       19.471        0.028      338.015       10.380      859.407
06/15/2013  04:57:00     -131.481      -80.671      -14.418       40.629       25.600       19.623     1650.730      655.349      385.049        1.335        0.135      154.256       16.085        0.011      338.074       10.478      859.406
06/15/2013  04:58:00     -103.414      -65.220       -5.026       29.321       27.962       18.724      859.720      781.899      350.591        0.848        0.100      122.262       17.405        0.020      337.984       10.328      859.408
06/15/2013  04:59:00      -68.262      -55.340        1.038       35.991       22.966       21.132     1295.386      527.439      446.545        0.500        0.113       87.876       18.589        0.045      337.908       10.199      859.425
06/15/2013  05:00:00      -77.454      -53.173       -7.649       19.409       20.516       14.980      376.707      420.906      224.391        0.495        0.051       93.949       11.353        0.015      337.988       10.334      859.422
06/15/2013  05:01:00      -71.884      -41.923       -6.011       24.897       17.086       12.887      619.872      291.921      166.063        0.402        0.054       83.216       10.316        0.015      338.010       10.372      859.421
06/15/2013  05:02:00      -78.589      -32.617        1.357       26.430       23.809       12.501      698.523      566.857      156.276        0.433        0.071       85.089       12.816        0.023      337.975       10.313      859.429
06/15/2013  05:03:00      -52.960      -38.994       -0.823       44.635       22.989       15.119     1992.289      528.475      228.597        0.354        0.137       65.767       16.485        0.063      338.017       10.384      859.438
06/15/2013  05:04:00      -48.892      -54.177        3.346       43.288       34.861       21.348     1873.810     1215.259      455.722        0.444        0.177       72.976       22.538        0.095      338.025       10.397      859.437
06/15/2013  05:05:00      -71.833      -73.808        3.539       43.710       42.238       22.621     1910.601     1784.041      511.688        0.741        0.210      102.994       22.713        0.049      338.057       10.451      859.429
06/15/2013  05:06:00     -109.049      -73.415       -7.971       41.870       27.845       26.725     1753.066      775.330      714.237        1.029        0.162      131.458       27.360        0.043      338.009       10.369      859.431
06/15/2013  05:07:00      -98.887      -77.796       -2.299       54.171       34.126       24.579     2934.531     1164.585      604.116        1.027        0.235      125.820       32.001        0.065      338.011       10.373      859.436
06/15/2013  05:08:00      -95.863      -71.986        0.592       33.009       29.980       22.564     1089.617      898.809      509.119        0.843        0.125      119.882       20.341        0.029      338.009       10.369      859.440
06/15/2013  05:09:00     -111.913      -68.823       -2.028       48.744       26.293       20.769     2375.942      691.343      431.369        1.038        0.175      131.381       17.303        0.017      338.029       10.402      859.448
06/15/2013  05:10:00     -101.507      -70.879        3.555       47.807       31.215       27.163     2285.466      974.369      737.847        0.967        0.200      123.804       25.022        0.041      337.987       10.334      859.446
06/15/2013  05:11:00      -81.811      -59.333        3.236       46.089       44.019       18.666     2124.207     1937.706      348.432        0.732        0.221      101.062       23.321        0.053      337.957       10.283      859.454
06/15/2013  05:12:00      -90.290      -77.663        0.456       59.518       48.480       27.068     3542.443     2350.281      732.686        1.040        0.331      119.095       29.258        0.060      337.997       10.350      859.455
06/15/2013  05:13:00      -83.558      -79.114       -0.707       47.330       41.112       27.623     2240.096     1690.196      763.003        0.897        0.235      115.070       27.244        0.056      338.001       10.355      859.449
06/15/2013  05:14:00     -143.855     -108.851       -5.858       30.605       29.796       22.673      936.690      887.820      514.077        1.746        0.117      180.396       18.919        0.011      338.017       10.383      859.451
06/15/2013  05:15:00     -119.596     -108.423       -9.026       47.301       40.693       26.050     2237.407     1655.921      678.614        1.536        0.229      161.428       25.212        0.024      337.995       10.345      859.462
06/15/2013  05:16:00      -90.651      -73.313        1.115       46.382       37.346       29.821     2151.277     1394.744      889.299        0.901        0.222      116.586       28.334        0.059      337.969       10.302      859.465
06/15/2013  05:17:00      -74.537      -60.057       11.126       52.589       41.708       31.476     2765.586     1739.571      990.730        0.739        0.275       95.722       31.130        0.106      337.972       10.308      859.469
06/15/2013  05:18:00     -122.441     -106.991       -5.999       23.780       28.724       23.200      565.502      825.060      538.259        1.420        0.096      162.600       18.666        0.013      337.937       10.248      859.484
06/15/2013  05:19:00     -113.761      -91.444        1.461       45.584       36.341       24.164     2077.869     1320.703      583.906        1.264        0.199      145.958       25.919        0.032      337.992       10.341      859.502
06/15/2013  05:20:00      -75.602      -76.342        9.392       57.839       47.544       27.859     3345.294     2260.404      776.134        0.901        0.319      107.442       28.479        0.070      337.945       10.262      859.509
06/15/2013  05:21:00      -91.334      -87.288        3.593       49.366       35.865       29.195     2437.010     1286.282      852.368        1.027        0.229      126.337       29.674        0.055      337.916       10.214      859.517
06/15/2013  05:22:00      -48.721      -38.657        9.668       46.004       37.945       24.612     2116.330     1439.828      605.769        0.406        0.208       62.193       23.131        0.138      337.889       10.169      859.519
06/15/2013  05:23:00      -49.069      -69.525        6.923       42.968       39.511       28.577     1846.225     1561.115      816.631        0.576        0.211       85.097       28.045        0.109      337.934       10.245      859.535
06/15/2013  05:24:00     -103.956     -103.280       -8.768       36.316       34.964       20.279     1318.874     1222.515      411.242        1.225        0.148      146.538       21.578        0.022      337.883       10.159      859.536
06/15/2013  05:25:00      -94.144      -80.126        1.352       52.823       38.006       29.603     2790.290     1444.444      876.366        1.020        0.256      123.625       26.628        0.046      337.898       10.183      859.533
06/15/2013  05:26:00      -97.633      -68.880        0.330       43.360       34.230       25.068     1880.056     1171.720      628.430        0.898        0.184      119.486       24.681        0.043      337.845       10.094      859.527
06/15/2013  05:27:00      -87.082      -51.695        2.271       51.639       36.923       26.955     2666.633     1363.295      726.575        0.751        0.238      101.270       22.425        0.049      337.812       10.039      859.535
06/15/2013  05:28:00      -76.219      -63.987        3.314       39.272       38.056       22.717     1542.277     1448.239      516.079        0.671        0.175       99.517       16.816        0.029      337.788        9.998      859.545
06/15/2013  05:29:00      -92.360      -89.609       -1.533       33.733       30.213       22.326     1137.893      912.803      498.452        0.956        0.127      128.687       18.150        0.020      337.813       10.040      859.552
06/15/2013  05:30:00     -109.973      -93.453       -4.817       57.548       44.853       27.971     3311.818     2011.823      782.379        1.348        0.305      144.318       27.604        0.037      337.727        9.896      859.558
06/15/2013  05:31:00     -126.826     -109.259      -11.572       52.909       54.028       32.640     2799.334     2919.027     1065.393        1.747        0.339      167.399       28.031        0.028      337.759        9.948      859.567
06/15/2013  05:32:00      -92.209      -69.337       -5.067       58.914       55.183       35.646     3470.807     3045.149     1270.657        1.056        0.389      115.369       31.995        0.077      337.780        9.986      859.583
06/15/2013  05:33:00     -150.523     -115.625      -14.626       42.787       47.760       28.098     1830.686     2281.009      789.503        2.057        0.245      189.806       20.992        0.012      337.867       10.130      859.586
06/15/2013  05:34:00     -165.857     -139.898      -16.684       25.758       34.642       22.996      663.460     1200.041      528.794        2.487        0.120      216.979       13.512        0.004      337.887       10.161      859.588
06/15/2013  05:35:00     -130.609     -113.521       -4.573       50.820       48.367       32.293     2582.639     2339.355     1042.858        1.796        0.298      173.048       33.046        0.036      337.804       10.025      859.593
06/15/2013  05:36:00     -140.031     -114.588      -11.531       37.348       40.040       25.994     1394.859     1603.209      675.702        1.827        0.184      180.939       15.291        0.007      337.784        9.992      859.605
06/15/2013  05:37:00     -143.394     -112.657      -14.076       48.272       37.974       26.309     2330.166     1442.006      692.156        1.896        0.223      182.355       21.281        0.014      337.782        9.989      859.612
06/15/2013  05:38:00     -163.365     -118.509       -7.769       51.984       47.500       29.751     2702.318     2256.277      885.113        2.332        0.292      201.823       25.557        0.016      337.813       10.038      859.613
06/15/2013  05:39:00     -168.957     -119.457       -2.189       70.393       55.824       35.161     4955.108     3116.321     1236.296        2.606        0.465      206.922       37.604        0.033      337.774        9.972      859.615
06/15/2013  05:40:00     -163.652     -123.876       -3.390       44.661       45.917       28.212     1994.562     2108.397      795.895        2.352        0.245      205.249       23.932        0.014      337.771        9.969      859.625
06/15/2013  05:41:00     -156.167     -127.234       -8.017       59.583       52.247       34.259     3550.109     2729.720     1173.652        2.405        0.373      201.436       28.543        0.020      337.790       10.000      859.636
06/15/2013  05:42:00     -153.523     -118.843       -8.317       44.916       45.415       34.553     2017.469     2062.540     1193.904        2.152        0.264      194.146       25.452        0.017      337.810       10.033      859.637
06/15/2013  05:43:00     -157.379      -80.111       -2.871       47.752       63.338       31.897     2280.231     4011.662     1017.439        1.925        0.365      176.595       27.596        0.024      337.771        9.968      859.645
06/15/2013  05:44:00     -148.342     -110.324       -1.190       53.919       41.328       26.587     2907.307     1708.020      706.879        1.975        0.266      184.869       24.490        0.018      337.781        9.986      859.668
06/15/2013  05:45:00     -144.831     -109.601       -5.769       52.063       55.836       32.703     2710.593     3117.644     1069.508        1.996        0.345      181.628       27.756        0.023      337.791       10.004      859.682
06/15/2013  05:46:00     -143.670      -78.874       -1.783       48.767       48.086       25.461     2378.243     2312.287      648.245        1.610        0.267      163.897       21.135        0.017      337.802       10.021      859.693
06/15/2013  05:47:00     -136.473      -72.572       -2.403       56.521       45.268       29.598     3194.575     2049.149      876.071        1.501        0.306      154.569       29.973        0.038      337.724        9.890      859.711
06/15/2013  05:48:00     -124.381      -69.662       -3.313       31.283       32.110       21.560      978.599     1031.035      464.836        1.140        0.124      142.561       15.885        0.012      337.750        9.934      859.722
06/15/2013  05:49:00     -120.633      -96.813        1.180       56.154       45.514       29.938     3153.319     2071.479      896.282        1.502        0.306      154.678       34.636        0.050      337.780        9.986      859.721
06/15/2013  05:50:00     -107.576      -92.465        2.618       39.255       33.177       23.126     1540.987     1100.722      534.804        1.165        0.159      141.853       19.937        0.020      337.755        9.944      859.707
06/15/2013  05:51:00     -112.989     -107.275       -1.149       45.435       50.363       28.290     2064.346     2536.470      800.332        1.484        0.270      155.802       27.245        0.031      337.712        9.871      859.708
06/15/2013  05:52:00      -76.311      -75.403        5.842       59.157       47.501       26.897     3499.525     2256.369      723.448        0.901        0.324      107.280       28.199        0.069      337.687        9.829      859.712
06/15/2013  05:53:00      -86.467      -77.443        7.527       56.088       40.826       34.359     3145.887     1666.782     1180.509        0.976        0.300      116.077       35.754        0.095      337.706        9.861      859.706
06/15/2013  05:54:00      -95.740      -74.031       -0.588       40.907       37.946       27.585     1673.381     1439.895      760.918        0.926        0.194      121.023       22.430        0.034      337.701        9.854      859.709
06/15/2013  05:55:00     -112.406      -87.457        0.868       48.934       36.681       30.072     2394.509     1345.506      904.345        1.246        0.232      142.421       26.621        0.035      337.653        9.773      859.708
06/15/2013  05:56:00     -137.283     -103.845       -4.963       64.485       37.723       34.935     4158.322     1423.052     1220.446        1.823        0.340      172.135       36.244        0.044      337.620        9.716      859.724
06/15/2013  05:57:00     -128.495      -89.280       -1.019       49.174       37.279       29.161     2418.066     1389.745      850.373        1.457        0.233      156.467       30.969        0.039      337.635        9.743      859.732
06/15/2013  05:58:00     -100.039      -32.501       -2.270       34.976       35.357       22.389     1223.343     1250.089      501.266        0.702        0.149      105.186       20.344        0.037      337.675        9.809      859.728
06/15/2013  05:59:00     -110.724      -70.252       -3.199       41.937       32.662       21.376     1758.735     1066.797      456.927        1.024        0.164      131.130       15.929        0.015      337.722        9.888      859.740
06/15/2013  06:00:00     -112.128      -70.985       -4.208       40.139       36.065       18.917     1611.101     1300.682      357.835        1.045        0.163      132.709       16.543        0.016      337.745        9.927      859.749
06/15/2013  06:01:00     -111.823      -88.891       -3.701       48.664       31.319       20.653     2368.232      980.877      426.533        1.210        0.189      142.850       22.512        0.025      337.788        9.998      859.759
06/15/2013  06:02:00      -89.431      -50.938        4.287       44.350       25.685       21.933     1966.909      659.714      481.074        0.686        0.155      102.920       23.161        0.051      337.813       10.039      859.766
06/15/2013  06:03:00     -114.486      -31.087       -5.538       18.533       27.222       17.895      343.481      741.044      320.232        0.775        0.070      118.631       14.020        0.014      337.816       10.045      859.773
06/15/2013  06:04:00     -107.043      -25.010       -4.960       25.248       24.368       12.937      637.461      593.793      167.368        0.675        0.070      109.926       13.481        0.015      337.798       10.017      859.768
06/15/2013  06:05:00     -100.381      -18.065       -2.861       49.494       33.760       17.344     2449.631     1139.748      300.815        0.715        0.195      101.993       22.084        0.047      337.900       10.185      859.771
06/15/2013  06:06:00     -108.996      -42.602        0.650       17.381       16.453       10.848      302.111      270.692      117.687        0.719        0.035      117.026        8.956        0.006      337.910       10.202      859.772
06/15/2013  06:07:00      -85.201      -23.988       -4.065       33.543       22.127       17.372     1125.126      489.605      301.775        0.488        0.096       88.514       19.407        0.048      337.935       10.246      859.779
06/15/2013  06:08:00      -77.416      -15.240       -3.994       20.814       19.367       13.984      433.222      375.093      195.542        0.362        0.050       78.902       12.222        0.024      337.922       10.224      859.786
06/15/2013  06:09:00      -66.072      -26.500       -4.447       16.945       22.470       11.230      287.141      504.904      126.115        0.300        0.046       71.188        6.084        0.007      337.898       10.184      859.788
06/15/2013  06:10:00      -60.301      -42.872       -4.963       22.290       14.977       10.911      496.858      224.306      119.046        0.317        0.042       73.988        9.816        0.018      337.992       10.341      859.793
06/15/2013  06:11:00      -41.781      -35.923        3.149       23.453       28.650       16.193      550.021      820.797      262.224        0.234        0.082       55.101       13.491        0.060      337.995       10.347      859.803
06/15/2013  06:12:00      -56.506      -24.202       -1.803       20.109       20.551       14.216      404.355      422.332      202.082        0.241        0.051       61.471       13.569        0.049      338.054       10.445      859.810
06/15/2013  06:13:00      -65.364      -19.441       -5.962        9.348       10.982        8.644       87.393      120.604       74.711        0.248        0.014       68.194        3.475        0.003      338.020       10.387      859.812
06/15/2013  06:14:00      -49.633      -26.281       -8.221       12.555        9.472        9.697      157.632       89.711       94.031        0.178        0.017       56.161        5.556        0.010      338.110       10.539      859.808
06/15/2013  06:15:00      -38.919      -38.616       -5.132       21.187       27.575       11.541      448.875      760.386      133.201        0.219        0.067       54.825       10.347        0.036      338.068       10.468      859.816
06/15/2013  06:16:00      -64.547      -61.198       -4.192       18.415       17.388       11.419      339.099      302.335      130.391        0.435        0.039       88.946        9.556        0.012      338.055       10.448      859.828
06/15/2013  06:17:00      -78.166      -56.869       -9.167       25.118       19.512       15.530      630.925      380.719      241.168        0.534        0.063       96.665       11.481        0.014      338.123       10.562      859.819
06/15/2013  06:18:00      -69.956      -57.179       -2.569       32.698       21.105       14.624     1069.175      445.414      213.868        0.495        0.086       90.350        9.401        0.011      338.157       10.618      859.824
06/15/2013  06:19:00      -74.698      -53.141        0.269       20.526       28.312       18.262      421.305      801.589      333.512        0.498        0.078       91.672       12.870        0.020      338.179       10.653      859.837
06/15/2013  06:20:00      -60.304      -65.266       -1.057       30.036       22.099       17.438      902.163      488.345      304.101        0.480        0.085       88.861       13.587        0.023      338.168       10.635      859.845
06/15/2013  06:21:00      -58.882      -43.626        6.247       28.321       25.728       14.255      802.072      661.956      203.200        0.354        0.083       73.283       15.843        0.047      338.152       10.608      859.869
06/15/2013  06:22:00      -38.648      -40.713        8.436       29.240       22.119       17.389      854.973      489.239      302.365        0.243        0.082       56.136       14.394        0.066      338.231       10.741      859.881
06/15/2013  06:23:00      -61.249      -67.010       -2.163       14.997       17.298       11.888      224.919      299.212      141.333        0.446        0.033       90.785        7.647        0.007      338.265       10.799      859.902
06/15/2013  06:24:00      -32.742      -57.180        5.635       23.767       27.549       13.823      564.853      758.958      191.089        0.294        0.076       65.891       16.902        0.066      338.317       10.888      859.905
06/15/2013  06:25:00      -49.714      -55.037       -1.522       36.506       24.673       19.243     1332.721      608.733      370.298        0.391        0.116       74.166       18.571        0.063      338.319       10.890      859.914
06/15/2013  06:26:00      -78.991      -83.977       -9.108       25.275       29.614       15.267      638.810      877.016      233.094        0.756        0.087      115.290       10.253        0.008      338.283       10.830      859.923
06/15/2013  06:27:00      -80.841      -71.789        3.058       34.936       25.443       19.522     1220.529      647.366      381.098        0.697        0.112      108.115       18.031        0.028      338.302       10.860      859.927
06/15/2013  06:28:00     -110.329      -80.945       -4.703       29.087       26.378       19.526      846.060      695.773      381.256        1.033        0.096      136.838       20.292        0.022      338.305       10.866      859.930
06/15/2013  06:29:00      -85.575      -78.392        0.059       35.077       27.762       21.714     1230.372      770.702      471.497        0.797        0.124      116.053       23.031        0.039      338.318       10.886      859.933
06/15/2013  06:30:00      -84.160      -80.157       -6.143       18.419       17.133       12.643      339.270      293.553      159.855        0.717        0.040      116.224        7.460        0.004      338.331       10.910      859.948
06/15/2013  06:31:00      -51.668      -61.922        2.105       30.441       24.285       18.239      926.685      589.769      332.654        0.418        0.092       80.647       19.015        0.056      338.372       10.980      859.959
06/15/2013  06:32:00      -55.106      -44.955        1.350       20.179       13.329        9.858      407.174      177.651       97.179        0.287        0.034       71.116        8.495        0.014      338.459       11.125      859.959
06/15/2013  06:33:00      -57.135      -56.097        1.775       23.579       17.487       18.179      555.957      305.779      330.470        0.380        0.060       80.071       15.884        0.039      338.471       11.144      859.968
06/15/2013  06:34:00      -68.282      -49.920       -3.020       19.316       25.851       13.303      373.119      668.300      176.970        0.419        0.061       84.584       12.276        0.021      338.502       11.197      859.960
06/15/2013  06:35:00      -61.343      -41.359       -2.557       26.538       19.366       14.583      704.239      375.060      212.676        0.339        0.065       73.983       12.952        0.031      338.516       11.220      859.956
06/15/2013  06:36:00      -48.809      -49.820       -5.105       17.929       16.767       12.989      321.455      281.138      168.711        0.283        0.039       69.745       11.744        0.028      338.558       11.291      859.958
06/15/2013  06:37:00      -56.573      -57.349      -13.796       26.819       25.962       11.550      719.281      674.014      133.397        0.410        0.076       80.557       10.842        0.018      338.581       11.330      859.949
06/15/2013  06:38:00      -65.117      -47.018       -4.539       35.913       18.629       16.360     1289.731      347.057      267.653        0.419        0.095       80.317       19.992        0.062      338.653       11.451      859.949
06/15/2013  06:39:00      -44.660      -34.589        4.284       35.273       16.920       23.008     1244.152      286.271      529.349        0.263        0.103       56.488       26.718        0.224      338.669       11.478      859.948
06/15/2013  06:40:00      -50.546      -51.524       -4.648       14.832       10.359       10.023      219.976      107.310      100.457        0.283        0.021       72.177        7.216        0.010      338.613       11.383      859.946
06/15/2013  06:41:00      -53.028      -12.428       -1.931       14.709       12.885       12.076      216.345      166.021      145.829        0.175        0.026       54.464        8.708        0.026      338.664       11.468      859.954
06/15/2013  06:42:00      -18.915      -14.717        3.627        8.989        7.360        5.945       80.799       54.165       35.344        0.038        0.009       23.966        3.373        0.020      338.770       11.645      859.959
06/15/2013  06:43:00      -13.231        0.084        3.057        8.306       10.503        9.710       68.984      110.312       94.281        0.023        0.014       13.232        3.394        0.066      338.983       12.006      859.952
06/15/2013  06:44:00      -38.105       -0.739        1.151       14.765        8.753        7.618      217.997       76.615       58.037        0.090        0.018       38.112        5.305        0.019      338.802       11.701      859.950
06/15/2013  06:45:00      -69.778      -30.363       -5.727        8.066       11.853        7.630       65.054      140.498       58.213        0.304        0.013       76.098        3.801        0.002      338.822       11.735      859.940
06/15/2013  06:46:00      -39.945      -28.318        0.950       22.987       17.605       11.852      528.425      309.933      140.459        0.169        0.049       48.964       10.265        0.044      338.895       11.858      859.941
06/15/2013  06:47:00      -50.990      -21.042        0.523       16.484       15.838       12.758      271.714      250.832      162.773        0.186        0.034       55.161        9.541        0.030      338.882       11.835      859.940
06/15/2013  06:48:00      -20.506      -12.445        8.396       12.894       14.223       11.697      166.257      202.285      136.825        0.058        0.025       23.987       10.330        0.185      339.196       12.364      859.951
06/15/2013  06:49:00      -18.598      -19.024        6.846       15.247       15.405       14.250      232.485      237.310      203.058        0.071        0.034       26.604       14.382        0.292      339.357       12.636      859.957
06/15/2013  06:50:00      -13.547      -12.571        7.575       13.593       11.851       13.434      184.770      140.457      180.461        0.045        0.025       18.481       10.851        0.345      339.277       12.501      859.962
06/15/2013  06:51:00      -23.604      -17.865        1.601        9.704       12.258        8.476       94.174      150.264       71.836        0.060        0.016       29.603        4.151        0.020      339.067       12.145      859.964
06/15/2013  06:52:00      -22.688      -19.542       -2.408       17.701       14.846       12.261      313.314      220.410      150.326        0.079        0.034       29.943       14.677        0.240      339.179       12.335      859.971
06/15/2013  06:53:00      -30.694      -38.267        0.955       17.004       21.713       11.737      289.142      471.448      137.758        0.165        0.045       49.056       10.748        0.048      339.023       12.072      859.964
06/15/2013  06:54:00      -27.690      -24.997        5.061       17.227       24.591       13.474      296.759      604.723      181.552        0.125        0.054       37.304       12.134        0.106      339.213       12.393      859.956
06/15/2013  06:55:00      -22.060      -14.701        7.567       25.518       20.582       17.225      651.184      423.613      296.708        0.107        0.069       26.510       17.122        0.417      339.265       12.479      859.933
06/15/2013  06:56:00      -39.047      -40.495       -1.004       12.507       16.964        7.928      156.421      287.774       62.854        0.184        0.025       56.253        5.422        0.009      339.015       12.060      859.935
06/15/2013  06:57:00      -28.981      -33.606        2.707       15.306       14.271       10.392      234.265      203.671      107.987        0.126        0.027       44.376       10.730        0.058      339.144       12.276      859.927
06/15/2013  06:58:00      -25.753      -30.836        7.161       19.127       13.567       11.516      365.829      184.058      132.619        0.117        0.034       40.176        9.063        0.051      339.277       12.502      859.924
06/15/2013  06:59:00      -18.186       -4.973        8.189       10.974       12.339        9.592      120.428      152.242       92.001        0.039        0.018       18.854        5.704        0.092      339.521       12.912      859.926
06/15/2013  07:00:00      -14.424        0.805       11.137       10.611        7.481       14.071      112.599       55.960      197.982        0.035        0.018       14.447        9.921        0.472      339.874       13.506      859.926
06/15/2013  07:01:00       -9.672       -0.814       10.532       13.053       11.211       12.204      170.388      125.682      148.946        0.032        0.022        9.706        8.923        0.845      339.733       13.268      859.923
06/15/2013  07:02:00      -27.317       -9.771        0.836       14.328        8.214        7.359      205.286       67.475       54.161        0.058        0.016       29.012        5.441        0.035      339.366       12.649      859.927
06/15/2013  07:03:00      -23.570       -8.102        1.428       12.101       15.367        8.364      146.429      236.139       69.958        0.054        0.023       24.924        5.539        0.049      339.406       12.719      859.927
06/15/2013  07:04:00      -18.622       -0.059        9.933       16.486       17.882       15.444      271.804      319.767      238.507        0.064        0.042       18.622        9.059        0.237      339.788       13.361      859.928
06/15/2013  07:05:00      -37.853      -30.086        3.726       20.652       17.832       13.095      426.522      317.965      171.485        0.163        0.046       48.353       11.025        0.052      339.325       12.581      859.927
06/15/2013  07:06:00      -56.677      -49.418       -0.723       12.734       19.003       12.963      162.148      361.110      168.052        0.317        0.035       75.195        7.635        0.010      339.265       12.478      859.924
06/15/2013  07:07:00      -40.429      -24.380       -0.193       15.558       12.056        9.312      242.053      145.358       86.710        0.135        0.024       47.211        8.303        0.031      339.351       12.625      859.922
06/15/2013  07:08:00      -16.137       -3.655        5.887       10.654       15.173       12.904      113.509      230.206      166.518        0.041        0.026       16.546        9.502        0.330      339.622       13.081      859.917
06/15/2013  07:09:00      -19.027        2.654        5.706       12.543        8.460       12.932      157.334       71.567      167.249        0.040        0.020       19.212        5.271        0.075      339.821       13.418      859.924
06/15/2013  07:10:00      -31.300      -28.250        0.511       13.450        9.509        8.099      180.912       90.417       65.600        0.106        0.017       42.163        2.479        0.003      339.406       12.719      859.929
06/15/2013  07:11:00      -24.196       -7.775       -2.369        5.858       10.186        4.679       34.319      103.759       21.893        0.041        0.008       25.415        4.308        0.029      339.401       12.709      859.934
06/15/2013  07:12:00      -10.724        2.992       14.988       11.655        8.753       13.251      135.850       76.618      175.590        0.037        0.019       11.133        6.217        0.312      340.111       13.907      859.937
06/15/2013  07:13:00      -10.681        2.372       22.140       10.673        7.790       11.474      113.905       60.679      131.661        0.046        0.015       10.941        6.630        0.367      340.409       14.412      859.935
06/15/2013  07:14:00      -28.093        5.116        0.021        9.008        7.662        7.304       81.147       58.704       53.353        0.050        0.010       28.555        3.357        0.014      339.544       12.950      859.941
06/15/2013  07:15:00      -11.091       -1.736       -5.182        5.449        4.805        3.750       29.694       23.088       14.064        0.011        0.003       11.226        1.580        0.020      339.665       13.152      859.943
06/15/2013  07:16:00      -15.343        1.440        3.703       12.623       10.012       11.473      159.340      100.241      131.625        0.032        0.020       15.410        5.997        0.151      340.065       13.829      859.944
06/15/2013  07:17:00      -26.831        2.493        3.048        8.465        8.931        6.751       71.650       79.755       45.579        0.047        0.010       26.947        4.827        0.032      339.636       13.105      859.944
06/15/2013  07:18:00      -22.027        7.922       -0.683        8.924        8.699        8.544       79.635       75.677       73.007        0.039        0.011       23.409        4.050        0.030      339.763       13.320      859.944
06/15/2013  07:19:00      -10.080       12.505       25.308       12.073       12.602       14.487      145.748      158.809      209.865        0.071        0.026       16.062        9.673        0.363      340.394       14.386      859.948
06/15/2013  07:20:00        6.936       26.554       23.110       13.427       11.042       14.055      180.297      121.934      197.547        0.089        0.025       27.445       10.484        0.146      339.953       13.639      859.952
06/15/2013  07:21:00       23.117       12.110       14.134       16.977       15.804       23.058      288.222      249.758      531.651        0.098        0.053       26.097       15.048        0.332      339.878       13.513      859.958
06/15/2013  07:22:00       15.626       10.090       22.605       17.147       13.867       22.013      294.022      192.280      484.567        0.091        0.049       18.600       12.203        0.430      340.249       14.139      859.958
06/15/2013  07:23:00       18.168        4.086        5.063       12.852       12.755       19.755      165.175      162.685      390.249        0.055        0.036       18.622        7.066        0.144      340.012       13.739      859.956
06/15/2013  07:24:00       -7.393        8.427       35.193       10.155       15.297       14.841      103.117      234.005      220.258        0.096        0.028       11.210        7.383        0.434      340.943       15.314      859.958
06/15/2013  07:25:00       19.605       23.368       19.790       28.564       28.598       32.063      815.905      817.847     1028.016        0.199        0.133       30.503       21.365        0.491      340.222       14.094      859.965
06/15/2013  07:26:00       26.146       16.923       23.960       22.914       20.312       20.913      525.052      412.580      437.345        0.146        0.069       31.144       15.588        0.250      340.115       13.914      859.966
06/15/2013  07:27:00       12.489       17.627       28.366       21.755       23.261       20.797      473.292      541.053      432.536        0.136        0.072       21.603       14.685        0.462      340.498       14.561      859.972
06/15/2013  07:28:00      -11.785       19.877       46.151       11.561       18.107       13.164      133.668      327.881      173.289        0.165        0.032       23.108        6.122        0.070      340.884       15.213      859.965
06/15/2013  07:29:00       -2.629       -0.757       35.982       11.096       21.132       13.041      123.113      446.566      170.060        0.102        0.037        2.736        8.365        9.350      341.017       15.439      859.968
06/15/2013  07:30:00      -10.597        6.606       37.872       12.853       16.827       12.940      165.187      283.152      167.456        0.110        0.031       12.488        7.888        0.399      341.184       15.721      859.970
06/15/2013  07:31:00       -5.117       19.664       48.771       10.070       21.090        9.267      101.410      444.772       85.874        0.171        0.032       20.319        7.138        0.123      340.673       14.856      859.974
06/15/2013  07:32:00        0.340       16.778       43.663       14.072       27.799       11.914      198.021      772.810      141.945        0.165        0.056       16.781       13.111        0.610      340.884       15.213      859.983
06/15/2013  07:33:00        7.546        8.397       21.900       29.133       10.874       14.904      848.740      118.251      222.141        0.090        0.059       11.289        4.202        0.139      340.730       14.953      859.985
06/15/2013  07:34:00        5.044        7.598       10.460       10.688       12.389       20.318      114.227      153.483      412.807        0.044        0.034        9.120        8.619        0.893      340.607       14.744      859.960
06/15/2013  07:35:00        4.617       32.669       52.412       21.760       27.446       17.073      473.505      753.282      291.494        0.268        0.076       32.993       10.523        0.102      340.722       14.940      859.987
06/15/2013  07:36:00       36.450       50.036       47.700       21.981       16.052       11.535      483.180      257.679      133.062        0.349        0.044       61.904        7.235        0.014      340.219       14.087      859.984
06/15/2013  07:37:00       30.252       39.004       15.461       16.538       15.446       18.619      273.502      238.591      346.658        0.177        0.043       49.361       13.959        0.080      340.063       13.826      859.979
06/15/2013  07:38:00      -11.699        6.553       19.447       18.503        9.420        8.293      342.358       88.735       68.768        0.053        0.025       13.410        8.667        0.418      340.644       14.807      859.981
06/15/2013  07:39:00      -33.369        0.132        8.558       17.910       13.097       15.825      320.774      171.537      250.436        0.096        0.037       33.370       14.078        0.178      340.455       14.488      859.976
06/15/2013  07:40:00      -33.048        6.158       -3.528        9.423       12.832        9.961       88.791      164.669       99.220        0.075        0.018       33.616        7.772        0.053      340.231       14.107      859.975
06/15/2013  07:41:00      -24.527        8.291        2.860        9.674        9.069        8.976       93.592       82.246       80.563        0.047        0.013       25.890        7.206        0.077      340.290       14.207      859.973
06/15/2013  07:42:00      -51.508      -23.188        1.136       26.996       24.104       17.951      728.800      581.013      322.254        0.241        0.082       56.487       11.963        0.045      340.288       14.206      859.964
06/15/2013  07:43:00      -57.058      -36.356       -6.587       13.261       11.204       11.711      175.859      125.524      137.140        0.253        0.022       67.657        7.130        0.011      340.187       14.034      859.973
06/15/2013  07:44:00      -50.734      -28.932       -4.319       12.818        8.838       14.411      164.299       78.108      207.670        0.194        0.023       58.404        9.911        0.029      340.237       14.118      859.965
06/15/2013  07:45:00      -47.600      -22.057       -5.684       10.246       15.246        8.829      104.988      232.426       77.956        0.160        0.021       52.462        7.357        0.020      340.260       14.157      859.961
06/15/2013  07:46:00      -53.251      -25.924       -6.082       18.940       12.326        9.760      358.706      151.936       95.259        0.208        0.030       59.226        6.268        0.011      340.232       14.109      859.957
06/15/2013  07:47:00      -38.289       -2.500       -7.131       12.160        6.161        6.928      147.872       37.953       47.998        0.088        0.012       38.371        2.710        0.005      340.270       14.173      859.958
06/15/2013  07:48:00      -22.337       13.171       12.359       17.827       12.403       17.505      317.817      153.844      306.442        0.080        0.039       25.931       13.493        0.271      341.012       15.431      859.946
06/15/2013  07:49:00      -28.692        4.904       -4.435       17.466       24.886        7.315      305.064      619.327       53.510        0.092        0.049       29.108        5.553        0.036      340.390       14.377      859.942
06/15/2013  07:50:00      -47.776      -27.826        3.000       21.290       18.598       11.764      453.264      345.888      138.399        0.200        0.047       55.289       10.182        0.034      340.347       14.305      859.942
06/15/2013  07:51:00      -65.384      -42.862       -7.367       29.689       18.270       12.910      881.443      333.784      166.670        0.377        0.069       78.180       12.203        0.024      340.397       14.390      859.942
06/15/2013  07:52:00      -30.600        9.190        0.337       14.361       23.607       12.499      206.244      557.273      156.225        0.097        0.046       31.950        9.194        0.083      340.531       14.614      859.938
06/15/2013  07:53:00      -19.841       10.907        2.036       11.995       10.579       16.843      143.870      111.913      283.675        0.053        0.027       22.641        8.682        0.147      340.843       15.143      859.935
06/15/2013  07:54:00      -31.669       12.480        2.229       15.241       16.595       11.927      232.302      275.384      142.244        0.091        0.032       34.040        5.217        0.023      340.732       14.955      859.943
06/15/2013  07:55:00      -40.144       16.520       -0.576       10.311       14.885       11.776      106.307      221.560      138.684        0.118        0.023       43.410        9.208        0.045      340.541       14.632      859.947
06/15/2013  07:56:00      -28.229      -20.077        3.337       15.687       26.532       15.211      246.098      703.927      231.383        0.120        0.059       34.640        8.809        0.065      340.584       14.706      859.945
06/15/2013  07:57:00      -52.071      -49.891       -0.369       25.244       25.866       15.428      637.266      669.044      238.030        0.337        0.077       72.115       13.944        0.037      340.627       14.778      859.944
06/15/2013  07:58:00      -33.490      -38.634        4.306       20.533       26.391       15.436      421.624      696.460      238.283        0.199        0.068       51.128       12.307        0.058      340.653       14.822      859.937
06/15/2013  07:59:00      -71.510      -42.387       -2.052       20.820       23.364       12.337      433.478      545.873      152.203        0.402        0.057       83.129       12.040        0.021      340.587       14.712      859.939
06/15/2013  08:00:00      -36.073      -60.796       -6.345       24.193       16.605       13.069      585.320      275.719      170.807        0.303        0.052       70.692       11.288        0.025      340.646       14.811      859.935
06/15/2013  08:01:00      -57.351      -25.868        0.870       12.959       12.012       10.802      167.934      144.282      116.688        0.219        0.021       62.915        5.650        0.008      340.682       14.870      859.935
06/15/2013  08:02:00      -46.829       12.672       11.114       17.666       21.375       12.534      312.090      456.899      157.104        0.170        0.046       48.513       11.194        0.053      340.817       15.100      859.924
06/15/2013  08:03:00      -21.529       27.711       25.832       21.473       18.125       18.672      461.076      328.526      348.644        0.152        0.057       35.092       14.936        0.181      341.280       15.884      859.924
06/15/2013  08:04:00      -30.807        7.725       14.577       16.034       17.516       14.208      257.099      306.827      201.869        0.099        0.038       31.760        9.023        0.081      341.067       15.523      859.923
06/15/2013  08:05:00      -38.348      -54.345        0.863       12.436       34.817       14.429      154.656     1212.219      208.207        0.300        0.079       66.513       11.621        0.031      340.807       15.084      859.930
06/15/2013  08:06:00      -67.477      -15.986        2.471       21.570       34.821       14.399      465.273     1212.532      207.334        0.335        0.094       69.345       10.492        0.023      340.814       15.094      859.930
06/15/2013  08:07:00      -70.334       29.267       10.434       17.342       23.197       15.034      300.742      538.110      226.014        0.349        0.053       76.180       13.213        0.030      340.794       15.062      859.933
06/15/2013  08:08:00      -40.734        1.031        1.817       26.176       14.545       14.085      685.184      211.566      198.379        0.138        0.055       40.747       12.892        0.100      341.076       15.538      859.934
06/15/2013  08:09:00      -27.002        2.185       18.251       17.360       20.300       25.285      301.367      412.084      639.316        0.121        0.068       27.090       19.988        0.544      341.454       16.178      859.935
06/15/2013  08:10:00       -8.970       21.729       59.248       11.794       25.351       15.835      139.090      642.694      250.753        0.255        0.052       23.508       15.532        0.437      342.079       17.238      859.940
06/15/2013  08:11:00        9.916       12.713       42.864       21.568       24.271       19.530      465.174      589.103      381.433        0.177        0.072       16.122       13.396        0.690      341.860       16.867      859.938
06/15/2013  08:12:00        8.261       49.212       72.467       32.556       39.881       19.324     1059.917     1590.479      373.433        0.538        0.151       49.901       23.595        0.224      341.568       16.371      859.945
06/15/2013  08:13:00       45.084       24.237       49.002       41.990       25.303       24.556     1763.128      640.260      602.976        0.401        0.150       51.186       22.441        0.192      341.355       16.009      859.952
06/15/2013  08:14:00       78.264       48.700       18.380       26.303       16.855       24.061      691.822      284.107      578.927        0.519        0.078       92.179       15.316        0.028      340.960       15.341      859.943
06/15/2013  08:15:00       75.202       48.030        7.785       28.432       20.765       33.290      808.368      431.166     1108.247        0.518        0.117       89.232       18.154        0.041      341.073       15.534      859.940
06/15/2013  08:16:00       64.516       31.783       19.291       15.488       15.338       26.821      239.889      235.250      719.389        0.337        0.060       71.920       10.706        0.022      341.112       15.600      859.935
06/15/2013  08:17:00       36.204       45.347       19.728       24.042       27.747       27.425      578.018      769.907      752.143        0.293        0.105       58.027       16.706        0.083      341.353       16.008      859.936
06/15/2013  08:18:00       29.709       -0.448        7.477       39.728       21.471       19.448     1578.322      460.996      378.218        0.168        0.121       29.712       14.700        0.245      341.324       15.957      859.945
06/15/2013  08:19:00       -0.799       24.417       -8.027       16.203       17.487       23.786      262.550      305.799      565.795        0.090        0.057       24.430       16.708        0.468      341.531       16.309      859.942
06/15/2013  08:20:00       25.132       44.043        3.172       24.283       15.067       22.241      589.649      227.017      494.674        0.195        0.066       50.709       10.946        0.047      341.475       16.213      859.935
06/15/2013  08:21:00       -2.447       16.180       26.147       29.792       16.773       23.111      887.566      281.329      534.127        0.133        0.085       16.364       21.492        1.725      342.066       17.217      859.932
06/15/2013  08:22:00       22.272       19.371       18.407       21.737       15.394       19.556      472.476      236.961      382.429        0.115        0.055       29.518       11.024        0.139      341.847       16.844      859.922
06/15/2013  08:23:00       -8.081       23.315       33.071       16.471       21.522       17.518      271.305      463.209      306.883        0.137        0.052       24.675        9.752        0.156      342.629       18.175      859.918
06/15/2013  08:24:00      -41.411       39.874       -7.843       34.561       24.290       20.708     1194.440      590.005      428.817        0.279        0.111       57.487       14.468        0.063      341.433       16.144      859.910
06/15/2013  08:25:00      -43.803       10.648        0.709       22.655       17.644       18.038      513.241      311.297      325.381        0.159        0.057       45.078       10.328        0.052      341.305       15.926      859.911
06/15/2013  08:26:00      -50.658      -10.964       -5.296       18.422       22.210       12.077      339.358      493.293      145.858        0.185        0.049       51.831        5.268        0.010      341.235       15.807      859.919
06/15/2013  08:27:00      -71.680      -20.055       -5.817       25.378       38.665       15.655      644.025     1494.974      245.090        0.398        0.119       74.432       12.205        0.027      341.278       15.881      859.920
06/15/2013  08:28:00      -87.914      -59.131      -11.371       21.329       22.609       16.765      454.922      511.179      281.078        0.630        0.062      105.949       16.224        0.023      341.263       15.855      859.926
06/15/2013  08:29:00      -27.698      -59.038       -3.907       34.930       24.493       16.256     1220.104      599.914      264.265        0.318        0.104       65.212       11.529        0.031      341.370       16.036      859.926
06/15/2013  08:30:00      -19.947      -36.664       -6.205       23.181       23.104       20.105      537.350      533.780      404.199        0.163        0.074       41.739       17.694        0.180      341.487       16.234      859.926
06/15/2013  08:31:00      -47.399      -63.456       -8.985       20.537       24.679       16.617      421.754      609.076      276.114        0.383        0.065       79.204       12.324        0.024      341.336       15.978      859.930
06/15/2013  08:32:00      -58.798      -45.195       -7.690       13.613       24.609        8.213      185.311      605.584       67.453        0.321        0.043       74.161        8.565        0.013      341.321       15.952      859.928
06/15/2013  08:33:00      -33.371      -13.851       -0.610       22.938       15.386       10.138      526.142      236.730      102.775        0.109        0.043       36.131        5.108        0.020      341.507       16.268      859.923
06/15/2013  08:34:00      -44.129        7.785        5.811       30.378       14.563       16.748      922.815      212.078      280.510        0.173        0.071       44.811       16.195        0.131      341.881       16.903      859.920
06/15/2013  08:35:00      -67.714      -35.254       -0.455       24.433       32.622       14.983      596.983     1064.169      224.505        0.386        0.094       76.342       16.930        0.049      341.579       16.391      859.924
06/15/2013  08:36:00     -100.376      -13.759      -14.313       14.707       15.103       13.746      216.304      228.106      188.944        0.555        0.032      101.314        9.108        0.008      341.390       16.068      859.920
06/15/2013  08:37:00      -61.626      -38.506       -3.745       22.288       20.839       18.476      496.754      434.268      341.368        0.328        0.064       72.667       10.533        0.021      341.520       16.289      859.922
06/15/2013  08:38:00      -60.493      -42.953        2.273       25.516       18.649       16.537      651.041      347.776      273.480        0.339        0.064       74.191       14.184        0.037      341.641       16.495      859.922
06/15/2013  08:39:00      -44.930       -1.319       -1.400       17.409       21.947       12.723      303.079      481.689      161.867        0.148        0.047       44.949       10.689        0.057      341.669       16.542      859.925
06/15/2013  08:40:00      -35.593       21.361       -6.351       14.852       13.636       13.934      220.588      185.941      194.154        0.118        0.030       41.512        9.862        0.056      341.740       16.664      859.924
06/15/2013  08:41:00      -29.538      -13.824        7.755       23.105       22.781       21.459      533.830      518.971      460.485        0.132        0.076       32.613       17.132        0.276      341.937       16.997      859.924
06/15/2013  08:42:00      -38.599      -11.496        9.123       28.139       19.146       16.255      791.829      366.564      264.230        0.156        0.071       40.275       11.492        0.081      342.010       17.122      859.923
06/15/2013  08:43:00      -30.643      -22.759        9.813       18.708       22.845       15.664      350.000      521.886      245.373        0.134        0.056       38.170       10.524        0.076      342.009       17.121      859.921
06/15/2013  08:44:00      -59.189       -5.922        1.050       19.360       37.384       16.054      374.806     1397.596      257.742        0.278        0.102       59.484       19.901        0.112      341.738       16.660      859.920
06/15/2013  08:45:00      -18.582      -11.461       -3.949       16.884       28.580       10.094      285.056      816.823      101.879        0.085        0.060       21.832       11.873        0.296      341.826       16.808      859.921
06/15/2013  08:46:00      -61.703      -43.898       -6.186       21.596       19.482       12.081      466.379      379.552      145.953        0.338        0.050       75.725        8.150        0.012      341.736       16.656      859.916
06/15/2013  08:47:00      -51.088      -32.955       -1.933       19.041       24.057       17.328      362.571      578.741      300.258        0.247        0.062       60.795        9.649        0.025      341.857       16.860      859.923
06/15/2013  08:48:00      -12.655       -7.074       23.219       19.709       35.273       28.744      388.462     1244.210      826.221        0.160        0.123       14.498       26.012        3.219      342.636       18.184      859.923
06/15/2013  08:49:00        7.741       17.253       21.349       16.892       20.269       19.986      285.354      410.816      399.421        0.095        0.055       18.910       14.967        0.626      342.404       17.791      859.919
06/15/2013  08:50:00       19.419       30.811       31.485       26.974       17.280       19.673      727.579      298.592      387.020        0.187        0.071       36.420       14.014        0.148      342.278       17.576      859.918
06/15/2013  08:51:00       24.486       27.803       47.345       44.133       28.732       21.946     1947.727      825.544      481.614        0.343        0.163       37.048       15.609        0.178      342.625       18.166      859.918
06/15/2013  08:52:00       59.241       40.107       31.392       63.739       36.657       35.027     4062.718     1343.769     1226.899        0.637        0.332       71.541       20.620        0.083      342.556       18.049      859.907
06/15/2013  08:53:00       65.447       62.783       63.549       50.338       43.396       28.755     2533.884     1883.209      826.834        0.875        0.262       90.692       21.984        0.059      342.463       17.890      859.911
06/15/2013  08:54:00       84.439       29.831       -0.055       29.485       31.593       22.095      869.394      998.092      488.198        0.519        0.118       89.554       17.210        0.037      342.016       17.131      859.925
06/15/2013  08:55:00       63.755       37.040       20.351       50.315       33.598       26.222     2531.623     1128.835      687.577        0.510        0.217       73.733       21.659        0.086      342.446       17.862      859.929
06/15/2013  08:56:00       85.064       64.574       10.033       29.182       26.550       24.766      851.581      704.887      613.347        0.684        0.108      106.797       17.581        0.027      342.235       17.503      859.939
06/15/2013  08:57:00      107.122       85.968       19.946       53.866       28.871       33.435     2901.562      833.547     1117.910        1.206        0.243      137.352       23.467        0.029      342.228       17.490      859.940
06/15/2013  08:58:00      133.192       92.387        5.369       51.470       30.424       36.767     2649.118      925.633     1351.790        1.561        0.246      162.097       18.320        0.013      341.994       17.094      859.952
06/15/2013  08:59:00       62.009       50.908       24.190       52.816       37.498       33.048     2789.531     1406.135     1092.162        0.615        0.264       80.229       23.491        0.086      342.601       18.125      859.963
06/15/2013  09:00:00      101.435       66.125       16.008       51.059       31.056       27.883     2607.004      964.473      777.486        0.963        0.217      121.085        7.218        0.004      342.566       18.066      859.965
06/15/2013  09:01:00       26.568       35.591       55.288       34.810       37.582       19.691     1211.752     1412.414      387.749        0.402        0.151       44.413       15.723        0.125      342.973       18.759      859.964
06/15/2013  09:02:00       24.979       37.128       52.778       29.526       34.668       23.958      871.803     1201.853      574.004        0.372        0.132       44.749       10.051        0.050      342.671       18.244      859.968
06/15/2013  09:03:00       66.083       43.497        0.778       23.989       35.354       33.797      575.463     1249.881     1142.246        0.461        0.148       79.113       20.775        0.069      342.254       17.534      859.977
06/15/2013  09:04:00       -7.153       11.659       -5.907       28.374       17.605       21.933      805.086      309.953      481.035        0.091        0.080       13.678       17.026        1.549      342.509       17.968      859.979
06/15/2013  09:05:00       -0.197        0.513       21.452       12.411       14.166        9.965      154.028      200.673       99.307        0.046        0.023        0.550        3.212       34.110      343.488       19.636      859.989
06/15/2013  09:06:00       42.444       30.518       23.891       46.177       27.121       31.187     2132.294      735.524      972.627        0.357        0.192       52.277        6.665        0.016      343.029       18.855      859.981
06/15/2013  09:07:00       85.971       57.692       10.589       34.141       22.682       31.999     1165.631      514.464     1023.941        0.677        0.135      103.534       16.872        0.027      342.127       17.320      859.988
06/15/2013  09:08:00       12.437       27.417       24.776       28.770       31.647       31.064      827.741     1001.528      964.956        0.216        0.140       30.106       30.063        0.997      343.246       19.224      859.985
06/15/2013  09:09:00       61.374       72.849       32.298       40.706       43.407       38.118     1657.018     1884.176     1452.964        0.755        0.250       95.256       31.488        0.109      342.193       17.433      859.989
06/15/2013  09:10:00       21.432      -59.938       12.040       43.230       48.413       25.892     1868.861     2343.805      670.408        0.454        0.244       63.655       17.702        0.077      341.843       16.838      859.985
06/15/2013  09:11:00       17.989      -23.384       23.501       19.786       37.890       24.875      391.479     1435.642      618.778        0.193        0.122       29.503       11.958        0.164      342.293       17.602      859.985
06/15/2013  09:12:00      -15.469        2.640        3.275       17.731       15.802       20.675      314.404      249.713      427.467        0.062        0.050       15.692        7.396        0.222      342.748       18.376      859.983
06/15/2013  09:13:00       17.655      -50.024        8.075       42.835       32.824       26.244     1834.854     1077.432      688.762        0.324        0.180       53.048       19.508        0.135      342.215       17.468      859.970
06/15/2013  09:14:00       46.422       25.668       36.061       44.657       32.298       23.484     1994.233     1043.174      551.496        0.385        0.179       53.045       23.381        0.194      342.689       18.275      859.969
06/15/2013  09:15:00       68.777       34.093        8.039       32.235       23.463       24.559     1039.106      550.491      603.166        0.407        0.110       76.763       10.073        0.017      342.347       17.693      859.960
06/15/2013  09:16:00       12.728      -17.086       14.605       22.241       23.937       20.353      494.649      572.968      414.231        0.107        0.074       21.306       13.905        0.426      342.738       18.360      859.959
06/15/2013  09:17:00       15.266      -34.273       15.106       29.480       23.291       21.512      869.091      542.472      462.775        0.175        0.094       37.519       14.949        0.159      342.329       17.663      859.947
06/15/2013  09:18:00       41.895      -20.307        0.214       30.927       22.546       29.490      956.460      508.313      869.658        0.225        0.117       46.557       19.840        0.182      342.286       17.588      859.948
06/15/2013  09:19:00      -20.996      -20.197      -11.552       17.636       12.598        9.359      311.027      158.700       87.596        0.077        0.028       29.133       10.049        0.119      342.491       17.938      859.942
06/15/2013  09:20:00      -22.570      -20.869       -2.631       14.808       15.779       12.799      219.280      248.973      163.817        0.079        0.032       30.739        7.515        0.060      342.610       18.139      859.936
06/15/2013  09:21:00      -33.062       -1.402        0.960       12.689       15.625       16.130      161.010      244.144      260.183        0.088        0.033       33.092       10.867        0.108      342.566       18.065      859.932
06/15/2013  09:22:00       42.628      -96.435        3.356       44.141       54.192       27.183     1948.447     2936.788      738.892        0.837        0.281      105.436       36.102        0.117      342.822       18.502      859.928
06/15/2013  09:23:00      -20.973      -29.064       16.468       29.844       34.527       33.105      890.674     1192.096     1095.914        0.237        0.159       35.841       23.921        0.445      343.093       18.963      859.921
06/15/2013  09:24:00       -1.432       -9.962       24.005       23.099       24.103       23.299      533.573      580.941      542.847        0.117        0.083       10.065       20.048        3.968      343.765       20.107      859.917
06/15/2013  09:25:00      -17.550        7.525       23.034       18.994       17.959       23.575      360.763      322.521      555.772        0.107        0.062       19.096       14.904        0.609      343.955       20.434      859.921
06/15/2013  09:26:00       -2.778        9.020       24.066       36.262       17.451       23.176     1314.910      304.548      537.115        0.141        0.108        9.438        9.951        1.112      343.443       19.561      859.929
06/15/2013  09:27:00       -2.954      -13.036       16.768       28.845       23.450       27.386      832.041      549.892      750.018        0.130        0.107       13.366       21.347        2.551      343.251       19.235      859.923
06/15/2013  09:28:00        7.147       17.547       19.708       51.788       30.409       33.996     2682.010      924.735     1155.739        0.275        0.238       18.946       14.200        0.562      343.190       19.129      859.918
06/15/2013  09:29:00        7.533       32.045       15.253       27.387       34.155       33.548      750.035     1166.566     1125.499        0.218        0.152       32.918       25.468        0.599      342.885       18.609      859.922
06/15/2013  09:30:00       14.600       19.937       15.510       31.458       23.898       29.139      989.603      571.129      849.076        0.163        0.120       24.711       23.643        0.915      343.254       19.236      859.917
06/15/2013  09:31:00      -42.494       12.052        4.957       18.981       22.040       20.613      360.284      485.773      424.885        0.162        0.064       44.170       12.638        0.082      342.944       18.708      859.916
06/15/2013  09:32:00      -98.024        3.408       -8.263       13.312       28.444       13.685      177.202      809.033      187.267        0.543        0.059       98.084       14.130        0.021      342.641       18.192      859.914
06/15/2013  09:33:00      -70.555       -1.629       -0.058       24.084       29.154       14.251      580.037      849.973      203.091        0.331        0.082       70.573       12.940        0.034      342.729       18.344      859.913
06/15/2013  09:34:00      -53.414       10.613       -4.353       23.677       20.517       17.962      560.586      420.945      322.632        0.214        0.065       54.458       14.236        0.068      342.885       18.608      859.912
06/15/2013  09:35:00      -57.253       24.911        4.659       22.316       17.122       18.637      497.983      293.148      347.356        0.253        0.057       62.438       11.887        0.036      343.083       18.946      859.913
06/15/2013  09:36:00      -59.953       15.951      -10.554       14.806       20.310       15.224      219.212      412.501      231.778        0.241        0.043       62.039        9.319        0.023      342.826       18.506      859.920
06/15/2013  09:37:00       -9.582       -4.234       -9.721       18.747       27.401       22.264      351.443      750.798      495.665        0.090        0.080       10.476       20.166        3.706      343.213       19.167      859.920
06/15/2013  09:38:00      -79.452      -17.295       -9.181       55.719       26.296       21.251     3104.589      691.497      451.588        0.547        0.212       81.312       17.745        0.048      342.977       18.765      859.922
06/15/2013  09:39:00     -100.406        5.006       -9.224       36.269       43.744       21.691     1315.435     1913.546      470.507        0.694        0.185      100.531       20.545        0.042      343.012       18.823      859.916
06/15/2013  09:40:00      -26.983      -14.693       11.986       34.215       23.043       21.926     1170.669      530.958      480.760        0.163        0.109       30.724       20.062        0.426      343.556       19.752      859.914
06/15/2013  09:41:00      -18.778       -9.747       21.292       29.653       16.588       19.542      879.298      275.161      381.886        0.122        0.077       21.157       21.068        0.992      343.594       19.818      859.906
06/15/2013  09:42:00       20.216       -3.940       19.904       16.064       19.383       24.105      258.061      375.684      581.067        0.102        0.061       20.597        7.721        0.141      343.797       20.164      859.899
06/15/2013  09:43:00       -6.826       -5.258       11.854       19.040       11.358       24.511      362.533      128.998      600.813        0.065        0.055        8.617       11.837        1.887      343.907       20.353      859.894
06/15/2013  09:44:00      -48.271      -20.799        8.758       29.310       22.174       19.741      859.063      491.688      389.692        0.229        0.087       52.561       21.977        0.175      343.547       19.738      859.883
06/15/2013  09:45:00      -62.940      -58.638       -4.399       25.521       44.298       22.139      651.339     1962.331      490.123        0.526        0.155       86.023       12.402        0.021      343.084       18.948      859.878
06/15/2013  09:46:00     -104.484      -48.854        2.116       51.637       37.229       26.693     2666.354     1385.982      712.504        0.904        0.238      115.342       25.124        0.047      343.316       19.342      859.870
06/15/2013  09:47:00      -75.860       19.668        5.154       38.752       27.157       22.234     1501.685      737.497      494.358        0.445        0.137       78.368       20.481        0.068      343.396       19.480      859.858
06/15/2013  09:48:00      -25.990      -63.074        2.382       28.922       19.661       16.570      836.494      386.565      274.555        0.308        0.075       68.218       11.457        0.028      343.275       19.272      859.864
06/15/2013  09:49:00      -47.497      -95.922       -4.662       45.117       30.472       22.542     2035.503      928.517      508.139        0.747        0.174      107.037       21.496        0.040      343.129       19.023      859.862
06/15/2013  09:50:00      -13.334      -53.551        6.668       15.470       37.720       20.367      239.331     1422.800      414.809        0.258        0.104       55.186       14.616        0.070      343.259       19.245      859.854
06/15/2013  09:51:00      -18.292      -52.162        2.130       18.838       19.193       19.716      354.876      368.364      388.711        0.209        0.056       55.276       12.627        0.052      343.140       19.042      859.858
06/15/2013  09:52:00      -13.391       -5.040       16.390       20.226       20.452       26.213      409.084      418.278      687.120        0.099        0.076       14.308       15.218        1.131      343.780       20.135      859.844
06/15/2013  09:53:00       18.645       12.763       38.557       27.669       22.094       18.362      765.588      488.131      337.177        0.179        0.080       22.595       14.417        0.407      343.977       20.470      859.842
06/15/2013  09:54:00       17.001       17.836       47.620       34.926       28.876       28.175     1219.792      833.796      793.814        0.286        0.142       24.640       18.112        0.540      343.715       20.024      859.845
06/15/2013  09:55:00        5.739      -14.894       20.121       34.614       70.988       40.519     1198.124     5039.244     1641.783        0.427        0.394       15.962       38.620        5.854      343.344       19.390      859.838
06/15/2013  09:56:00       34.226      -59.068       -2.472       43.861       55.165       40.520     1923.806     3043.141     1641.834        0.564        0.330       68.267       21.806        0.102      343.508       19.669      859.828
06/15/2013  09:57:00      -20.115      -38.679        8.120       49.417       42.500       25.661     2442.078     1806.245      658.500        0.344        0.245       43.596       19.045        0.191      343.599       19.825      859.831
06/15/2013  09:58:00       14.150       -0.044       29.354       21.951       30.347       34.003      481.867      920.956     1156.206        0.181        0.128       14.150       27.619        3.810      344.099       20.680      859.830
06/15/2013  09:59:00       36.505      -22.231       15.803       28.187       39.560       30.370      794.479     1565.027      922.330        0.268        0.164       42.741       30.918        0.523      343.269       19.261      859.824
06/15/2013  10:00:00       45.115       -5.717       16.298       45.128       47.291       30.514     2036.509     2236.459      931.131        0.377        0.260       45.476       24.251        0.284      343.524       19.698      859.827
06/15/2013  10:01:00       80.447       45.272       22.441       36.972       34.310       32.169     1366.956     1177.185     1034.836        0.630        0.179       92.311       16.002        0.030      344.101       20.681      859.816
06/15/2013  10:02:00       62.996       46.374       16.972       67.365       46.690       36.770     4538.100     2179.938     1352.055        0.724        0.404       78.224       15.880        0.041      344.120       20.713      859.814
06/15/2013  10:03:00       95.110       65.473       32.956       36.242       49.112       36.383     1313.490     2412.015     1323.728        0.973        0.252      115.467       14.392        0.016      343.982       20.477      859.813
06/15/2013  10:04:00       60.052       29.266       30.148       45.090       36.023       32.185     2033.150     1297.687     1035.842        0.487        0.218       66.804       15.291        0.052      344.169       20.798      859.804
06/15/2013  10:05:00       77.624       60.727       15.208       26.126       28.240       28.072      682.563      797.488      788.045        0.611        0.113       98.555       18.234        0.034      343.635       19.887      859.807
06/15/2013  10:06:00       32.894       56.757       -3.293       31.703       36.761       28.914     1005.062     1351.335      836.004        0.375        0.160       65.600       26.578        0.164      343.887       20.316      859.811
06/15/2013  10:07:00       55.149       25.296       11.276       25.396       37.966       27.694      644.967     1441.406      766.936        0.333        0.143       60.674       16.355        0.073      343.817       20.196      859.809
06/15/2013  10:08:00       13.407        4.769       19.191       33.236       38.021       26.769     1104.604     1445.574      716.572        0.192        0.163       14.230       28.086        3.896      344.674       21.662      859.812
06/15/2013  10:09:00      -49.749       17.905       -8.109       31.647       17.327       33.414     1001.507      300.234     1116.485        0.264        0.121       52.873       23.837        0.203      343.977       20.470      859.802
06/15/2013  10:10:00      -45.523        8.126      -22.738       10.475       13.289        9.088      109.730      176.594       82.595        0.151        0.018       46.242        3.940        0.007      343.597       19.820      859.806
06/15/2013  10:11:00      -14.006      -12.814       -1.803       26.976       28.810       23.365      727.728      830.000      545.935        0.123        0.105       18.983       15.302        0.650      344.035       20.569      859.801
06/15/2013  10:12:00      -19.817        3.637       11.250       32.511       29.705       18.249     1056.970      882.395      333.031        0.140        0.114       20.148       17.977        0.796      344.237       20.916      859.798
06/15/2013  10:13:00      -61.778       89.707      -13.638       42.708       43.698       30.770     1824.006     1909.548      946.805        0.836        0.234      108.922       33.022        0.092      344.204       20.858      859.801
06/15/2013  10:14:00      -25.375       27.828       11.537       26.274       32.047       30.301      690.336     1027.006      918.144        0.209        0.132       37.660       22.663        0.362      345.001       22.221      859.795
06/15/2013  10:15:00      -28.294       72.303       16.693       35.762       58.467       28.507     1278.900     3418.344      812.654        0.591        0.275       77.641       33.473        0.186      344.768       21.822      859.791
06/15/2013  10:16:00      -28.158       95.758        4.418       23.484       38.014       28.889      551.499     1445.097      834.567        0.641        0.142       99.812       15.007        0.023      344.403       21.198      859.790
06/15/2013  10:17:00      -30.210      111.739       -1.537       19.026       37.035       27.296      361.973     1371.591      745.065        0.794        0.124      115.751       22.993        0.039      344.367       21.137      859.803
06/15/2013  10:18:00      -29.768       29.620       12.841       27.857       39.694       27.623      776.009     1575.634      763.006        0.252        0.156       41.993       11.206        0.071      344.908       22.064      859.811
06/15/2013  10:19:00      -11.756       14.413       16.711       32.041       23.781       22.238     1026.624      565.546      494.528        0.136        0.104       18.599       21.448        1.330      344.714       21.731      859.801
06/15/2013  10:20:00      -55.112       43.817        2.810       30.236       23.870       30.929      914.227      569.763      956.594        0.370        0.122       70.408       25.418        0.130      344.454       21.287      859.793
06/15/2013  10:21:00      -30.685        6.991       14.230       30.518       16.119       17.719      931.376      259.819      313.969        0.135        0.075       31.471       18.783        0.356      344.651       21.623      859.789
06/15/2013  10:22:00       -9.545        1.940       38.968       17.562       19.327        9.439      308.416      373.514       89.090        0.119        0.039        9.741        7.010        0.518      345.442       22.975      859.785
06/15/2013  10:23:00       23.276       11.882       19.694       36.753       22.758       29.471     1350.772      517.930      868.521        0.190        0.137       26.133       14.001        0.287      344.323       21.061      859.788
06/15/2013  10:24:00       26.711      -20.404        0.345       31.167       44.216       29.971      971.411     1955.025      898.236        0.248        0.191       33.613       20.042        0.356      344.022       20.549      859.778
06/15/2013  10:25:00       14.677        6.642       37.843       37.260       40.780       21.813     1388.328     1663.033      475.806        0.261        0.176       16.110       11.250        0.488      344.370       21.142      859.765
06/15/2013  10:26:00       21.894       62.823       83.186       52.060       48.938       43.368     2710.266     2394.920     1880.749        0.916        0.349       66.529       27.675        0.173      344.760       21.808      859.751
06/15/2013  10:27:00       11.628       33.058       72.621       26.858       48.526       29.195      721.369     2354.729      852.372        0.521        0.196       35.043       29.982        0.732      344.220       20.885      859.750
06/15/2013  10:28:00       34.912       23.681       27.066       56.795       61.056       37.415     3225.720     3727.884     1399.853        0.543        0.418       42.185       34.712        0.677      344.187       20.829      859.748
06/15/2013  10:29:00       13.561       16.869       33.075       33.295       45.538       28.414     1108.556     2073.714      807.367        0.278        0.199       21.644       26.468        1.495      344.962       22.155      859.754
06/15/2013  10:30:00       21.816       -0.626       34.753       35.231       52.860       35.549     1241.235     2794.231     1263.741        0.349        0.265       21.825       30.499        1.953      344.436       21.255      859.766
06/15/2013  10:31:00       33.688      -38.195       14.330       30.466       36.207       31.036      928.195     1310.981      963.249        0.300        0.160       50.929       22.996        0.204      344.167       20.793      859.769
06/15/2013  10:32:00       16.745       -5.608       29.144       38.158       41.086       26.603     1456.032     1688.095      707.737        0.251        0.193       17.659       24.604        1.941      344.303       21.027      859.764
06/15/2013  10:33:00       51.604      -33.398       20.576       55.221       61.888       30.028     3049.406     3830.119      901.655        0.599        0.389       61.468       36.898        0.360      344.029       20.559      859.759
06/15/2013  10:34:00       41.824       -2.204       38.050       53.082       43.796       41.545     2817.681     1918.095     1725.974        0.483        0.323       41.882       31.460        0.564      344.340       21.090      859.758
06/15/2013  10:35:00       12.007      -25.124       24.633       33.653       59.133       34.030     1132.537     3496.729     1158.030        0.358        0.289       27.846       35.125        1.591      344.227       20.897      859.758
06/15/2013  10:36:00       51.958       44.968       55.301       58.958       56.208       34.084     3476.059     3159.296     1161.696        0.779        0.390       68.715       31.110        0.205      344.494       21.353      859.753
06/15/2013  10:37:00       54.413      -29.006       22.007       44.106       38.920       37.144     1945.329     1514.802     1379.701        0.456        0.242       61.661       31.086        0.254      344.145       20.758      859.750
06/15/2013  10:38:00       26.960       10.447       31.887       25.810       33.399       26.973      666.158     1115.513      727.545        0.218        0.125       28.913       23.228        0.645      344.537       21.427      859.729
06/15/2013  10:39:00       47.088       10.756       38.152       40.156       54.854       49.350     1612.473     3008.978     2435.433        0.542        0.353       48.300       42.832        0.786      344.010       20.527      859.722
06/15/2013  10:40:00       49.637        9.383       35.143       42.653       40.317       33.999     1819.247     1625.483     1155.930        0.419        0.230       50.516       27.492        0.296      344.523       21.404      859.709
06/15/2013  10:41:00       42.147      -13.712       12.446       47.588       30.894       28.669     2264.656      954.409      821.916        0.308        0.202       44.321       26.334        0.353      344.346       21.100      859.703
06/15/2013  10:42:00       30.049      -88.422       -2.569       41.378       60.137       27.257     1712.125     3616.427      742.959        0.740        0.304       93.389       22.966        0.060      344.208       20.865      859.675
06/15/2013  10:43:00       45.359       -4.540       31.578       47.572       74.057       43.490     2263.062     5484.497     1891.416        0.636        0.482       45.585       29.817        0.428      344.512       21.383      859.662
06/15/2013  10:44:00       27.195       59.750       16.331       49.602       53.545       46.625     2460.361     2867.069     2173.921        0.604        0.375       65.648       23.027        0.123      345.114       22.414      859.656
06/15/2013  10:45:00       85.515       55.265       19.472       58.956       35.406       30.914     3475.797     1253.579      955.695        0.821        0.284      101.819       15.740        0.024      344.800       21.877      859.661
06/15/2013  10:46:00       44.163       23.552       24.995       59.759       52.075       37.897     3571.189     2711.768     1436.162        0.542        0.386       50.051       29.426        0.346      345.101       22.391      859.664
06/15/2013  10:47:00       18.401       25.257       25.652       42.288       44.283       26.919     1788.292     1961.014      724.614        0.305        0.224       31.249       23.902        0.585      345.099       22.389      859.664
06/15/2013  10:48:00       85.498       50.370       36.532       81.519       48.607       46.998     6645.360     2362.636     2208.824        1.120        0.561       99.232       40.042        0.163      344.859       21.976      859.652
06/15/2013  10:49:00       84.913       32.408       24.647       85.692       52.584       44.749     7343.058     2765.084     2002.435        1.049        0.606       90.887       47.036        0.268      345.032       22.273      859.647
06/15/2013  10:50:00       30.346       50.416       70.620       45.869       48.678       28.501     2103.937     2369.530      812.281        0.687        0.264       58.844       25.269        0.184      344.727       21.752      859.647
06/15/2013  10:51:00       11.710       16.969       67.834       39.318       47.534       29.462     1545.922     2259.520      867.990        0.485        0.234       20.617       21.955        1.134      344.997       22.214      859.633
06/15/2013  10:52:00       38.763       15.254       31.181       59.983       31.730       32.183     3597.919     1006.816     1035.755        0.417        0.282       41.656       23.305        0.313      345.201       22.564      859.635
06/15/2013  10:53:00       -0.142       -0.194       53.353       37.999       59.559       23.549     1443.892     3547.254      554.570        0.420        0.277        0.240       23.781     9807.855      345.427       22.951      859.629
06/15/2013  10:54:00       21.439      -35.275       14.939       44.438       64.551       49.116     1974.774     4166.864     2412.429        0.524        0.428       41.279       42.102        1.040      345.035       22.278      859.632
06/15/2013  10:55:00       11.341      -32.009        6.413       42.817       61.156       37.643     1833.273     3740.022     1416.982        0.409        0.350       33.959       37.573        1.224      344.950       22.134      859.642
06/15/2013  10:56:00       23.859       -9.418       23.255       46.951       29.850       41.854     2204.410      891.025     1751.731        0.302        0.242       25.651       31.214        1.481      345.250       22.649      859.640
06/15/2013  10:57:00      -46.348      -45.847       10.550       37.250       35.477       24.494     1387.564     1258.641      599.944        0.380        0.162       65.192       20.697        0.101      344.727       21.750      859.645
06/15/2013  10:58:00       -9.259      -88.714        3.943       36.029       50.293       38.374     1298.062     2529.412     1472.567        0.663        0.265       89.196       33.550        0.141      344.794       21.867      859.642
06/15/2013  10:59:00      -35.392      -57.750      -10.124       25.900       35.665       29.953      670.826     1271.977      897.187        0.376        0.142       67.732       20.088        0.088      344.733       21.762      859.653
06/15/2013  11:00:00       16.570      -23.681       12.408       25.318       27.357       24.800      641.010      748.420      615.015        0.150        0.100       28.903        8.066        0.078      345.020       22.254      859.641
06/15/2013  11:01:00       14.376       -1.269       20.620       36.494       44.156       40.597     1331.837     1949.723     1648.087        0.278        0.246       14.432       28.511        3.903      344.910       22.064      859.644
06/15/2013  11:02:00       29.499      -10.532       12.211       21.681       21.422       22.146      470.052      458.923      490.445        0.127        0.071       31.323       14.331        0.209      344.449       21.277      859.648
06/15/2013  11:03:00      -23.411      -15.078       26.739       20.177       28.026       17.188      407.124      785.450      295.420        0.149        0.074       27.846       18.799        0.456      345.371       22.854      859.633
06/15/2013  11:04:00      -94.107       34.742       -2.386       45.855       32.347       24.412     2102.682     1046.322      595.949        0.691        0.187      100.315       21.488        0.046      344.761       21.810      859.618
06/15/2013  11:05:00      -44.042       31.169      -17.555       24.522       34.218       13.331      601.343     1170.850      177.721        0.258        0.097       53.955       10.748        0.040      344.672       21.656      859.617
06/15/2013  11:06:00      -20.978       -9.553       16.125       24.469       12.198       16.319      598.719      148.793      266.320        0.090        0.051       23.051       14.833        0.414      345.226       22.605      859.602
06/15/2013  11:07:00        9.660       14.364       33.241       24.449       20.009       19.920      597.736      400.369      396.824        0.140        0.070       17.310        9.528        0.303      345.966       23.875      859.597
06/15/2013  11:08:00       -6.263        6.516       14.117       13.622       20.194       23.999      185.567      407.799      575.930        0.072        0.058        9.038       15.445        2.920      346.066       24.049      859.599
06/15/2013  11:09:00       -1.371        7.697       32.759       34.313       25.659       30.776     1177.352      658.365      947.134        0.196        0.139        7.818       22.262        8.108      345.579       23.211      859.591
06/15/2013  11:10:00       18.130       27.080       29.444       29.376       41.730       32.770      862.973     1741.352     1073.883        0.280        0.184       32.589       32.057        0.968      344.689       21.687      859.576
06/15/2013  11:11:00        7.054        9.017       17.803       22.453       18.791       27.828      504.135      353.119      774.416        0.104        0.082       11.449       14.659        1.639      345.475       23.032      859.569
06/15/2013  11:12:00       32.661        4.186       -3.517       25.390       27.215       21.789      644.629      740.680      474.743        0.148        0.093       32.928        7.257        0.049      344.875       22.004      859.560
06/15/2013  11:13:00       28.281      -21.777       28.794       46.483       46.813       29.487     2160.639     2191.502      869.465        0.366        0.261       35.694       15.329        0.184      345.422       22.942      859.557
06/15/2013  11:14:00      -12.960      -88.384       -5.140       41.318       39.720       30.679     1707.139     1577.679      941.209        0.612        0.211       89.330       22.286        0.062      344.893       22.036      859.542
06/15/2013  11:15:00        9.911       -5.118       35.941       27.501       33.036       24.642      756.307     1091.405      607.251        0.194        0.123       11.154       25.186        5.098      345.526       23.121      859.537
06/15/2013  11:16:00        7.418      -26.354       15.571       56.456       51.679       34.305     3187.328     2670.725     1176.838        0.401        0.352       27.378       25.050        0.837      345.653       23.338      859.523
06/15/2013  11:17:00       -6.808       22.857       29.045       40.760       29.640       29.497     1661.385      878.545      870.086        0.241        0.171       23.850       18.071        0.574      345.318       22.764      859.521
06/15/2013  11:18:00       30.728       16.237       23.034       31.229       22.160       24.242      975.230      491.064      587.657        0.190        0.103       34.755       15.834        0.208      344.936       22.109      859.513
06/15/2013  11:19:00       35.176      -36.211       40.017       57.562       60.762       37.244     3313.339     3691.965     1387.133        0.627        0.420       50.484       38.419        0.579      345.463       23.012      859.512
06/15/2013  11:20:00      -37.265      -82.583       11.542       39.615       47.004       38.234     1569.322     2209.374     1461.802        0.679        0.262       90.602       25.121        0.077      345.555       23.170      859.515
06/15/2013  11:21:00        4.738      -94.668       -3.720       61.559       67.387       46.642     3789.456     4541.048     2175.471        0.975        0.525       94.786       43.694        0.212      345.709       23.433      859.513
06/15/2013  11:22:00      -43.708      -72.285        5.537       40.100       34.261       33.157     1608.042     1173.808     1099.369        0.552        0.194       84.472       23.479        0.077      345.401       22.906      859.517
06/15/2013  11:23:00      -25.430       11.525       39.409       26.230       29.673       27.373      688.021      880.506      749.275        0.232        0.116       27.919       23.993        0.739      345.912       23.783      859.506
06/15/2013  11:24:00       10.082      -33.777       28.378       31.860       88.032       46.887     1015.063     7749.602     2198.361        0.650        0.548       35.250       51.302        2.118      345.807       23.602      859.503
06/15/2013  11:25:00       26.135      -69.508        3.377       69.403       53.278       37.207     4816.761     2838.513     1384.349        0.728        0.452       74.259       32.498        0.192      345.254       22.652      859.498
06/15/2013  11:26:00      -48.756        2.489       -1.868       48.335       26.668       28.482     2336.251      711.185      811.218        0.312        0.193       48.820       28.636        0.344      345.256       22.658      859.476
06/15/2013  11:27:00       67.592      -77.186       -9.262       38.133       70.585       36.168     1454.137     4982.311     1308.091        0.918        0.387      102.598       29.123        0.081      344.631       21.588      859.487
06/15/2013  11:28:00       81.048     -113.654       -7.714       50.494       70.076       29.959     2549.597     4910.705      897.544        1.395        0.418      139.592       24.031        0.030      345.054       22.310      859.485
06/15/2013  11:29:00       70.180      -77.774       15.137       39.788       56.119       37.614     1583.121     3149.388     1414.811        0.867        0.307      104.757       32.930        0.099      345.527       23.122      859.489
06/15/2013  11:30:00       28.283       22.125       62.927       51.570       66.560       40.569     2659.461     4430.225     1645.874        0.699        0.437       35.909       36.491        1.033      345.746       23.497      859.465
06/15/2013  11:31:00       29.580      -76.921       13.117       77.639       71.015       42.871     6027.821     5043.158     1837.959        0.993        0.645       82.412       39.679        0.232      345.575       23.205      859.470
06/15/2013  11:32:00      -89.171      -39.465        7.053       55.445       49.399       35.935     3074.184     2440.232     1291.290        0.818        0.340       97.514       29.521        0.092      345.546       23.155      859.486
06/15/2013  11:33:00      -48.475      -27.836       20.682       50.002       49.579       33.517     2500.191     2458.126     1123.375        0.482        0.304       55.899       31.519        0.318      345.869       23.709      859.492
06/15/2013  11:34:00      -59.470       -6.922       10.757       49.162       46.110       32.227     2416.858     2126.102     1038.563        0.464        0.279       59.871       27.570        0.212      345.667       23.362      859.486
06/15/2013  11:35:00        3.548       16.513       26.308       46.196       32.943       23.905     2134.083     1085.240      571.471        0.238        0.190       16.890       18.116        1.150      345.906       23.772      859.480
06/15/2013  11:36:00       35.248     -102.358       -5.138       60.257       68.920       37.426     3630.879     4749.927     1400.725        1.076        0.489      108.257       39.474        0.133      345.232       22.615      859.473
06/15/2013  11:37:00       64.742      -45.511       39.523       53.957       86.830       43.596     2911.365     7539.525     1900.576        1.009        0.618       79.137       45.030        0.324      345.380       22.870      859.442
06/15/2013  11:38:00       70.213       70.649       27.287       59.658       60.105       50.521     3559.134     3612.651     2552.370        1.019        0.486       99.606       31.098        0.097      345.275       22.689      859.440
06/15/2013  11:39:00      134.625      104.495       11.678       70.448       62.715       47.364     4962.893     3933.132     2243.344        2.016        0.557      170.420       37.253        0.048      345.635       23.306      859.427
06/15/2013  11:40:00      -12.332       84.384       13.717       40.930       53.064       44.927     1675.265     2815.826     2018.458        0.698        0.325       85.280       32.486        0.145      345.798       23.586      859.434
06/15/2013  11:41:00      -65.114      183.620      -16.859       45.182       58.123       38.820     2041.430     3378.322     1507.024        2.258        0.346      194.824       31.762        0.027      345.531       23.126      859.438
06/15/2013  11:42:00      -60.820      122.252      -13.548       46.801       58.030       35.082     2190.369     3367.441     1230.754        1.281        0.339      136.545       36.205        0.070      345.520       23.111      859.434
06/15/2013  11:43:00      -30.875       98.887        5.973       45.739       52.344       36.735     2092.032     2739.946     1349.444        0.847        0.309      103.595       31.643        0.093      346.185       24.253      859.437
06/15/2013  11:44:00     -121.933       60.187       -1.525       46.522       40.336       34.874     2164.342     1626.961     1216.220        1.175        0.250      135.978       26.597        0.038      345.610       23.263      859.422
06/15/2013  11:45:00      -42.842       42.900       18.953       56.138       46.465       35.493     3151.529     2158.962     1259.774        0.530        0.329       60.629       40.634        0.449      346.175       24.235      859.431
06/15/2013  11:46:00      -17.802       51.975        4.168       66.120       34.650       40.202     4371.901     1200.649     1616.233        0.511        0.359       54.939       34.081        0.385      345.897       23.756      859.430
06/15/2013  11:47:00       55.640       97.209      -10.442       45.361       67.605       31.160     2057.643     4570.493      970.932        1.013        0.380      112.007       23.775        0.045      345.805       23.599      859.420
06/15/2013  11:48:00       -2.536       56.214       25.909       34.129       53.451       39.743     1164.820     2856.981     1579.524        0.472        0.280       56.271       38.318        0.464      346.423       24.661      859.412
06/15/2013  11:49:00       33.300       51.686       33.864       72.410       41.603       33.322     5243.268     1730.822     1110.329        0.650        0.404       61.485       22.622        0.135      346.231       24.330      859.407
06/15/2013  11:50:00       18.980       26.533        9.620       41.079       26.557       30.518     1687.462      705.294      931.330        0.224        0.166       32.622       13.318        0.167      345.985       23.908      859.408
06/15/2013  11:51:00       24.606       57.808       10.425       40.672       45.715       34.365     1654.205     2089.881     1180.934        0.449        0.246       62.827       27.328        0.189      346.141       24.175      859.392
06/15/2013  11:52:00       12.197       70.315       -3.537       41.569       55.365       39.846     1727.970     3065.284     1587.739        0.574        0.319       71.365       36.716        0.265      346.216       24.305      859.389
06/15/2013  11:53:00       41.039       38.746       48.059       62.770       40.659       36.279     3940.024     1653.167     1316.136        0.620        0.345       56.440       17.746        0.099      346.441       24.692      859.372
06/15/2013  11:54:00       32.907       65.036       76.040       50.598       49.467       30.390     2560.118     2446.978      923.531        0.851        0.297       72.887       21.188        0.085      345.959       23.862      859.368
06/15/2013  11:55:00      151.611       93.540       40.067       72.747       47.326       47.596     5292.170     2239.735     2265.340        2.157        0.490      178.144       40.001        0.050      345.365       22.842      859.362
06/15/2013  11:56:00       43.589       71.376       52.804       53.319       41.888       53.421     2842.910     1754.632     2853.804        0.862        0.373       83.633       27.236        0.106      346.064       24.044      859.354
06/15/2013  11:57:00       33.700       -2.646       44.262       43.942       36.927       40.891     1930.869     1363.630     1672.050        0.403        0.248       33.804       29.162        0.744      345.412       22.924      859.346
06/15/2013  11:58:00       25.896       -6.052        5.187       27.415       25.548       21.993      751.578      652.725      483.683        0.131        0.094       26.594       10.074        0.144      345.137       22.453      859.344
06/15/2013  11:59:00        0.486      129.978        4.732       45.530       92.948       36.051     2073.024     8639.413     1299.699        1.446        0.601      129.979       44.252        0.116      345.862       23.694      859.338
06/15/2013  12:00:00       38.069       91.235        5.485       57.783       60.865       43.741     3338.829     3704.575     1913.275        0.938        0.448       98.859       40.787        0.170      346.024       23.974      859.337
06/15/2013  12:01:00       27.624       56.191       17.567       41.867       28.333       32.599     1752.883      802.750     1062.709        0.392        0.181       62.614       21.777        0.121      346.206       24.289      859.329
06/15/2013  12:02:00       -4.071       58.992       14.341       26.276       55.340       27.957      690.403     3062.552      781.574        0.412        0.227       59.132       28.113        0.226      346.569       24.914      859.324
06/15/2013  12:03:00       -8.894       41.656       20.822       26.251       38.616       27.586      689.101     1491.160      760.978        0.259        0.147       42.595       27.546        0.418      346.006       23.944      859.322
06/15/2013  12:04:00      -26.076       25.309       12.557       32.467       26.856       20.256     1054.116      721.239      410.323        0.183        0.109       36.339       10.037        0.076      346.314       24.475      859.310
06/15/2013  12:05:00       -1.708       32.387       26.580       29.533       32.156       22.846      872.199     1033.990      521.952        0.209        0.121       32.432       16.625        0.263      346.660       25.068      859.319
06/15/2013  12:06:00       12.546        8.690       37.052       29.957       27.449       25.551      897.423      753.429      652.876        0.195        0.115       15.262       19.487        1.630      346.600       24.964      859.309
06/15/2013  12:07:00       17.917      -17.100       26.883       36.223       24.375       23.565     1312.115      594.151      555.330        0.190        0.123       24.768       18.561        0.562      346.333       24.506      859.309
06/15/2013  12:08:00       47.104      -13.531       41.886       60.053       72.308       32.796     3606.368     5228.479     1075.576        0.703        0.496       49.009       37.351        0.581      345.917       23.793      859.300
06/15/2013  12:09:00       13.269      -82.444        3.357       65.932       83.740       41.781     4347.014     7012.325     1745.612        1.004        0.655       83.505       51.498        0.380      345.923       23.802      859.301
06/15/2013  12:10:00        9.423       37.093       46.802       29.380       41.484       25.191      863.189     1720.890      634.609        0.344        0.161       38.271       11.607        0.092      346.333       24.506      859.272
06/15/2013  12:11:00       -9.036       27.235       12.605       20.080       56.198       31.600      403.226     3158.190      998.547        0.277        0.228       28.695       28.688        0.999      346.630       25.018      859.244
06/15/2013  12:12:00        9.885      -39.511       -2.016       26.025       58.692       21.651      677.326     3444.791      468.746        0.313        0.230       40.729       12.956        0.101      346.450       24.706      859.234
06/15/2013  12:13:00       14.176     -170.022      -18.866       79.265       59.476       46.192     6282.865     3537.355     2133.668        2.071        0.598      170.612       30.980        0.033      346.484       24.762      859.222
06/15/2013  12:14:00       11.206     -106.306        1.247       78.456       89.327       43.320     6155.334     7979.370     1876.603        1.372        0.801      106.895       41.615        0.152      346.332       24.503      859.220
06/15/2013  12:15:00      -30.776      -49.633        6.883       60.195       55.909       30.763     3623.418     3125.801      946.392        0.558        0.385       58.400       27.714        0.225      346.520       24.827      859.225
06/15/2013  12:16:00      -25.049      -17.433       20.403       44.525       33.770       28.684     1982.481     1140.406      822.775        0.265        0.197       30.518       18.716        0.376      346.897       25.477      859.212
06/15/2013  12:17:00       71.140        3.506       63.641       70.597      138.031       66.202     4984.001    19052.569     4382.664        1.877        1.421       71.226       78.855        1.226      346.555       24.886      859.202
06/15/2013  12:18:00      117.765       18.391      105.007      140.797      132.643       81.479    19823.815    17594.244     6638.867        3.464        2.203      119.192       88.537        0.552      346.434       24.675      859.180
06/15/2013  12:19:00       89.285     -135.965       13.078       68.459       97.966       68.104     4686.635     9597.375     4638.204        2.277        0.946      162.660       50.406        0.096      346.416       24.646      859.187
06/15/2013  12:20:00       81.278      -29.331       46.378       70.548       93.459       54.808     4976.975     8734.499     3003.917        1.316        0.836       86.408       64.010        0.549      346.364       24.557      859.198
06/15/2013  12:21:00       67.770       57.102       34.982       57.253       30.656       42.886     3277.901      939.793     1839.210        0.757        0.303       88.620       28.169        0.101      345.972       23.885      859.185
06/15/2013  12:22:00       25.888      -50.009       27.464       52.279       87.926       35.922     2733.097     7730.947     1290.384        0.784        0.588       56.313       43.976        0.610      346.410       24.638      859.176
06/15/2013  12:23:00       40.844      -21.336       37.634       48.117       54.673       43.841     2315.231     2989.190     1922.018        0.538        0.361       46.081       31.586        0.470      346.929       25.531      859.177
06/15/2013  12:24:00       31.732       30.804       23.614       52.349       33.206       30.422     2740.368     1102.660      925.484        0.364        0.238       44.225       23.254        0.276      347.029       25.703      859.185
06/15/2013  12:25:00      104.510     -162.571       15.525      114.572       90.035       64.243    13126.684     8106.319     4127.121        3.147        1.268      193.266       46.171        0.057      346.420       24.652      859.162
06/15/2013  12:26:00      105.840      -51.129       33.264      104.167       75.287       48.450    10850.830     5668.121     2347.437        1.689        0.943      117.543       38.530        0.107      346.371       24.571      859.148
06/15/2013  12:27:00      104.134     -103.880       -7.790      131.625      151.043       97.242    17325.029    22813.850     9455.914        3.564        2.480      147.088      105.512        0.515      346.622       24.999      859.123
06/15/2013  12:28:00      132.259     -234.210      -40.787      178.314      178.469       98.699    31795.753    31851.220     9741.400        7.368        3.669      268.973      116.729        0.188      346.174       24.228      859.113
06/15/2013  12:29:00      100.211      -84.465       21.116      100.796      153.025       88.519    10159.843    23416.703     7835.638        2.951        2.071      131.059      109.631        0.700      346.489       24.773      859.176
06/15/2013  12:30:00       88.972     -117.462      -28.134       66.225       77.251       56.042     4385.781     5967.780     3140.718        1.800        0.675      147.355       50.192        0.116      346.172       24.227      859.188
06/15/2013  12:31:00       83.110      -34.133       19.799       27.826       78.164       42.531      774.264     6109.628     1808.908        0.858        0.435       89.846       47.171        0.276      345.908       23.776      859.209
06/15/2013  12:32:00      -16.095       64.630        3.127       45.594       24.672       26.493     2078.855      608.706      701.857        0.392        0.169       66.604       23.818        0.128      346.057       24.032      859.177
06/15/2013  12:33:00        5.910        6.715       35.926       28.343       28.744       20.800      803.319      826.189      432.643        0.172        0.103        8.946       18.145        4.114      347.037       25.716      859.163
06/15/2013  12:34:00       29.410      -49.466       22.102       49.614       67.070       42.487     2461.572     4498.422     1805.152        0.628        0.438       57.549       44.803        0.606      346.783       25.280      859.162
06/15/2013  12:35:00       28.571       44.026       85.396       57.311       76.571       57.623     3284.494     5863.101     3320.359        1.126        0.623       52.485       48.138        0.841      346.699       25.134      859.150
06/15/2013  12:36:00      -18.404      -20.376       32.517       53.832       39.012       32.605     2897.849     1521.974     1063.118        0.365        0.274       27.457       32.071        1.364      346.668       25.081      859.151
06/15/2013  12:37:00      -55.980      -34.920        6.237       26.764       36.867       20.872      716.304     1359.187      435.637        0.345        0.126       65.979       19.364        0.086      346.167       24.220      859.143
06/15/2013  12:38:00      -75.506       26.004        6.075       25.303       30.247       21.002      640.256      914.870      441.098        0.420        0.100       79.859       15.131        0.036      345.989       23.914      859.130
06/15/2013  12:39:00      -27.421       -0.320       -3.075       40.542       35.025       22.644     1643.633     1226.770      512.744        0.207        0.169       27.423       15.785        0.331      346.347       24.530      859.126
06/15/2013  12:40:00       68.501      -22.334       36.429       77.457       85.102       59.453     5999.634     7242.330     3534.691        1.164        0.839       72.050       64.252        0.795      346.777       25.269      859.111
06/15/2013  12:41:00       -7.419       64.756      113.747       33.015       65.837       36.965     1089.991     4334.491     1366.389        1.199        0.340       65.180       33.221        0.260      346.732       25.191      859.097
06/15/2013  12:42:00       63.862       77.641       88.404       60.961       63.444       41.908     3716.259     4025.090     1756.287        1.371        0.475      100.531       32.417        0.104      346.376       24.578      859.094
06/15/2013  12:43:00        3.657       45.014      101.383       57.387       56.617       62.622     3293.254     3205.474     3921.539        1.137        0.521       45.162       46.987        1.082      346.745       25.212      859.069
06/15/2013  12:44:00       18.435      -70.039       -2.122       86.802       73.333       45.470     7534.503     5377.712     2067.534        1.011        0.749       72.425       36.945        0.260      346.730       25.189      859.081
06/15/2013  12:45:00     -104.429     -115.607        6.607       89.005       75.784       44.364     7921.861     5743.173     1968.153        1.997        0.782      155.789       40.426        0.067      346.324       24.487      859.094
06/15/2013  12:46:00      -75.187     -112.935        1.699      109.711       70.796       50.642    12036.424     5012.141     2564.595        1.901        0.981      135.673       42.668        0.099      346.058       24.032      859.109
06/15/2013  12:47:00      -46.058      -59.806        3.886       58.081       59.039       36.438     3373.411     3485.637     1327.701        0.695        0.409       75.485       36.140        0.229      345.929       23.810      859.123
06/15/2013  12:48:00      -16.406     -136.094        3.961       43.264       61.621       29.912     1871.756     3797.140      894.741        1.268        0.328      137.079       28.706        0.044      345.828       23.637      859.107
06/15/2013  12:49:00     -215.420     -128.748      -17.232       93.199       87.560       42.897     8686.004     7666.699     1840.123        4.073        0.910      250.962       45.108        0.032      345.943       23.833      859.112
06/15/2013  12:50:00      -73.322      -56.447        6.886       70.700       56.621       37.587     4998.476     3205.921     1412.776        0.911        0.481       92.533       47.005        0.258      346.147       24.186      859.154
06/15/2013  12:51:00       76.069       66.527       26.696       35.268       37.002       36.506     1243.861     1369.155     1332.705        0.743        0.197      101.056       31.046        0.094      346.141       24.176      859.135
06/15/2013  12:52:00      103.910      106.610        3.496       46.781       33.464       39.876     2188.449     1119.810     1590.112        1.354        0.245      148.872       22.733        0.023      346.050       24.019      859.122
06/15/2013  12:53:00       55.393       48.423      -10.849       34.579       33.290       25.440     1195.691     1108.257      647.170        0.424        0.148       73.575       12.752        0.030      346.230       24.326      859.111
06/15/2013  12:54:00       97.599       47.850       17.481       54.642       38.928       39.990     2985.762     1515.365     1599.181        0.911        0.305      108.698       25.535        0.055      346.424       24.661      859.084
06/15/2013  12:55:00       76.621       74.028       -3.246       56.747       62.281       45.564     3220.215     3878.974     2076.102        1.027        0.459      106.541       46.518        0.191      346.467       24.735      859.079
06/15/2013  12:56:00       25.641       82.574      -10.070       31.607       38.012       35.195      998.993     1444.895     1238.670        0.563        0.184       86.463       22.374        0.067      346.230       24.331      859.073
06/15/2013  12:57:00       39.013       22.531       19.747       46.737       26.570       29.439     2184.335      705.965      866.657        0.309        0.188       45.052       22.268        0.244      346.535       24.853      859.056
06/15/2013  12:58:00       37.992       38.223       -7.326       22.646       25.573       19.022      512.848      653.959      361.831        0.224        0.076       53.892       15.312        0.081      346.163       24.214      859.059
06/15/2013  12:59:00       14.571       10.312       16.088       49.387       50.198       36.866     2439.116     2519.814     1359.067        0.345        0.316       17.850       23.608        1.749      346.539       24.860      859.041
06/15/2013  13:00:00       18.702       69.756      102.338       58.394       66.967       63.007     3409.876     4484.581     3969.848        1.377        0.593       72.220       50.208        0.483      346.819       25.341      859.021
06/15/2013  13:01:00      112.304       90.786       50.302       47.625       38.563       54.543     2268.121     1487.140     2974.931        1.506        0.337      144.410       27.447        0.036      346.006       23.944      859.033
06/15/2013  13:02:00       73.436      115.755       -3.965       56.784       33.713       42.172     3224.410     1136.564     1778.497        1.247        0.307      137.084       24.481        0.032      346.122       24.143      859.009
06/15/2013  13:03:00       18.150      102.141        1.811       37.225       64.256       47.037     1385.696     4128.838     2212.501        0.924        0.386      103.741       44.061        0.180      346.428       24.668      858.982
06/15/2013  13:04:00       19.064       27.074       12.163       30.068       25.688       28.552      904.104      659.871      815.221        0.181        0.119       33.112       15.186        0.210      346.897       25.475      858.975
06/15/2013  13:05:00       16.458       22.595       26.705       29.022       21.965       24.873      842.255      482.468      618.669        0.172        0.097       27.953       16.045        0.329      347.244       26.074      858.959
06/15/2013  13:06:00       36.333       21.262       21.122       40.629       29.337       28.351     1650.680      860.640      803.766        0.277        0.166       42.097       15.246        0.131      347.236       26.060      858.947
06/15/2013  13:07:00      -33.699       16.245       38.155       51.310       68.996       49.671     2632.674     4760.481     2467.237        0.636        0.493       37.410       26.930        0.518      347.312       26.191      858.936
06/15/2013  13:08:00       31.947      -43.246       35.079       63.910       89.424       43.516     4084.502     7996.641     1893.618        0.905        0.699       53.767       46.914        0.761      346.981       25.621      858.923
06/15/2013  13:09:00       61.442     -106.870      -13.748       63.761      106.835       47.649     4065.432    11413.807     2270.446        1.656        0.887      123.274       23.180        0.035      346.361       24.553      858.905
06/15/2013  13:10:00       -4.582       41.571       51.598       41.078       34.707       42.457     1687.372     1204.590     1802.573        0.455        0.235       41.822       31.973        0.584      347.208       26.011      858.907
06/15/2013  13:11:00       33.451       29.127       23.338       32.574       33.300       29.929     1061.050     1108.860      895.720        0.279        0.153       44.354       16.439        0.137      346.637       25.028      858.900
06/15/2013  13:12:00       48.614      107.503        5.706       72.104       81.633       36.558     5199.020     6663.965     1336.464        1.357        0.660      117.984       39.201        0.110      346.907       25.492      858.900
06/15/2013  13:13:00       27.573       79.478       -1.660       41.023       46.428       36.778     1682.910     2155.530     1352.588        0.613        0.260       84.125       17.147        0.042      347.215       26.023      858.897
06/15/2013  13:14:00       33.491      -45.472       16.405       47.469       69.006       41.961     2253.280     4761.799     1760.723        0.612        0.439       56.475       31.513        0.311      347.016       25.682      858.903
06/15/2013  13:15:00       14.791        2.218       38.114       25.426       64.873       28.883      646.456     4208.530      834.206        0.368        0.284       14.957       21.440        2.055      347.025       25.695      858.902
06/15/2013  13:16:00       22.895       -0.306       49.477       34.238       34.269       26.785     1172.213     1174.395      717.455        0.302        0.153       22.897        8.485        0.137      347.154       25.919      858.885
06/15/2013  13:17:00       51.535       29.414       20.663       24.757       17.603       26.408      612.925      309.861      697.372        0.278        0.081       59.338       20.064        0.114      346.666       25.076      858.876
06/15/2013  13:18:00       42.628      -19.469       15.540       41.776       69.082       33.510     1745.234     4772.351     1122.928        0.504        0.382       46.864       36.937        0.621      347.097       25.821      858.861
06/15/2013  13:19:00      114.905       64.922       70.807      114.192      103.734       78.320    13039.809    10760.670     6134.090        2.618        1.497      131.977       59.651        0.204      346.955       25.573      858.842
06/15/2013  13:20:00      253.082      148.479       27.874       85.024       67.678       50.021     7229.124     4580.357     2502.078        5.059        0.716      293.422       25.324        0.007      346.484       24.761      858.831
06/15/2013  13:21:00      166.996      112.893       90.761       86.694       83.394       70.634     7515.891     6954.524     4989.140        3.416        0.973      201.575       54.312        0.073      346.731       25.184      858.823
06/15/2013  13:22:00      132.055      124.036       13.758       63.562       48.150       47.128     4040.162     2318.378     2221.022        2.079        0.429      181.172       17.277        0.009      346.175       24.230      858.852
06/15/2013  13:23:00      125.803       45.520       71.517       74.257       47.114       48.660     5514.075     2219.745     2367.784        1.656        0.505      133.785       35.788        0.072      346.540       24.860      858.829
06/15/2013  13:24:00       84.941       13.218       44.737       68.253       66.753       43.924     4658.461     4455.981     1929.319        1.022        0.552       85.963       43.533        0.256      346.421       24.657      858.835
06/15/2013  13:25:00       45.501      -80.762       -6.597       44.145       48.094       28.813     1948.758     2312.985      830.204        0.686        0.255       92.698       24.119        0.068      346.612       24.985      858.822
06/15/2013  13:26:00       -4.504       13.395       38.460       12.996       20.159       13.547      168.887      406.376      183.530        0.122        0.038       14.132        7.267        0.264      347.716       26.888      858.833
06/15/2013  13:27:00      -91.755      -35.992       -8.154       45.660       77.537       30.867     2084.821     6011.973      952.800        0.941        0.452       98.562       14.942        0.023      346.821       25.346      858.842
06/15/2013  13:28:00      -32.877      -20.123        0.653       28.095       26.342       18.449      789.304      693.898      340.360        0.165        0.091       38.546       13.143        0.116      346.763       25.243      858.814
06/15/2013  13:29:00      -53.449      -32.114       15.586       37.879       42.416       31.759     1434.806     1799.088     1008.620        0.419        0.212       62.355       27.622        0.196      347.167       25.942      858.791
06/15/2013  13:30:00      -62.398       32.363       16.137      114.196       50.926       47.700    13040.688     2593.491     2275.257        1.155        0.895       70.292       57.647        0.673      347.242       26.069      858.778
06/15/2013  13:31:00      -72.715      -79.448       19.736       86.035      122.736       44.802     7402.030    15064.097     2007.189        1.823        1.224      107.701       46.661        0.188      347.257       26.094      858.772
06/15/2013  13:32:00     -184.638      -12.159      -17.527       63.571       82.296       35.061     4041.299     6772.680     1229.260        2.329        0.602      185.038       31.069        0.028      346.418       24.649      858.774
06/15/2013  13:33:00     -197.775       23.897      -14.515       95.836       79.951       43.601     9184.606     6392.118     1901.072        2.868        0.874      199.214       46.543        0.055      346.687       25.111      858.749
06/15/2013  13:34:00     -127.068       -4.384      -22.541       83.388       56.452       31.732     6953.617     3186.879     1006.937        1.391        0.557      127.143       36.668        0.083      346.558       24.890      858.737
06/15/2013  13:35:00      -43.635       73.555      -19.624       30.916       53.173       32.739      955.795     2827.414     1071.873        0.628        0.243       85.524       22.310        0.068      346.631       25.018      858.718
06/15/2013  13:36:00       21.935       68.527       13.706       30.203       45.270       30.242      912.239     2049.397      914.589        0.462        0.194       71.952       24.644        0.117      346.845       25.386      858.703
06/15/2013  13:37:00       -9.988       20.644       38.597       27.702       40.320       23.326      767.386     1625.717      544.118        0.248        0.147       22.934       18.296        0.636      347.481       26.482      858.689
06/15/2013  13:38:00      -38.812       44.915        1.698       46.348       50.702       28.052     2148.104     2570.648      786.927        0.452        0.275       59.361       23.213        0.153      347.336       26.232      858.700
06/15/2013  13:39:00      -63.149       21.808       13.136       77.615       42.441       40.979     6024.160     1801.279     1679.312        0.707        0.475       66.809       37.201        0.310      347.319       26.202      858.688
06/15/2013  13:40:00       -4.902      -48.787        6.137       71.887       71.597       50.634     5167.750     5126.191     2563.847        0.765        0.643       49.033       45.725        0.870      347.505       26.524      858.673
06/15/2013  13:41:00     -258.273     -168.555        3.903      163.882       77.890       66.508    26857.180     6066.844     4423.302        6.623        1.867      308.408       81.450        0.070      346.735       25.194      858.684
06/15/2013  13:42:00     -255.466      -98.711      -11.881      126.305       91.183       56.426    15952.928     8314.346     3183.870        5.129        1.373      273.874       59.840        0.048      346.870       25.425      858.664
06/15/2013  13:43:00     -190.509      -51.882        1.922       94.065      101.225       52.418     8848.261    10246.495     2747.645        3.041        1.092      197.447       50.736        0.066      347.149       25.907      858.667
06/15/2013  13:44:00     -241.705      -33.018      -17.203       82.881       69.557       39.604     6869.206     4838.107     1568.460        3.654        0.664      243.950       39.261        0.026      346.803       25.311      858.656
06/15/2013  13:45:00      -93.220      -52.627       16.331       82.297       67.694       41.514     6772.834     4582.463     1723.374        1.240        0.654      107.050       48.957        0.209      347.312       26.188      858.642
06/15/2013  13:46:00      -72.811       19.185       23.576       97.111       89.526       49.309     9430.572     8014.880     2431.408        1.305        0.994       75.296       41.069        0.297      347.259       26.098      858.637
06/15/2013  13:47:00        8.557      131.777        4.406       43.540       62.727       44.173     1895.699     3934.642     1951.222        1.262        0.389      132.054       41.859        0.100      347.064       25.763      858.623
06/15/2013  13:48:00      -28.299       64.426       22.299       37.075       62.157       38.612     1374.584     3863.545     1490.922        0.609        0.336       70.368       38.156        0.294      347.594       26.676      858.611
06/15/2013  13:49:00      -52.100       39.266       10.138       62.133       46.375       35.346     3860.468     2150.645     1249.307        0.581        0.363       65.240       24.684        0.143      347.579       26.651      858.589
06/15/2013  13:50:00      -25.064        7.886        3.532       64.947       29.961       27.999     4218.108      897.656      783.924        0.330        0.295       26.275       19.667        0.560      347.528       26.563      858.581
06/15/2013  13:51:00     -102.264      -45.003        9.229       89.083       63.791       36.908     7935.858     4069.239     1362.219        1.297        0.668      111.728       42.907        0.147      347.357       26.268      858.569
06/15/2013  13:52:00      -92.766      -25.035       12.553       79.509       60.401       37.145     6321.723     3648.328     1379.766        1.037        0.567       96.085       37.711        0.154      347.310       26.186      858.559
06/15/2013  13:53:00     -179.890     -130.597        7.345      140.165       97.372       59.284    19646.360     9481.324     3514.553        4.105        1.632      222.298       78.254        0.124      347.100       25.823      858.549
06/15/2013  13:54:00     -185.880     -132.471       -6.782       76.021       58.691       40.765     5779.268     3444.675     1661.760        3.151        0.544      228.254       29.682        0.017      346.725       25.176      858.557
06/15/2013  13:55:00     -166.845     -129.391       -8.349       74.735       60.142       37.782     5585.361     3617.016     1427.484        2.764        0.531      211.138       30.304        0.021      346.783       25.276      858.551
06/15/2013  13:56:00     -116.881     -156.679       -5.439       88.193       86.084       42.548     7778.026     7410.434     1810.304        2.762        0.850      195.473       50.451        0.067      346.854       25.400      858.548
06/15/2013  13:57:00     -109.258      -80.264        9.487       82.973       53.382       41.631     6884.513     2849.644     1733.107        1.497        0.573      135.572       48.004        0.125      346.850       25.393      858.546
06/15/2013  13:58:00       -4.070      -20.956       -8.858       36.828       43.581       34.822     1356.293     1899.278     1212.546        0.250        0.223       21.348       28.162        1.740      347.163       25.934      858.521
06/15/2013  13:59:00     -117.437      -39.274      -11.199       46.484       39.690       29.853     2160.771     1575.265      891.191        1.004        0.231      123.830       21.604        0.030      346.953       25.571      858.508
06/15/2013  14:00:00       44.407       36.903      -13.670       63.316       54.235       39.895     4008.891     2941.436     1591.625        0.603        0.427       57.739       40.976        0.504      346.692       25.124      858.511
06/15/2013  14:01:00       12.951      107.236      -26.323       41.058       31.585       25.182     1685.736      997.616      634.141        0.784        0.166      108.015       17.101        0.025      346.677       25.099      858.467
06/15/2013  14:02:00     -121.768       36.001       12.330      129.657       79.411       42.709    16810.929     6306.028     1824.054        2.060        1.247      126.978       49.199        0.150      347.197       25.991      858.445
06/15/2013  14:03:00     -138.576      -37.119       19.399      100.668       84.145       50.730    10134.110     7080.308     2573.492        2.037        0.989      143.461       57.053        0.158      347.370       26.289      858.438
06/15/2013  14:04:00      -33.085      -25.098       28.087       62.027       53.713       32.040     3847.371     2885.091     1026.544        0.513        0.388       41.527       29.572        0.507      347.612       26.708      858.426
06/15/2013  14:05:00     -175.500     -122.331       -2.041       79.905       92.107       39.352     6384.730     8483.705     1548.544        3.109        0.821      213.928       44.107        0.043      347.026       25.694      858.435
06/15/2013  14:06:00      -43.152       23.873       22.654       65.451       50.641       44.318     4283.798     2564.515     1964.102        0.588        0.441       49.315       30.221        0.376      347.645       26.765      858.429
06/15/2013  14:07:00      -31.350     -194.644        0.187       54.002      105.164       36.888     2916.218    11059.455     1360.721        2.710        0.767      197.153       29.497        0.022      346.988       25.629      858.432
06/15/2013  14:08:00     -149.957     -101.945        9.712      118.338       85.924       43.696    14003.998     7382.857     1909.321        2.813        1.165      181.328       45.230        0.062      347.329       26.217      858.422
06/15/2013  14:09:00      -56.626      -26.144       32.244      108.100       52.350       42.009    11685.636     2740.564     1764.779        1.056        0.810       62.370       50.271        0.650      347.927       27.250      858.442
06/15/2013  14:10:00       66.961      -32.829       53.811       93.505      127.069       88.562     8743.114    16146.647     7843.143        2.059        1.637       74.576       85.401        1.311      347.676       26.818      858.413
06/15/2013  14:11:00       10.559     -131.057      -16.002       71.705      113.531       54.662     5141.634    12889.393     2987.938        1.928        1.051      131.482       67.158        0.261      347.505       26.523      858.419
06/15/2013  14:12:00     -109.080     -211.321      -16.920       68.677       74.930       51.216     4716.560     5614.451     2623.103        3.490        0.648      237.813       39.675        0.028      346.822       25.340      858.428
06/15/2013  14:13:00      -32.285        4.804       16.302       87.922       66.515       43.478     7730.207     4424.221     1890.297        0.769        0.702       32.641       46.711        2.048      347.457       26.439      858.392
06/15/2013  14:14:00       57.667       43.128       43.437       61.338       88.710       45.810     3762.305     7869.477     2098.512        1.040        0.687       72.010       30.367        0.178      347.559       26.615      858.365
06/15/2013  14:15:00       31.735      -70.477       28.897       57.485       75.975       59.306     3304.498     5772.267     3517.243        0.970        0.630       77.293       56.058        0.526      347.778       26.995      858.348
06/15/2013  14:16:00       98.552      -77.734       28.910       74.685      102.069       78.794     5577.851    10418.040     6208.570        1.939        1.110      125.519       76.786        0.374      347.530       26.564      858.323
06/15/2013  14:17:00       84.789       83.317      125.649       86.806       77.179       59.676     7535.249     5956.647     3561.193        2.348        0.853      118.873       51.434        0.187      347.402       26.343      858.304
06/15/2013  14:18:00      153.034     -178.106       -9.553       81.820      146.198       72.624     6694.499    21373.737     5274.262        4.428        1.667      234.822       75.921        0.105      347.249       26.079      858.281
06/15/2013  14:19:00       71.270     -129.146       20.109       90.233      142.353       79.519     8142.024    20264.324     6323.229        2.844        1.736      147.506       84.991        0.332      347.554       26.606      858.268
06/15/2013  14:20:00       75.450     -105.710       26.515       70.502      110.695       67.741     4970.579    12253.491     4588.797        1.969        1.091      129.874       62.658        0.233      347.596       26.677      858.253
06/15/2013  14:21:00      137.520      115.120      109.051      131.398      106.191      103.010    17265.499    11276.442    10611.093        4.160        1.958      179.344       86.486        0.233      347.302       26.169      858.219
06/15/2013  14:22:00      203.874      119.341      124.487      166.861      152.840      114.228    27842.749    23360.013    13048.101        6.776        3.213      236.235       94.513        0.160      347.241       26.064      858.152
06/15/2013  14:23:00      170.768     -157.001       11.532      164.039      212.563      150.115    26908.789    45183.005    22534.486        7.427        4.731      231.972      133.291        0.330      347.356       26.263      858.114
06/15/2013  14:24:00      139.894     -139.054       21.954      146.612      153.282      126.433    21495.151    23495.489    15985.422        5.017        3.049      197.246      132.832        0.454      347.334       26.227      858.161
06/15/2013  14:25:00      116.411     -214.272      -29.531      143.930      137.418       67.958    20715.918    18883.841     4618.330        5.227        2.211      243.852       74.565        0.093      347.185       25.968      858.196
06/15/2013  14:26:00       93.120      -84.757       27.033       88.638      143.276       79.095     7856.687    20528.129     6256.006        2.561        1.732      125.917       88.374        0.493      347.306       26.179      858.181
06/15/2013  14:27:00       59.234      -34.274       68.100       89.789      121.609       87.406     8062.137    14788.822     7639.811        1.990        1.525       68.435       98.307        2.064      347.487       26.492      858.161
06/15/2013  14:28:00       18.376      -71.123       36.148       58.672       86.674       54.853     3442.402     7512.343     3008.818        1.033        0.698       73.459       58.331        0.631      347.612       26.705      858.154
06/15/2013  14:29:00      132.896     -162.301      -16.742       73.670       84.392       40.970     5427.275     7122.005     1678.580        2.925        0.711      209.769       41.464        0.039      347.101       25.824      858.151
06/15/2013  14:30:00      199.272     -207.169      -50.958       98.814      120.369       63.934     9764.235    14488.719     4087.583        5.678        1.417      287.451       73.041        0.065      347.260       26.098      858.129
06/15/2013  14:31:00      188.619     -169.664      -12.886      112.592      124.994       96.176    12677.032    15623.500     9249.837        5.103        1.878      253.698      102.134        0.162      347.210       26.012      858.105
06/15/2013  14:32:00      144.238     -155.026        2.664      130.454      153.831       92.525    17018.166    23663.909     8560.815        4.703        2.462      211.750      106.738        0.254      347.308       26.181      858.090
06/15/2013  14:33:00      133.455      -50.085       61.129      100.077      123.229       99.484    10015.418    15185.296     9897.103        2.957        1.755      142.544      103.002        0.522      347.285       26.140      858.080
06/15/2013  14:34:00       75.482      -36.777       38.351       77.941      148.120       89.901     6074.799    21939.572     8082.247        2.230        1.805       83.965      111.567        1.766      347.255       26.091      858.062
06/15/2013  14:35:00       87.848      -44.451       14.573       40.618      101.741       44.784     1649.808    10351.253     2005.583        1.195        0.700       98.454       49.970        0.258      347.256       26.095      858.034
06/15/2013  14:36:00       78.047     -115.697        3.308       76.844      118.433       62.322     5905.056    14026.456     3883.995        2.165        1.191      139.561       70.888        0.258      347.322       26.207      858.020
06/15/2013  14:37:00       24.962     -153.191        8.309       64.114       96.068       47.654     4110.648     9229.077     2270.944        1.988        0.781      155.211       50.794        0.107      347.353       26.259      858.009
06/15/2013  14:38:00       40.538     -121.185       11.404       44.729       95.762       42.033     2000.672     9170.444     1766.761        1.470        0.647      127.786       45.461        0.127      347.786       27.007      858.001
06/15/2013  14:39:00       10.921      -66.415       12.439       69.301       70.019       34.338     4802.641     4902.693     1179.099        0.778        0.544       67.307       22.858        0.115      347.904       27.210      858.000
06/15/2013  14:40:00     -105.008     -154.993      -10.388      102.004       88.111       58.673    10404.896     7763.498     3442.483        2.838        1.081      187.215       50.254        0.072      347.670       26.805      857.991
06/15/2013  14:41:00      -95.223     -194.599      -10.684       48.532       59.189       43.250     2355.393     3503.359     1870.579        2.739        0.386      216.648       37.157        0.029      347.217       26.024      857.972
06/15/2013  14:42:00      -26.249      -54.010       -8.653       77.779       60.168       39.642     6049.515     3620.161     1571.518        0.746        0.562       60.051       32.850        0.299      347.647       26.767      857.953
06/15/2013  14:43:00      -35.025     -100.274       -5.018       68.228       62.424       55.773     4655.034     3896.802     3110.665        1.148        0.583      106.215       27.453        0.067      347.690       26.841      857.941
06/15/2013  14:44:00       53.377     -156.315        6.754       89.840      111.077       57.063     8071.160    12338.156     3256.163        2.549        1.183      165.177       58.585        0.126      347.700       26.858      857.918
06/15/2013  14:45:00      189.068     -165.143        1.696      147.325      128.986       89.527    21704.610    16637.374     8015.163        5.468        2.318      251.036       89.464        0.127      347.572       26.637      857.870
06/15/2013  14:46:00      209.804     -205.649        8.954      169.002      203.670      104.436    28561.662    41481.282    10906.796        8.365        4.047      293.784      117.110        0.159      347.583       26.654      857.798
06/15/2013  14:47:00      130.925     -117.592       50.813      156.066      219.132      129.416    24356.636    48018.708    16748.525        6.132        4.456      175.980      129.997        0.546      347.703       26.862      857.768
06/15/2013  14:48:00      197.372     -321.773      -50.986      117.991      157.230       67.217    13921.954    24721.256     4518.093        9.412        2.158      377.483       76.200        0.041      347.135       25.883      857.899
06/15/2013  14:49:00      108.626      -36.871       66.106      125.141      176.212      123.109    15660.256    31050.513    15155.725        3.969        3.093      114.713      136.597        1.418      347.450       26.426      857.876
06/15/2013  14:50:00      156.997     -194.883      -53.504      118.593      134.439       89.470    14064.379    18073.800     8004.964        5.281        2.007      250.255       90.038        0.129      347.342       26.238      857.871
06/15/2013  14:51:00      106.675     -123.970       -3.725      116.343      154.683       79.900    13535.681    23926.676     6383.947        3.530        2.192      163.549       80.418        0.242      347.423       26.380      857.885
06/15/2013  14:52:00      159.307     -184.045       -8.147       96.211      124.770       76.737     9256.574    15567.640     5888.497        4.501        1.536      243.416       82.726        0.116      347.516       26.538      857.884
06/15/2013  14:53:00       85.003     -139.431        0.178       97.682      134.058       70.090     9541.701    17971.431     4912.571        2.954        1.621      163.299       76.550        0.220      347.519       26.543      857.903
06/15/2013  14:54:00       79.395     -105.965       47.714       61.629      141.919       60.530     3798.138    20140.897     3663.908        2.370        1.380      132.409       87.559        0.437      347.418       26.372      857.896
06/15/2013  14:55:00       79.883       46.231       94.046       88.555      113.060       72.675     7841.955    12782.618     5281.679        2.163        1.295       92.296       85.165        0.851      347.703       26.863      857.850
06/15/2013  14:56:00       77.590     -133.898        8.203      118.092       96.354       57.386    13945.695     9284.153     3293.110        2.526        1.326      154.754       70.498        0.208      347.613       26.705      857.840
06/15/2013  14:57:00      131.612      -52.795       21.233       80.951      105.326       67.555     6553.115    11093.543     4563.649        2.138        1.111      141.806       69.124        0.238      347.529       26.563      857.821
06/15/2013  14:58:00      132.635      -48.869       24.424       92.732      147.281       70.407     8599.285    21691.601     4957.194        2.791        1.762      141.351       75.093        0.282      347.555       26.606      857.790
06/15/2013  14:59:00      -25.210      -68.121       23.553      166.799       94.391       52.051    27822.002     8909.676     2709.341        2.263        1.972       72.636       59.445        0.670      347.841       27.102      857.794
06/15/2013  15:00:00      -26.746      -65.558      -12.301      105.967       96.948       57.853    11229.014     9398.854     3346.968        1.456        1.199       70.804       54.427        0.591      347.840       27.102      857.811
06/15/2013  15:01:00       46.633       21.675       84.671       86.150      117.235       64.621     7421.880    13744.076     4175.828        1.757        1.267       51.425       57.441        1.248      347.957       27.302      857.776
06/15/2013  15:02:00       13.567     -120.094       12.502      131.000      115.914       71.185    17160.991    13436.157     5067.249        2.521        1.783      120.858       74.659        0.382      347.832       27.085      857.731
06/15/2013  15:03:00      -38.178      -74.382        8.420       76.399       57.786       45.760     5836.808     3339.214     2093.965        0.916        0.563       83.607       29.338        0.123      347.960       27.307      857.775
06/15/2013  15:04:00      -32.030      -47.774       11.412       80.175       72.635       48.067     6428.067     5275.889     2310.395        0.872        0.701       57.518       37.010        0.414      347.990       27.359      857.759
06/15/2013  15:05:00      -58.730      -97.520      -13.623       75.530       70.875       55.282     5704.782     5023.234     3056.093        1.346        0.689      113.839       37.950        0.111      348.002       27.380      857.743
06/15/2013  15:06:00      -24.074      -61.242       30.755      112.516      102.334       57.487    12659.913    10472.253     3304.720        1.585        1.322       65.803       46.049        0.490      348.404       28.076      857.745
06/15/2013  15:07:00       11.977     -240.672      -18.732      113.824       88.529       74.800    12955.956     7837.350     5595.089        4.240        1.319      240.970       63.847        0.070      347.918       27.232      857.791
06/15/2013  15:08:00       74.437     -223.687      -26.562      135.637      147.206       93.961    18397.469    21669.642     8828.608        5.258        2.445      235.747       78.899        0.112      347.662       26.790      857.804
06/15/2013  15:09:00      158.720      -43.177       76.038      144.552      177.696      101.138    20895.307    31575.756    10228.911        4.776        3.135      164.488      126.332        0.590      347.552       26.600      857.752
06/15/2013  15:10:00      -36.163     -141.340        8.712      148.583       90.690       67.026    22076.993     8224.694     4492.472        2.807        1.740      145.893       41.209        0.080      347.883       27.172      857.759
06/15/2013  15:11:00       60.683     -244.908      -35.134       75.359      138.973       72.804     5678.973    19313.555     5300.473        4.759        1.515      252.314       61.277        0.059      347.700       26.856      857.812
06/15/2013  15:12:00       60.740       36.916      106.242      142.473      250.475      154.400    20298.552    62737.564    23839.264        6.159        5.344       71.078      190.228        7.163      347.699       26.855      857.770
06/15/2013  15:13:00       65.050      115.339      141.326       86.379      134.933       87.291     7461.268    18206.879     7619.714        3.539        1.664      132.418       98.085        0.549      347.670       26.807      857.719
06/15/2013  15:14:00      -17.374       -4.978       47.396       62.719       92.442       49.662     3933.714     8545.436     2466.347        0.876        0.747       18.073       60.309       11.135      347.975       27.333      857.766
06/15/2013  15:15:00       82.703     -189.433       -2.887      149.824      116.986       62.263    22447.099    13685.820     3876.645        4.136        2.000      206.700       55.128        0.071      347.800       27.030      857.781
06/15/2013  15:16:00     -156.882      -26.857       12.007      125.006      102.866       59.932    15626.401    10581.389     3591.845        2.763        1.490      159.165       66.290        0.173      348.063       27.484      857.796
06/15/2013  15:17:00      -97.258      -16.116       22.489      103.259       68.376       49.574    10662.412     4675.286     2457.533        1.401        0.890       98.584       54.178        0.302      347.890       27.187      857.787
06/15/2013  15:18:00     -146.826      -50.228        0.223       61.750       72.566       45.954     3813.090     5265.830     2111.808        1.763        0.560      155.179       26.562        0.029      347.663       26.794      857.765
06/15/2013  15:19:00      -67.489     -108.241       -4.530       46.644       37.032       24.657     2175.702     1371.402      607.956        1.022        0.208      127.557       22.550        0.031      347.395       26.335      857.759
06/15/2013  15:20:00      -33.606      -26.649       14.420       52.628       58.402       30.207     2769.739     3410.847      912.451        0.457        0.355       42.890       29.854        0.484      347.858       27.131      857.747
06/15/2013  15:21:00       -8.661      -27.955       13.155       38.070       34.306       23.642     1449.358     1176.912      558.945        0.211        0.159       29.266       21.114        0.520      348.065       27.489      857.751
06/15/2013  15:22:00       84.308     -131.562      -15.267       70.494       64.926       42.888     4969.433     4215.448     1839.385        1.783        0.551      156.257       30.896        0.039      347.689       26.840      857.772
06/15/2013  15:23:00      100.717     -102.415       33.589       97.674      137.829       79.687     9540.258    18996.841     6349.989        2.832        1.744      143.641       91.924        0.410      347.690       26.840      857.770
06/15/2013  15:24:00      -27.178     -139.072        3.271      164.749       63.731       46.802    27142.281     4061.614     2190.464        2.674        1.670      141.703       49.244        0.121      347.704       26.865      857.794
06/15/2013  15:25:00     -255.988     -148.211      -19.147      118.392       67.754       33.906    14016.604     4590.640     1149.595        5.381        0.988      295.798       40.102        0.018      347.214       26.017      857.813
06/15/2013  15:26:00     -136.093     -106.113       -6.767      107.434       65.413       50.471    11542.126     4278.887     2547.333        2.409        0.918      172.572       56.006        0.105      347.540       26.580      857.804
06/15/2013  15:27:00     -172.344     -129.228       -7.185       92.692       83.082       50.022     8591.892     6902.651     2502.209        3.222        0.900      215.412       50.730        0.055      347.451       26.428      857.786
06/15/2013  15:28:00     -212.915      -70.218      -17.748       67.238       46.109       39.080     4521.010     2126.019     1527.231        2.937        0.409      224.195       36.653        0.027      347.622       26.720      857.776
06/15/2013  15:29:00     -237.536     -143.062       -8.969      111.663      117.768       57.522    12468.614    13869.405     3308.828        5.330        1.482      277.291       55.386        0.040      347.865       27.141      857.764
06/15/2013  15:30:00      -70.336      -24.173       24.884       81.079       61.583       45.144     6573.860     3792.410     2037.948        0.927        0.620       74.373       50.960        0.469      348.258       27.821      857.772
06/15/2013  15:31:00     -218.995       25.041      -10.744      127.497       57.747       50.465    16255.572     3334.767     2546.755        3.541        1.107      220.422       59.718        0.073      347.990       27.357      857.814
06/15/2013  15:32:00     -216.071      -78.086      -17.011      132.236       97.134       76.525    17486.437     9434.933     5856.107        4.292        1.639      229.748       75.139        0.107      348.026       27.420      857.820
06/15/2013  15:33:00      -84.132      -29.462       10.536      111.982       89.845       61.090    12540.043     8072.187     3732.013        1.620        1.217       89.142       53.161        0.356      347.997       27.372      857.817
06/15/2013  15:34:00     -196.415       65.144       -9.302      109.217       86.769       57.695    11928.258     7528.807     3328.679        3.284        1.139      206.936       45.629        0.049      348.096       27.541      857.790
06/15/2013  15:35:00     -315.455       96.197      -51.047       86.832       76.218       41.659     7539.846     5809.131     1735.445        6.322        0.754      329.796       26.955        0.007      348.004       27.380      857.785
06/15/2013  15:36:00     -258.151       39.796      -33.926      137.599      155.385       61.695    18933.561    24144.587     3806.275        5.812        2.344      261.200       49.173        0.035      347.899       27.200      857.788
06/15/2013  15:37:00     -142.403      129.878       -9.941      100.589       77.025       59.324    10118.213     5932.893     3519.347        2.840        0.979      192.735       54.687        0.081      347.892       27.188      857.794
06/15/2013  15:38:00       -9.428       92.216       19.270       39.118       58.841       40.604     1530.197     3462.229     1648.702        0.780        0.332       92.697       32.446        0.123      348.055       27.470      857.787
06/15/2013  15:39:00      -50.434       85.431       10.766       80.544       71.053       52.535     6487.377     5048.587     2759.969        1.212        0.715       99.207       44.100        0.198      347.931       27.257      857.785
06/15/2013  15:40:00     -139.019      145.021      -18.395       87.907      100.225       49.900     7727.614    10045.038     2489.979        3.047        1.013      200.891       49.624        0.061      347.775       26.986      857.775
06/15/2013  15:41:00     -192.282      146.373      -55.436       77.750       83.711       55.392     6045.110     7007.462     3068.226        3.879        0.806      241.656       38.533        0.025      347.758       26.956      857.768
06/15/2013  15:42:00      -26.656      112.145        9.093       88.176      103.271       58.252     7775.055    10664.907     3393.346        1.760        1.092      115.269       53.130        0.212      347.859       27.132      857.745
06/15/2013  15:43:00     -105.314      110.517       -2.880       87.984       74.124       50.677     7741.216     5494.395     2568.115        1.956        0.790      152.660       44.884        0.086      348.087       27.527      857.737
06/15/2013  15:44:00     -108.583      163.995      -23.038       90.420       96.037       46.736     8175.768     9223.024     2184.224        2.940        0.979      196.684       59.566        0.092      347.929       27.253      857.760
06/15/2013  15:45:00      -34.730      208.755       -3.447       88.734      128.855       66.219     7873.796    16603.638     4384.944        3.682        1.443      211.625       66.442        0.099      347.837       27.095      857.740
06/15/2013  15:46:00     -117.212      255.351       -7.834       93.949      114.006       66.246     8826.344    12997.374     4388.514        5.260        1.311      280.968       64.686        0.053      347.902       27.203      857.711
06/15/2013  15:47:00     -159.966      211.238      -27.233      116.243      143.887       68.551    13512.370    20703.416     4699.301        5.493        1.946      264.973       75.504        0.081      347.982       27.344      857.706
06/15/2013  15:48:00     -179.820      -87.870       -8.851      118.689       89.283       59.491    14087.031     7971.435     3539.149        3.286        1.280      200.141       53.404        0.071      348.311       27.912      857.702
06/15/2013  15:49:00     -131.485      -79.802       -5.403      126.938       92.128       54.679    16113.319     8487.569     2989.753        2.563        1.380      153.807       51.144        0.111      348.127       27.595      857.711
06/15/2013  15:50:00     -257.890     -221.561       13.781      177.343      163.220       92.339    31450.675    26640.848     8526.482        9.119        3.331      339.995      102.101        0.090      347.913       27.223      857.665
06/15/2013  15:51:00     -353.776     -111.215        2.002      209.860      153.805       90.330    44041.184    23656.123     8159.555       10.668        3.793      370.845       97.814        0.070      347.968       27.318      857.648
06/15/2013  15:52:00     -388.431     -143.331      -17.737      210.208      175.993       95.519    44187.518    30973.463     9123.955       12.799        4.214      414.032      109.915        0.070      347.977       27.333      857.668
06/15/2013  15:53:00     -226.965      -90.144        4.636      207.073      140.150       85.335    42879.379    19642.068     7282.039        6.472        3.490      244.211       93.218        0.146      348.098       27.545      857.680
06/15/2013  15:54:00     -443.015     -100.019      -32.492      212.036      163.182       82.843    44959.163    26628.371     6863.038       14.287        3.923      454.165       94.418        0.043      347.860       27.132      857.685
06/15/2013  15:55:00     -503.434     -105.821      -28.953      170.590      135.858       79.906    29101.105    18457.464     6384.973       15.970        2.697      514.436       84.964        0.027      347.794       27.018      857.668
06/15/2013  15:56:00     -450.353     -107.578      -13.159      169.421      110.951       60.142    28703.379    12310.178     3617.010       12.959        2.232      463.024       64.382        0.019      347.857       27.125      857.668
06/15/2013  15:57:00     -390.654      -88.097      -14.168      185.338      154.150       84.823    34350.077    23762.168     7194.989       11.293        3.265      400.464       97.491        0.059      348.022       27.412      857.666
06/15/2013  15:58:00     -543.186     -126.676        1.449      212.694      177.102       94.356    45238.678    31365.152     8903.081       19.829        4.275      557.762      108.617        0.038      347.873       27.154      857.670
06/15/2013  15:59:00     -468.334      -66.038      -12.985      166.154      162.044       78.712    27607.210    26258.165     6195.619       14.195        3.003      472.967       72.517        0.024      347.855       27.123      857.696
06/15/2013  16:00:00     -357.115      -97.129      -28.348      170.963      161.788       87.413    29228.201    26175.514     7640.951       10.039        3.152      370.088       86.043        0.054      347.966       27.316      857.673
06/15/2013  16:01:00     -581.567       -8.415      -56.169      173.002      163.212       89.269    29929.840    26638.003     7968.914       20.298        3.227      581.628       89.843        0.024      347.643       26.756      857.683
06/15/2013  16:02:00     -307.732     -123.902       -9.214      216.812      165.619       94.049    47007.401    27429.714     8845.157        9.669        4.164      331.739      117.012        0.124      347.927       27.247      857.673
06/15/2013  16:03:00     -480.780     -185.487       -3.588      144.783      118.466       70.619    20962.109    14034.122     4987.068       15.277        1.999      515.320       76.788        0.022      347.713       26.878      857.697
06/15/2013  16:04:00     -242.813     -117.422      -10.773      152.326      112.961       59.531    23203.260    12760.118     3543.901        5.618        1.975      269.715       51.559        0.037      347.596       26.676      857.722
06/15/2013  16:05:00     -151.757     -176.673       -1.004      120.259      132.670       52.145    14462.215    17601.215     2719.124        4.451        1.739      232.902       52.533        0.051      347.741       26.928      857.685
06/15/2013  16:06:00     -144.208      -69.108        2.977      111.050      114.954       53.561    12332.014    13214.535     2868.773        2.699        1.421      159.912       62.191        0.151      347.853       27.122      857.669
06/15/2013  16:07:00     -353.551     -209.269      -10.834      179.518      119.965       78.453    32226.727    14391.619     6154.922       11.083        2.639      410.842       91.447        0.050      347.814       27.052      857.658
06/15/2013  16:08:00     -156.915      -53.708        7.030      154.682       87.066       65.010    23926.605     7580.524     4226.327        3.164        1.787      165.852       80.291        0.234      348.139       27.615      857.665
06/15/2013  16:09:00      -99.628     -101.211        2.299      109.828      122.447       54.003    12062.236    14993.274     2916.337        2.507        1.499      142.019       30.993        0.048      348.113       27.570      857.655
06/15/2013  16:10:00     -180.612     -111.513        3.840      171.183      117.784       68.751    29303.514    13873.060     4726.639        4.648        2.395      212.264       93.126        0.192      347.997       27.369      857.635
06/15/2013  16:11:00     -229.160     -158.064        7.305      140.383       93.194       63.307    19707.404     8685.159     4007.812        5.497        1.620      278.386       72.283        0.067      347.858       27.129      857.642
06/15/2013  16:12:00     -327.825     -247.862       -0.907      191.630      131.863       89.404    36722.024    17387.734     7993.021       11.549        3.105      410.980      102.317        0.062      347.875       27.158      857.660
06/15/2013  16:13:00     -267.719     -237.298        3.643      196.823      137.383       99.907    38739.303    18874.122     9981.381        9.778        3.380      357.749      111.815        0.098      347.801       27.030      857.621
06/15/2013  16:14:00     -372.348     -149.470      -21.993      178.380      107.690       66.345    31819.572    11597.158     4401.640       10.463        2.391      401.229       87.976        0.048      347.911       27.221      857.626
06/15/2013  16:15:00     -393.640     -132.841      -13.121      248.566      238.219       99.104    61785.012    56748.412     9821.622       15.054        6.418      415.451      103.971        0.063      347.981       27.341      857.631
06/15/2013  16:16:00     -487.564     -141.476      -13.441      189.642      135.024       82.499    35964.198    18231.448     6806.041       15.945        3.050      507.676       89.657        0.031      347.723       26.895      857.630
06/15/2013  16:17:00     -311.089      -82.245      -30.727      148.440      131.842       74.275    22034.513    17382.356     5516.789        7.470        2.247      321.778       80.564        0.063      347.793       27.015      857.651
06/15/2013  16:18:00     -346.798      -39.850       -0.316      171.803      167.040       78.602    29516.126    27902.287     6178.330        9.271        3.180      349.080       88.861        0.065      347.820       27.062      857.609
06/15/2013  16:19:00     -320.112      -67.054        0.187      192.645      141.896       96.428    37112.287    20134.444     9298.287        8.674        3.327      327.059      105.360        0.104      347.898       27.198      857.591
06/15/2013  16:20:00     -193.733     -120.527        8.581      151.661      123.487       67.416    23001.032    15248.989     4544.953        4.746        2.140      228.165       84.371        0.137      347.856       27.126      857.600
06/15/2013  16:21:00     -392.188      -23.326      -27.740      220.546      188.429       81.094    48640.715    35505.587     6576.244       12.291        4.536      392.881       85.991        0.048      347.877       27.162      857.604
06/15/2013  16:22:00     -420.402       -9.071      -27.598      150.389      102.930       75.117    22616.832    10594.597     5642.632       10.821        1.943      420.500       72.040        0.029      347.815       27.055      857.596
06/15/2013  16:23:00     -362.133       73.523      -12.403      242.749      140.581      100.204    58927.308    19762.969    10040.820       11.270        4.437      369.521      105.357        0.081      348.000       27.375      857.562
06/15/2013  16:24:00     -382.947     -212.759      -12.596      245.000      178.688       77.367    60024.810    31929.538     5985.642       14.499        4.897      438.081       95.778        0.048      347.951       27.288      857.586
06/15/2013  16:25:00     -236.378     -125.658       -1.578      191.651      153.895       80.083    36730.173    23683.673     6413.349        6.923        3.341      267.703       98.378        0.135      348.025       27.417      857.606
06/15/2013  16:26:00     -210.705     -142.213       -2.637      104.369      100.796       52.414    10892.843    10159.881     2747.214        4.421        1.190      254.207       54.833        0.047      347.987       27.350      857.626
06/15/2013  16:27:00     -254.260      -29.015       -8.489      135.108       93.552       59.238    18254.065     8752.060     3509.162        4.803        1.526      255.910       56.229        0.048      348.109       27.562      857.630
06/15/2013  16:28:00     -261.685      -29.243      -14.454      135.305       93.622       56.744    18307.546     8765.008     3219.866        4.991        1.515      263.314       63.872        0.059      347.720       26.890      857.623
06/15/2013  16:29:00     -319.109     -109.348       -2.223      160.136      117.797       62.729    25643.530    13876.198     3934.948        7.861        2.173      337.324       56.495        0.028      347.879       27.165      857.580
06/15/2013  16:30:00     -428.169     -378.820      -22.181      215.348      183.260      117.694    46374.974    33584.308    13851.924       21.055        4.691      571.693      121.788        0.045      347.666       26.797      857.589
06/15/2013  16:31:00     -417.482     -298.716        8.244      180.776      163.675      106.049    32680.028    26789.478    11246.476       16.714        3.536      513.344      111.902        0.048      347.497       26.506      857.591
06/15/2013  16:32:00     -331.822     -269.203       -1.662      166.487      150.168       88.914    27718.016    22550.563     7905.637       12.036        2.909      427.289       88.317        0.043      347.646       26.762      857.587
06/15/2013  16:33:00     -315.822     -266.276      -19.125      163.631      168.031       80.261    26774.998    28234.334     6441.895       11.622        3.073      413.094       86.578        0.044      347.819       27.060      857.589
06/15/2013  16:34:00     -275.906     -128.950        0.813      177.381      114.063       68.871    31464.178    13010.468     4743.166        7.098        2.461      304.552       86.361        0.080      347.996       27.369      857.614
06/15/2013  16:35:00     -321.537      -37.911        0.276      199.749      189.225       69.241    39899.606    35806.129     4794.384        9.265        4.025      323.764       81.532        0.063      348.270       27.840      857.618
06/15/2013  16:36:00     -374.271     -153.461       -1.104      280.512      128.786       92.719    78687.089    16585.956     8596.881       13.373        5.193      404.511      112.468        0.077      347.900       27.200      857.633
06/15/2013  16:37:00     -335.217     -280.571        1.683      207.682      165.941       99.798    43131.701    27536.465     9959.694       13.584        4.031      437.139      111.318        0.065      347.579       26.646      857.631
06/15/2013  16:38:00     -311.292     -281.807       -5.262      202.456      145.457       90.506    40988.379    21157.719     8191.413       12.333        3.517      419.902       94.150        0.050      347.601       26.685      857.623
06/15/2013  16:39:00      -70.614     -155.328       13.636      163.449      136.541       82.549    26715.599    18643.332     6814.304        4.073        2.609      170.625       98.465        0.333      347.924       27.244      857.614
06/15/2013  16:40:00     -254.181     -201.876       -4.947      154.481      125.870       76.504    23864.478    15843.372     5852.894        7.546        2.278      324.595       68.038        0.044      347.951       27.289      857.619
06/15/2013  16:41:00     -382.473     -236.454       -6.995      215.063      156.384       93.210    46251.955    24456.045     8688.112       14.080        3.970      449.663      105.062        0.055      347.590       26.666      857.634
06/15/2013  16:42:00     -263.873     -195.808        4.413      152.887      159.891       85.142    23374.521    25564.989     7249.103        8.208        2.809      328.587       87.942        0.072      347.872       27.153      857.640
06/15/2013  16:43:00     -217.432      -51.741        5.093      155.325      169.870       70.079    24125.741    28855.864     4911.117        5.392        2.895      223.504       78.553        0.124      347.978       27.336      857.649
06/15/2013  16:44:00     -284.537       11.699      -19.896      141.412      114.473       71.495    19997.449    13104.049     5111.470        5.985        1.911      284.777       65.774        0.053      347.988       27.353      857.631
06/15/2013  16:45:00     -430.777      -78.417       -9.664      233.368      137.680       78.785    54460.672    18955.775     6206.999       13.570        3.981      437.856       97.291        0.049      347.888       27.180      857.607
06/15/2013  16:46:00     -404.281     -198.830      -13.827      199.470      160.832       82.973    39788.382    25866.833     6884.515       13.784        3.627      450.529       99.706        0.049      347.651       26.772      857.606
06/15/2013  16:47:00     -279.433     -107.200      -16.482      121.827      124.353       65.881    14841.885    15463.726     4340.263        6.224        1.732      299.290       62.271        0.043      347.744       26.931      857.596
06/15/2013  16:48:00     -286.428     -181.025       -9.149      170.952      126.907       80.180    29224.472    16105.345     6428.833        8.332        2.588      338.837       87.500        0.067      347.922       27.239      857.589
06/15/2013  16:49:00     -194.062        6.463       18.838      144.953      145.240       65.689    21011.267    21094.567     4315.052        4.223        2.321      194.170       58.697        0.091      348.040       27.443      857.585
06/15/2013  16:50:00     -296.556     -270.139        1.364      161.958      151.294       74.425    26230.448    22890.014     5539.014       10.778        2.733      401.149       79.541        0.039      347.863       27.137      857.581
06/15/2013  16:51:00     -403.869     -183.395      -17.160      169.091      178.946       79.579    28591.787    32021.610     6332.817       13.198        3.347      443.559       73.835        0.028      347.916       27.229      857.598
06/15/2013  16:52:00     -345.361      -98.333      -12.283      153.989      153.827       76.021    23712.735    23662.658     5779.236        9.111        2.658      359.087       80.233        0.050      347.914       27.225      857.634
06/15/2013  16:53:00     -418.930       -4.372       -8.570      180.248      166.537       83.277    32489.366    27734.647     6935.000       12.136        3.358      418.953       76.478        0.033      347.941       27.270      857.641
06/15/2013  16:54:00     -450.936      -67.714      -52.786      148.109      150.803       65.984    21936.155    22741.472     4353.951       12.986        2.452      455.992       60.585        0.018      347.870       27.148      857.636
06/15/2013  16:55:00     -412.213      -71.984      -19.079      133.921      127.208       70.116    17934.809    16181.807     4916.286       10.724        1.952      418.451       65.836        0.025      347.816       27.055      857.637
06/15/2013  16:56:00     -200.979      -37.076       21.700      225.629      124.336       84.934    50908.477    15459.517     7213.731        5.790        3.679      204.370      110.483        0.292      347.966       27.317      857.639
06/15/2013  16:57:00     -332.033       -9.584       11.095      273.201      143.175       90.878    74638.763    20499.064     8258.899       10.691        5.170      332.171      123.352        0.138      348.046       27.456      857.645
06/15/2013  16:58:00     -306.873       -7.943       -2.908      240.974      142.621       80.475    58068.660    20340.714     6476.158        8.955        4.244      306.976      105.519        0.118      347.968       27.318      857.643
06/15/2013  16:59:00     -415.043      101.147      -31.372      152.400      122.742       65.912    23225.667    15065.701     4344.423       11.305        2.132      427.190       62.003        0.021      347.742       26.928      857.661
06/15/2013  17:00:00     -240.800       32.950        1.323      161.896      111.051       59.406    26210.426    12332.324     3529.063        5.056        2.104      243.044       71.766        0.087      347.962       27.308      857.655
06/15/2013  17:01:00     -145.834     -130.863        2.723      117.072       92.402       62.627    13705.868     8538.196     3922.140        3.228        1.308      195.940       66.514        0.115      347.816       27.055      857.641
06/15/2013  17:02:00     -182.704      -48.528      -18.363      136.601       85.165       54.870    18659.851     7252.998     3010.681        3.249        1.446      189.039       53.883        0.081      348.079       27.510      857.646
06/15/2013  17:03:00     -195.052      -92.422        0.966      226.507      134.109       60.477    51305.199    17985.096     3657.525        5.975        3.647      215.840       83.393        0.149      348.192       27.708      857.649
06/15/2013  17:04:00     -258.314     -157.541       28.045      275.333      159.203      114.987    75808.194    25345.745    13222.050       10.333        5.719      302.565      137.428        0.206      347.783       27.000      857.650
06/15/2013  17:05:00     -347.751     -153.984      -17.448      204.173      145.194       89.222    41686.614    21081.436     7960.624       10.782        3.536      380.318       86.002        0.051      347.720       26.891      857.654
06/15/2013  17:06:00     -277.399      -64.525        2.184      209.225      155.988       86.409    43775.164    24332.101     7466.532        7.833        3.779      284.805      111.768        0.154      347.826       27.074      857.656
06/15/2013  17:07:00     -340.521     -125.671      -13.342      184.591      121.600       80.180    34073.695    14786.578     6428.817        9.360        2.764      362.970       93.001        0.066      347.690       26.837      857.651
06/15/2013  17:08:00     -321.100     -180.429        6.550      229.610      152.857       93.650    52720.638    23365.407     8770.401       11.026        4.243      368.320      115.374        0.098      347.649       26.768      857.628
06/15/2013  17:09:00     -389.496      -94.820      -36.371      145.554      136.085       70.684    21186.009    18519.135     4996.240       10.335        2.235      400.871       73.899        0.034      347.614       26.707      857.640
06/15/2013  17:10:00     -270.064      -89.474      -10.967      193.973      184.252       87.047    37625.656    33948.854     7577.154        8.009        3.958      284.500      100.257        0.124      347.717       26.887      857.643
06/15/2013  17:11:00     -429.602     -241.517      -15.406      236.459      152.530       99.016    55912.882    23265.291     9804.108       16.604        4.449      492.837      113.710        0.053      347.577       26.644      857.624
06/15/2013  17:12:00     -315.797     -226.788       -5.817      213.884      180.777      106.638    45746.404    32680.208    11371.682       12.048        4.490      388.793      115.263        0.088      347.600       26.683      857.626
06/15/2013  17:13:00     -133.384     -103.684       11.665      198.142      153.982       95.628    39260.110    23710.522     9144.790        5.038        3.606      168.943       94.021        0.310      347.817       27.060      857.653
06/15/2013  17:14:00     -209.105      -19.021       -0.691      143.074      128.275       57.461    20470.144    16454.591     3301.815        4.215        2.011      209.968       60.387        0.083      347.829       27.078      857.658
06/15/2013  17:15:00     -410.988      -58.859      -15.896      224.818      169.846       89.436    50543.073    28847.803     7998.858       12.999        4.369      415.181      105.973        0.065      347.727       26.903      857.653
06/15/2013  17:16:00     -460.657      -67.246      -22.627      221.951      172.427       91.096    49262.194    29730.984     8298.499       15.225        4.365      465.539      103.707        0.050      347.596       26.676      857.627
06/15/2013  17:17:00     -406.132     -113.643      -24.441      231.202      133.648       95.685    53454.568    17861.832     9155.645       12.945        4.024      421.732      120.761        0.082      347.674       26.811      857.631
06/15/2013  17:18:00     -252.044     -171.779        1.859      163.299      139.485       81.726    26666.410    19456.187     6679.204        7.291        2.640      305.015       93.713        0.094      347.692       26.843      857.659
06/15/2013  17:19:00     -312.130      -75.270      -29.439      213.977      126.056       69.546    45786.235    15890.134     4836.716        8.522        3.326      321.077       77.813        0.059      347.600       26.683      857.614
06/15/2013  17:20:00     -164.779      -43.662       -4.666      166.187      101.452       69.544    27618.007    10292.536     4836.399        3.590        2.137      170.465       83.385        0.239      347.900       27.202      857.624
06/15/2013  17:21:00     -307.182      -92.807        7.325      146.807      158.023       73.165    21552.304    24971.298     5353.091        7.744        2.594      320.895       70.580        0.048      347.858       27.128      857.638
06/15/2013  17:22:00     -376.919     -128.666       -0.025      216.897      153.928       88.664    47044.439    23693.939     7861.309       11.860        3.930      398.275      101.478        0.065      347.719       26.890      857.653
06/15/2013  17:23:00     -357.115     -259.973       11.070      256.406      183.673      116.966    65744.273    33735.597    13681.152       15.418        5.658      441.721      128.796        0.085      347.503       26.516      857.650
06/15/2013  17:24:00     -364.611     -145.005       -5.335      226.875      157.436      100.007    51472.321    24785.998    10001.465       12.011        4.313      392.387      112.212        0.082      347.533       26.568      857.655
06/15/2013  17:25:00     -306.021      -57.475      -19.773      133.852      116.033       71.340    17916.368    13463.590     5089.432        6.690        1.823      311.372       67.075        0.046      347.675       26.810      857.668
06/15/2013  17:26:00     -273.247      -67.112       -5.804      136.766      130.202       62.373    18704.861    16952.515     3890.435        5.937        1.977      281.368       51.911        0.034      347.726       26.900      857.663
06/15/2013  17:27:00     -359.947      -52.195        8.110      175.033      144.887       86.524    30636.473    20992.327     7486.324        9.572        2.956      363.712       89.652        0.061      347.675       26.811      857.649
06/15/2013  17:28:00     -401.070     -232.633      -20.649      208.199      145.382       85.472    43346.827    21135.973     7305.545       14.358        3.589      463.654       91.313        0.039      347.601       26.685      857.647
06/15/2013  17:29:00     -512.299     -267.178      -13.245      221.065      177.435      100.286    48869.663    31483.257    10057.256       21.219        4.521      577.784      105.247        0.033      347.399       26.336      857.673
06/15/2013  17:30:00     -412.237     -224.896      -16.854      230.208      158.226       96.925    52995.894    25035.500     9394.488       15.410        4.371      469.593      106.892        0.052      347.430       26.389      857.678
06/15/2013  17:31:00     -353.051     -132.283      -10.334      195.988      161.808      101.174    38411.432    26181.907    10236.099       10.853        3.741      377.020      103.283        0.075      347.489       26.491      857.668
06/15/2013  17:32:00     -561.453     -128.797      -37.175      209.595      219.925      100.179    43930.225    48366.791    10035.837       21.775        5.117      576.037       89.615        0.024      347.395       26.328      857.666
06/15/2013  17:33:00     -238.909     -104.119        3.983      208.798      126.284       93.460    43596.708    15947.610     8734.766        6.809        3.414      260.611      109.802        0.178      347.617       26.713      857.682
06/15/2013  17:34:00     -295.196     -140.515      -15.750      224.110      168.089       90.274    50225.198    28253.766     8149.478        9.686        4.331      326.933       96.473        0.087      347.584       26.657      857.687
06/15/2013  17:35:00     -487.033     -151.762      -20.955      188.421      180.568       87.767    35502.543    32604.701     7703.003       16.823        3.791      510.130       86.645        0.029      347.505       26.521      857.684
06/15/2013  17:36:00     -418.590      -35.497      -16.630      178.907      155.340       79.378    32007.647    24130.412     6300.893       11.958        3.122      420.092       86.605        0.043      347.548       26.592      857.689
06/15/2013  17:37:00     -466.545      -81.071      -21.661      194.716      180.629       76.264    37914.313    32626.846     5816.159       15.052        3.818      473.537       86.654        0.033      347.422       26.375      857.686
06/15/2013  17:38:00     -342.575     -169.025       -3.992      204.565      127.330       85.638    41846.957    16212.815     7333.858       10.565        3.270      382.003       75.934        0.040      347.378       26.301      857.682
06/15/2013  17:39:00     -404.692     -174.408        1.428      210.988      181.606      102.842    44515.799    32980.593    10576.424       14.112        4.404      440.674      119.744        0.074      347.354       26.259      857.678
06/15/2013  17:40:00     -382.418      -91.844      -19.419      217.804      168.146      101.589    47438.620    28272.954    10320.321       12.053        4.302      393.293      111.244        0.080      347.428       26.386      857.682
06/15/2013  17:41:00     -388.682     -190.841       -3.757      224.480      188.342       87.857    50391.239    35472.567     7718.933       14.053        4.679      433.006      112.308        0.067      347.424       26.380      857.677
06/15/2013  17:42:00     -379.024       34.030      -19.512      186.427      141.580       75.898    34755.159    20044.834     5760.481       10.287        3.028      380.548       70.251        0.034      347.524       26.552      857.669
06/15/2013  17:43:00     -199.648      -21.404       22.267      133.970      108.027       69.137    17947.997    11669.759     4779.963        3.760        1.720      200.792       74.487        0.138      347.709       26.873      857.675
06/15/2013  17:44:00     -176.432      -93.333       24.671      171.667      114.178       67.034    29469.430    13036.650     4493.600        4.371        2.350      199.598       80.093        0.161      347.518       26.543      857.671
06/15/2013  17:45:00     -163.478      -54.585        6.502      156.502      107.580       54.055    24493.009    11573.364     2921.994        3.436        1.949      172.350       56.364        0.107      347.715       26.884      857.666
06/15/2013  17:46:00     -454.017      -99.830      -10.771      258.239      138.201       85.924    66687.335    19099.439     7382.911       15.467        4.658      464.863      101.529        0.048      347.499       26.508      857.648
06/15/2013  17:47:00     -421.679     -160.788      -10.869      171.448      130.312       85.218    29394.392    16981.155     7262.034       12.870        2.682      451.293       78.373        0.030      347.392       26.325      857.643
06/15/2013  17:48:00     -262.059     -115.349      -11.285      227.714      211.731       99.231    51853.536    44829.833     9846.858        9.430        5.327      286.322      100.504        0.123      347.474       26.465      857.666
06/15/2013  17:49:00     -483.080     -127.488      -25.723      222.303      221.760      101.864    49418.650    49177.358    10376.280       17.960        5.449      499.620      113.845        0.052      347.471       26.461      857.664
06/15/2013  17:50:00     -434.608     -189.695      -19.528      187.476      177.236       95.256    35147.268    31412.440     9073.683       15.043        3.782      474.203      101.142        0.045      347.387       26.314      857.686
06/15/2013  17:51:00     -353.900      -91.922       -3.560      222.884      113.133       78.411    49677.249    12799.153     6148.217       10.115        3.431      365.643       86.108        0.055      347.379       26.303      857.708
06/15/2013  17:52:00     -285.052     -157.700        4.103      168.088      125.157       88.986    28253.529    15664.165     7918.460        7.898        2.592      325.767       94.566        0.084      347.350       26.251      857.711
06/15/2013  17:53:00     -361.376     -224.848      -26.052      195.124      171.923       79.479    38073.241    29557.598     6316.924       12.787        3.697      425.616       78.602        0.034      347.353       26.257      857.713
06/15/2013  17:54:00     -443.957     -144.668      -11.769      227.909      158.246      102.177    51942.399    25041.822    10440.241       15.278        4.371      466.933      110.506        0.056      347.349       26.249      857.692
06/15/2013  17:55:00     -333.339     -187.428      -14.393      185.117      145.828       78.735    34268.168    21265.751     6199.235       10.408        3.087      382.419       78.328        0.042      347.377       26.299      857.714
06/15/2013  17:56:00     -418.406     -180.944      -18.722      185.504      169.062       84.288    34411.712    28581.870     7104.394       13.911        3.505      455.855       94.717        0.043      347.312       26.185      857.711
06/15/2013  17:57:00     -230.540     -137.289       10.764      183.302      150.321       90.992    33599.752    22596.518     8279.624        6.828        3.224      268.322       98.136        0.134      347.400       26.338      857.714
06/15/2013  17:58:00     -332.463     -207.385       -2.680      170.459      157.251       84.085    29056.255    24727.986     7070.364       10.719        3.043      391.842       93.780        0.057      347.308       26.181      857.700
06/15/2013  17:59:00     -274.047      -84.071       -9.687      174.811      133.601       72.673    30558.837    17849.137     5281.374        6.797        2.684      286.652       76.987        0.072      347.371       26.288      857.708
06/15/2013  18:00:00     -360.175     -255.850       -7.723      193.725      202.309      102.386    37529.358    40929.090    10482.900       14.208        4.447      441.797      104.761        0.056      347.294       26.155      857.729
06/15/2013  18:01:00     -414.160      -67.727      -33.161      179.896      218.859       74.684    32362.725    47899.361     5577.746       13.151        4.292      419.661       75.841        0.033      347.246       26.072      857.708
06/15/2013  18:02:00     -219.344     -148.165       12.106      178.831      166.946       78.224    31980.506    27871.075     6118.976        6.808        3.299      264.697       83.294        0.099      347.325       26.211      857.697
06/15/2013  18:03:00     -503.561     -309.661      -10.784      230.833      201.875      110.198    53284.013    40753.508    12143.655       22.786        5.309      591.155      119.521        0.041      347.163       25.930      857.693
06/15/2013  18:04:00     -414.297     -267.555        5.282      270.987      213.903      111.765    73433.907    45754.693    12491.321       18.744        6.584      493.181      106.519        0.047      347.107       25.833      857.674
06/15/2013  18:05:00     -430.256     -266.299      -31.159      226.211      132.238       84.667    51171.386    17486.808     7168.453       16.640        3.791      505.999       95.719        0.036      347.147       25.902      857.712
06/15/2013  18:06:00     -353.743     -212.927      -16.435      193.942      154.573       83.679    37613.548    23892.873     7002.180       11.961        3.425      412.883       86.938        0.044      347.150       25.908      857.725
06/15/2013  18:07:00     -373.095     -139.959        9.554      281.901      213.724      100.683    79468.026    45678.139    10137.015       14.705        6.764      398.482      133.485        0.112      347.157       25.920      857.715
06/15/2013  18:08:00     -565.485     -255.521      -30.635      198.884      154.400       90.451    39554.878    23839.379     8181.337       22.877        3.579      620.535      100.438        0.026      347.079       25.784      857.715
06/15/2013  18:09:00     -503.187     -199.043      -18.574      242.748      210.693      109.151    58926.355    44391.549    11914.047       20.417        5.762      541.124      119.241        0.049      347.048       25.732      857.704
06/15/2013  18:10:00     -418.663     -209.322       -9.366      260.981      177.475       96.722    68111.022    31497.435     9355.100       16.405        5.448      468.076      127.492        0.074      347.094       25.811      857.707
06/15/2013  18:11:00     -265.951     -215.065        3.378      232.726      220.494       92.361    54161.322    48617.607     8530.543       11.413        5.565      342.028      121.519        0.126      347.187       25.973      857.724
06/15/2013  18:12:00     -421.217     -224.833      -19.806      188.922      137.162       82.584    35691.595    18813.532     6820.051       14.483        3.066      477.465       83.997        0.031      347.149       25.906      857.725
06/15/2013  18:13:00     -350.955     -172.159       -0.911      163.075      161.088       78.245    26593.530    25949.314     6122.239       10.573        2.933      390.907       78.547        0.040      347.167       25.935      857.748
06/15/2013  18:14:00     -318.961     -287.929       -6.503      198.640      164.955       95.097    39457.988    27210.175     9043.386       13.018        3.786      429.697       97.396        0.051      347.084       25.794      857.708
06/15/2013  18:15:00     -318.907     -291.095       -4.444      209.239      201.181       98.619    43780.812    40473.686     9725.625       14.020        4.699      431.784      102.303        0.056      347.140       25.892      857.690
06/15/2013  18:16:00     -404.332     -156.968       -2.870      185.391      202.217       89.085    34369.757    40891.897     7936.111       13.565        4.160      433.732       97.224        0.050      347.193       25.981      857.735
06/15/2013  18:17:00     -433.671     -189.625      -19.467      211.817      234.296       93.007    44866.513    54894.775     8650.299       16.639        5.421      473.316      103.171        0.048      347.186       25.969      857.797
06/15/2013  18:18:00     -364.232      -62.059        4.407      181.211      200.482       98.675    32837.308    40193.070     9736.735       10.963        4.138      369.481       90.754        0.060      347.226       26.038      857.799
06/15/2013  18:19:00     -409.530      -41.917      -23.254      196.941      156.318       77.685    38785.852    24435.251     6034.946       11.962        3.463      411.670       82.580        0.040      347.160       25.926      857.806
06/15/2013  18:20:00     -337.200      -85.542       11.023      179.152      182.356       87.364    32095.594    33253.669     7632.384        9.705        3.649      347.881       86.746        0.062      347.195       25.985      857.787
06/15/2013  18:21:00     -301.483      -99.289        0.802      192.086      131.446       74.841    36896.842    17277.977     5601.212        8.025        2.989      317.412       79.770        0.063      347.138       25.887      857.812
06/15/2013  18:22:00     -397.987     -172.499      -20.012      179.026      121.178       80.471    32050.199    14684.052     6475.560       12.087        2.660      433.762       65.606        0.023      347.116       25.849      857.783
06/15/2013  18:23:00     -520.667     -198.606      -25.350      167.567      168.123       69.645    28078.751    28265.175     4850.419       18.618        3.060      557.259       76.902        0.019      347.007       25.662      857.791
06/15/2013  18:24:00     -157.377      -67.127       21.357      133.490      112.454       80.638    17819.461    12645.795     6502.447        3.334        1.848      171.095       83.788        0.240      347.213       26.017      857.786
06/15/2013  18:25:00     -317.697     -179.490       -9.602      156.100      138.045       68.491    24367.359    19056.504     4691.049        9.067        2.406      364.895       77.927        0.046      347.189       25.976      857.813
06/15/2013  18:26:00     -499.820     -112.228       -7.500      199.668      135.667       80.067    39867.303    18405.569     6410.711       16.356        3.234      512.264       94.840        0.034      347.113       25.845      857.847
06/15/2013  18:27:00     -336.432     -205.534      -16.140      155.639      144.923       81.430    24223.423    21002.795     6630.869       10.376        2.593      394.246       78.472        0.040      347.069       25.767      857.855
06/15/2013  18:28:00     -344.949     -165.089       -8.689      203.055      158.914       70.175    41231.188    25253.550     4924.592       10.885        3.570      382.419       65.939        0.030      347.114       25.847      857.867
06/15/2013  18:29:00     -314.734     -240.683        0.318      193.784      116.827       90.612    37552.115    13648.550     8210.614       10.819        2.971      396.214      103.471        0.068      346.984       25.621      857.864
06/15/2013  18:30:00     -464.024     -111.612       -9.477      242.903      163.725      103.429    59001.795    26806.034    10697.586       16.217        4.825      477.259      121.818        0.065      346.920       25.511      857.876
06/15/2013  18:31:00     -473.854      -48.356      -31.820      176.380      152.716       79.051    31109.749    23322.328     6249.036       14.427        3.034      476.315       85.100        0.032      347.004       25.655      857.887
06/15/2013  18:32:00     -521.358     -105.489      -16.578      187.767      162.641       92.937    35256.419    26452.255     8637.270       17.677        3.517      531.923       95.366        0.032      346.998       25.646      857.870
06/15/2013  18:33:00     -375.614      -34.819        2.210      245.814      180.617       96.056    60424.600    32622.562     9226.765       12.227        5.114      377.224      100.603        0.071      347.033       25.706      857.906
06/15/2013  18:34:00     -489.444     -159.933       -2.455      238.400      173.084       84.523    56834.635    29958.118     7144.079       17.952        4.697      514.912      112.115        0.047      346.986       25.626      857.934
06/15/2013  18:35:00     -427.412     -129.233        2.499      258.500      196.455       98.827    66822.145    38594.594     9766.748       15.726        5.759      446.522      127.440        0.081      346.931       25.531      857.978
06/15/2013  18:36:00     -279.651     -143.195      -14.614      194.428      161.975       93.122    37802.304    26235.819     8671.712        8.580        3.635      314.181      107.167        0.116      346.924       25.519      857.963
06/15/2013  18:37:00     -330.534      -37.225       -0.754      237.440      178.462       94.299    56377.689    31848.713     8892.377       10.386        4.856      332.624       91.827        0.076      346.953       25.569      857.968
06/15/2013  18:38:00     -600.834     -165.465      -21.264      207.249      148.714       86.994    42952.012    22115.791     7567.975       23.072        3.632      623.201       76.040        0.015      346.802       25.307      857.954
06/15/2013  18:39:00     -450.876     -128.122      -18.260      226.050      166.302       83.165    51098.589    27656.281     6916.442       15.284        4.284      468.726      102.099        0.047      346.823       25.343      857.981
06/15/2013  18:40:00     -340.505     -159.881       -8.742      180.864      155.939       74.638    32711.907    24316.981     5570.895       10.208        3.130      376.172       91.909        0.060      346.903       25.481      858.036
06/15/2013  18:41:00     -310.019     -200.457        7.226      257.227      184.314       98.873    66165.595    33971.475     9775.861       12.311        5.496      369.181      112.197        0.092      346.862       25.412      858.026
06/15/2013  18:42:00     -355.846     -270.798        5.659      282.655      207.896      124.847    79893.791    43220.629    15586.783       16.932        6.935      447.167      141.886        0.101      346.773       25.256      858.031
06/15/2013  18:43:00     -259.561     -170.154       23.201      187.411      182.300       98.587    35122.713    33233.222     9719.453        8.745        3.904      310.361      104.234        0.113      346.855       25.400      858.036
06/15/2013  18:44:00     -412.818     -266.405      -15.706      263.101      208.777      110.574    69221.997    43587.867    12226.674       18.331        6.252      491.315       97.686        0.040      346.742       25.204      858.033
06/15/2013  18:45:00     -317.049     -202.382       -6.875      254.390      166.335       92.023    64714.442    27667.236     8468.189       12.117        5.042      376.136      121.745        0.105      346.789       25.286      858.058
06/15/2013  18:46:00     -203.022      -50.338        3.359      245.647      120.359       88.704    60342.615    14486.329     7868.413        6.321        4.135      209.169      120.167        0.330      346.899       25.477      858.082
06/15/2013  18:47:00     -223.088     -103.579        2.373      196.810      132.912       84.116    38734.290    17665.732     7075.531        6.198        3.174      245.961       94.840        0.149      346.887       25.455      858.080
06/15/2013  18:48:00     -429.626     -119.866      -22.083      133.166      121.961       62.626    17733.296    14874.539     3922.054       11.797        1.826      446.034       43.175        0.009      346.817       25.333      858.101
06/15/2013  18:49:00     -144.952     -126.572       11.488      175.412      141.044       89.248    30769.350    19893.325     7965.131        4.788        2.931      192.436      100.818        0.274      346.910       25.495      858.084
06/15/2013  18:50:00     -263.828     -138.592        8.985      193.666      157.484       76.793    37506.668    24801.086     5897.092        7.854        3.410      298.015       92.273        0.096      346.836       25.368      858.104
06/15/2013  18:51:00     -316.503     -142.723       -8.253      221.117      172.420       78.683    48892.724    29728.774     6191.017       10.270        4.241      347.195       91.051        0.069      346.833       25.362      858.098
06/15/2013  18:52:00     -230.277     -115.674        3.384      135.317       88.540       59.258    18310.602     7839.341     3511.523        4.803        1.483      257.697       67.829        0.069      346.909       25.492      858.119
06/15/2013  18:53:00     -332.713      -56.483       -4.684      178.074      152.448       79.548    31710.507    23240.407     6327.892        8.758        3.064      337.473       79.163        0.055      346.915       25.503      858.127
06/15/2013  18:54:00     -377.351     -125.931       -2.626      175.912      146.909       80.627    30945.073    21582.152     6500.651       10.863        2.951      397.810       88.033        0.049      346.825       25.348      858.107
06/15/2013  18:55:00     -384.070     -110.103      -17.931      170.363      120.158       80.338    29023.695    14437.990     6454.223       10.492        2.496      399.540       86.912        0.047      346.784       25.277      858.142
06/15/2013  18:56:00     -272.138     -214.873       -5.543      162.991      132.885       88.396    26565.979    17658.484     7813.915        8.614        2.602      346.741       86.086        0.062      346.872       25.429      858.150
06/15/2013  18:57:00     -335.660     -238.619        1.006      196.513      146.412       94.985    38617.359    21436.594     9022.207       11.933        3.454      411.833      111.376        0.073      346.758       25.233      858.173
06/15/2013  18:58:00     -452.423     -132.787      -16.239      221.228      216.397       81.178    48941.793    46827.482     6589.787       16.245        5.118      471.507      101.920        0.047      346.704       25.139      858.152
06/15/2013  18:59:00     -436.124      -37.781       -6.948      262.055      167.232       95.102    68672.621    27966.571     9044.419       14.866        5.284      437.757      110.828        0.064      346.680       25.099      858.157
06/15/2013  19:00:00     -432.741     -265.973      -25.663      238.029      171.830       98.006    56657.793    29525.406     9605.079       17.721        4.789      507.943      114.147        0.051      346.658       25.061      858.180
06/15/2013  19:01:00     -583.732     -326.376       -5.666      346.038      213.287      125.226   119742.145    45491.523    15681.506       31.407        9.046      668.779      169.810        0.064      346.517       24.817      858.156
06/15/2013  19:02:00     -368.382     -219.772      -11.602      267.708      257.517      108.829    71667.509    66315.030    11843.813       16.695        7.491      428.958      141.670        0.109      346.549       24.873      858.170
06/15/2013  19:03:00     -384.042     -314.112      -11.437      240.899      204.144      126.434    58032.287    41674.860    15985.550       18.097        5.785      496.140      144.509        0.085      346.514       24.814      858.179
06/15/2013  19:04:00     -431.311     -132.420      -28.481      249.772      202.896      107.246    62386.294    41166.734    11501.753       15.969        5.753      451.181      117.836        0.068      346.544       24.866      858.209
06/15/2013  19:05:00     -424.017     -163.035       -3.037      276.356      192.833      107.112    76372.584    37184.746    11473.072       16.568        6.252      454.281      126.915        0.078      346.505       24.799      858.207
06/15/2013  19:06:00     -523.620     -229.260      -22.567      226.129      160.973       94.747    51134.195    25912.226     8977.035       20.662        4.301      571.610      115.299        0.041      346.497       24.784      858.207
06/15/2013  19:07:00     -359.585     -291.780      -10.871      200.257      193.241      112.409    40102.854    37341.981    12635.846       15.230        4.504      463.073      117.122        0.064      346.546       24.868      858.243
06/15/2013  19:08:00     -473.319     -280.724      -13.768      195.050      212.076      113.140    38044.549    44976.126    12800.633       19.940        4.791      550.306       94.731        0.030      346.475       24.747      858.250
06/15/2013  19:09:00     -388.594     -221.525      -10.986      233.169      222.491      114.326    54367.707    49502.176    13070.388       15.855        5.847      447.301      119.657        0.072      346.494       24.779      858.274
06/15/2013  19:10:00     -532.220     -150.161      -32.844      211.287      180.658      106.997    44642.211    32637.165    11448.296       19.779        4.436      552.997      110.486        0.040      346.445       24.694      858.313
06/15/2013  19:11:00     -435.575     -247.953      -26.907      238.800      213.085       81.390    57025.558    45405.392     6624.306       18.047        5.453      501.205      110.228        0.048      346.459       24.719      858.343
06/15/2013  19:12:00     -446.133     -407.243      -34.251      208.288      210.836      120.267    43383.761    44451.897    14464.253       23.416        5.115      604.054      116.853        0.037      346.371       24.568      858.323
06/15/2013  19:13:00     -499.016     -194.905      -13.002      227.414      221.783      115.428    51716.986    49187.866    13323.636       20.068        5.711      535.729      137.338        0.066      346.333       24.502      858.315
06/15/2013  19:14:00     -299.841     -285.136        8.583      210.373      174.637      103.629    44256.792    30497.937    10739.039       12.837        4.275      413.772      108.880        0.069      346.398       24.612      858.336
06/15/2013  19:15:00     -478.231     -187.855       -7.724      275.571      149.681       94.871    75939.383    22404.295     9000.456       18.568        5.367      513.804      114.367        0.050      346.323       24.485      858.371
06/15/2013  19:16:00     -583.967     -352.296      -29.371      296.229      192.023      100.559    87751.687    36872.648    10112.113       30.034        6.737      682.004      122.927        0.032      346.298       24.443      858.375
06/15/2013  19:17:00     -370.366     -207.418        9.667      239.691      181.628       98.228    57451.775    32988.862     9648.759       14.017        5.004      424.492      123.859        0.085      346.309       24.461      858.403
06/15/2013  19:18:00     -314.310     -149.092       -5.851      189.498      141.006       78.937    35909.344    19882.740     6231.025        9.153        3.101      347.878       90.373        0.067      346.321       24.479      858.446
06/15/2013  19:19:00     -536.827     -293.288      -17.242      288.083      217.780      102.329    82991.553    47428.131    10471.156       25.767        7.045      611.720      109.493        0.032      346.198       24.268      858.447
06/15/2013  19:20:00     -538.460     -341.693       -8.972      290.053      218.649      116.326    84130.511    47807.577    13531.661       27.609        7.273      637.725      133.187        0.044      346.190       24.255      858.448
06/15/2013  19:21:00     -502.592     -325.429       -9.796      211.800      175.122       95.089    44859.132    30667.726     9041.941       22.157        4.228      598.751       87.496        0.021      346.175       24.230      858.468
06/15/2013  19:22:00     -419.318     -243.597      -12.967      231.138      207.979       96.181    53424.688    43255.107     9250.859       17.061        5.297      484.940      115.668        0.057      346.179       24.235      858.474
06/15/2013  19:23:00     -407.293     -280.215       -4.429      225.536      195.164      121.957    50866.572    38089.065    14873.615       17.411        5.191      494.376      127.345        0.066      346.158       24.200      858.470
06/15/2013  19:24:00     -330.724     -148.410      -12.145      165.841      155.821       69.257    27503.165    24280.176     4796.599        9.405        2.829      362.497       75.781        0.044      346.176       24.230      858.496
06/15/2013  19:25:00     -345.684     -194.377      -10.402      193.321      141.284       78.289    37372.886    19961.261     6129.145       11.041        3.173      396.585       64.514        0.026      346.188       24.251      858.499
06/15/2013  19:26:00     -311.648     -190.182      -13.673      194.935      142.089       80.269    37999.470    20189.186     6443.037        9.904        3.232      365.094       88.894        0.059      346.210       24.290      858.495
06/15/2013  19:27:00     -322.448     -175.313      -15.985      203.752      149.604      101.154    41514.873    22381.443    10232.096       10.453        3.706      367.025      105.896        0.083      346.150       24.188      858.515
06/15/2013  19:28:00     -412.498     -185.985       -2.122      279.071      175.907      114.605    77880.769    30943.139    13134.230       16.333        6.098      452.488      126.146        0.078      346.122       24.140      858.495
06/15/2013  19:29:00     -393.833     -223.483        0.253      243.352      180.779      107.900    59219.976    32681.054    11642.379       15.428        5.177      452.823      125.369        0.077      346.090       24.083      858.486
06/15/2013  19:30:00     -386.904      -71.039        9.974      241.743      156.957      105.283    58439.584    24635.440    11084.552       12.448        4.708      393.371      115.162        0.086      346.078       24.063      858.497
06/15/2013  19:31:00     -546.537     -148.845       -8.472      280.463      250.948       98.571    78659.507    62975.083     9716.173       23.611        7.568      566.443      113.139        0.040      346.030       23.981      858.514
06/15/2013  19:32:00     -536.833     -303.012      -18.267      293.694      211.448      119.049    86256.131    44710.163    14172.656       26.271        7.257      616.446      136.129        0.049      346.001       23.932      858.512
06/15/2013  19:33:00     -617.777     -316.796      -10.801      275.997      251.038      119.219    76174.274    63020.299    14213.126       31.774        7.670      694.268      126.549        0.033      345.962       23.865      858.491
06/15/2013  19:34:00     -592.947     -196.336      -35.110      200.573      175.247       95.483    40229.385    30711.466     9116.943       23.570        4.003      624.607       89.849        0.021      345.987       23.907      858.549
06/15/2013  19:35:00     -416.319     -165.381        6.305      293.660      197.484      118.673    86236.051    38999.803    14083.298       16.999        6.966      447.965      144.970        0.105      345.963       23.866      858.546
06/15/2013  19:36:00     -561.558     -254.464      -40.636      243.790      259.212       94.796    59433.770    67190.872     8986.294       25.865        6.781      616.522       88.828        0.021      345.941       23.828      858.553
06/15/2013  19:37:00     -535.004     -154.300      -34.015      184.318      182.561       93.502    33972.981    33328.371     8742.580       19.360        3.802      556.810       91.214        0.027      345.957       23.854      858.583
06/15/2013  19:38:00     -436.970     -326.952      -11.514      268.902      181.468      109.828    72308.359    32930.691    12062.177       20.761        5.865      545.747      142.316        0.068      345.928       23.805      858.570
06/15/2013  19:39:00     -521.591     -275.948      -37.601      252.924      181.408      105.359    63970.425    32908.854    11100.546       22.878        5.399      590.088       78.516        0.018      345.908       23.772      858.585
06/15/2013  19:40:00     -395.475     -205.229        2.283      247.325      224.621      115.784    61169.615    50454.470    13406.000       16.175        6.252      445.555      136.957        0.094      345.893       23.746      858.590
06/15/2013  19:41:00     -259.012     -166.827       -2.181      229.336      171.019       88.963    52594.920    29247.335     7914.397        9.232        4.488      308.088      117.818        0.146      345.925       23.802      858.597
06/15/2013  19:42:00     -409.980     -130.054       -7.276      234.729      154.476       90.968    55097.807    23862.709     8275.146       13.613        4.362      430.113      102.717        0.057      345.875       23.714      858.597
06/15/2013  19:43:00     -511.841     -190.639       -7.469      231.493      196.135       99.826    53588.791    38468.911     9965.216       20.018        5.101      546.191       94.255        0.030      345.869       23.704      858.568
06/15/2013  19:44:00     -379.397     -127.182      -10.701      220.387      189.041       91.279    48570.333    35736.503     8331.812       12.642        4.632      400.147      110.741        0.077      345.863       23.695      858.591
06/15/2013  19:45:00     -424.222     -133.667       -4.167      179.675      137.430       75.967    32283.064    18886.915     5771.026       12.738        2.847      444.782       87.580        0.039      345.833       23.644      858.615
06/15/2013  19:46:00     -410.026     -204.296      -10.333      181.042      158.753       87.104    32776.340    25202.505     7587.037       13.775        3.278      458.103       78.755        0.030      345.816       23.615      858.609
06/15/2013  19:47:00     -494.458      -86.484      -28.417      280.510      172.565      106.802    78685.760    29778.620    11406.682       18.630        5.994      501.964      112.972        0.051      345.803       23.593      858.603
06/15/2013  19:48:00     -453.195     -157.677      -22.872      290.395      165.310       97.185    84329.496    27327.289     9444.912       17.591        6.055      479.842      121.361        0.064      345.769       23.533      858.616
06/15/2013  19:49:00     -448.022     -258.400       -1.925      238.082      238.729      107.820    56682.999    56991.537    11625.121       19.637        6.265      517.199      107.812        0.043      345.714       23.440      858.647
06/15/2013  19:50:00     -588.074     -200.091      -26.911      257.954      165.534      103.026    66540.518    27401.392    10614.274       24.555        5.228      621.182      122.526        0.039      345.701       23.416      858.649
06/15/2013  19:51:00     -424.158     -193.465      -11.442      195.570      178.387       95.765    38247.446    31822.055     9170.995       14.834        3.962      466.196      100.523        0.046      345.699       23.413      858.684
06/15/2013  19:52:00     -436.943     -185.181      -18.242      178.737      182.406       90.662    31947.014    33272.062     8219.638       14.948        3.672      474.564       75.311        0.025      345.692       23.401      858.681
06/15/2013  19:53:00     -260.235     -154.100        3.715      183.141      145.627       92.721    33540.484    21207.163     8597.179        7.740        3.167      302.439      107.763        0.127      345.647       23.324      858.696
06/15/2013  19:54:00     -275.992     -169.267        0.952      209.592      150.938       80.417    43928.947    22782.296     6466.855        8.899        3.659      323.764       91.905        0.081      345.648       23.324      858.693
06/15/2013  19:55:00     -202.342      -91.532       23.356      163.190      116.534       69.704    26631.117    13580.101     4858.674        4.746        2.253      222.082       82.084        0.137      345.625       23.285      858.683
06/15/2013  19:56:00     -401.253      -15.157      -12.314      208.285      153.879       91.151    43382.640    23678.690     8308.540       11.836        3.768      401.539      103.156        0.066      345.595       23.235      858.713
06/15/2013  19:57:00     -268.077      -12.394        5.323      161.240      153.970       79.176    25998.494    23706.652     6268.816        6.400        2.799      268.363       70.824        0.070      345.580       23.208      858.720
06/15/2013  19:58:00     -279.833     -124.667        0.066      166.121      155.464       74.593    27596.291    24168.909     5564.089        7.558        2.866      306.346       83.062        0.074      345.556       23.168      858.749
06/15/2013  19:59:00     -381.538      -60.061      -13.973      185.667      125.946       86.419    34472.376    15862.498     7468.278       10.358        2.890      386.236       94.498        0.060      345.524       23.112      858.773
06/15/2013  20:00:00     -244.447      -27.506        7.431      182.494       93.053       75.525    33303.949     8658.796     5704.061        5.411        2.383      245.990       88.991        0.131      345.490       23.054      858.790
06/15/2013  20:01:00     -332.523     -131.891        9.748      251.155      182.781      102.680    63078.786    33409.024    10543.207       11.752        5.352      357.724      123.277        0.119      345.480       23.037      858.779
06/15/2013  20:02:00     -362.779     -229.450       -9.702      232.059      172.882      106.532    53851.438    29888.160    11349.047       13.970        4.754      429.251      117.583        0.075      345.472       23.021      858.773
06/15/2013  20:03:00     -261.387     -185.947       -6.752      194.364      136.464       98.214    37777.302    18622.423     9645.900        8.448        3.302      320.780      106.924        0.111      345.455       22.993      858.786
06/15/2013  20:04:00     -235.846     -135.227        6.269      157.197      137.271       81.679    24711.027    18843.401     6671.403        6.208        2.511      271.863       82.099        0.091      345.441       22.970      858.801
06/15/2013  20:05:00     -190.751     -122.910       12.636      173.648      161.190       66.260    30153.765    25982.116     4390.356        5.608        3.026      226.920       73.247        0.104      345.426       22.945      858.802
06/15/2013  20:06:00     -242.009     -111.713        4.080      164.150      131.790       77.496    26945.159    17368.679     6005.637        6.068        2.516      266.548       81.618        0.094      345.382       22.868      858.815
06/15/2013  20:07:00     -256.654      -91.254        2.908      143.837      125.022       81.251    20689.042    15630.605     6601.768        5.856        2.146      272.394       84.250        0.096      345.381       22.868      858.833
06/15/2013  20:08:00     -306.791     -133.758      -12.589      182.071      185.760       75.295    33150.012    34506.686     5669.304        9.273        3.666      334.682       92.078        0.076      345.360       22.830      858.854
06/15/2013  20:09:00     -213.630      -54.364        7.868      170.814      162.092       80.147    29177.456    26273.818     6423.471        5.525        3.094      220.438       84.336        0.146      345.315       22.754      858.854
06/15/2013  20:10:00     -257.230     -142.616      -15.728      181.899       94.747       68.395    33087.257     8976.957     4677.935        6.674        2.337      294.119       69.833        0.056      345.334       22.784      858.884
06/15/2013  20:11:00      -96.823      -81.373       27.458      114.719       95.999       66.831    13160.542     9215.877     4466.442        2.179        1.342      126.476       63.519        0.252      345.295       22.723      858.866
06/15/2013  20:12:00     -209.277      -26.474        6.908      180.073      103.187       68.115    32426.369    10647.481     4639.652        4.612        2.386      210.945       91.066        0.186      345.250       22.644      858.871
06/15/2013  20:13:00     -205.837      -97.536       -2.174      132.401      101.578       51.827    17530.078    10318.167     2685.993        4.120        1.527      227.777       45.242        0.039      345.245       22.635      858.863
06/15/2013  20:14:00     -665.317     -156.700      -29.933      218.561      160.341       86.174    47768.961    25709.282     7425.885       27.448        4.045      683.522       84.460        0.015      345.216       22.584      858.835
06/15/2013  20:15:00     -260.627      -60.839        1.043      190.054      151.752       83.011    36120.538    23028.701     6890.898        6.882        3.302      267.634      101.394        0.144      345.207       22.569      858.862
06/15/2013  20:16:00     -331.607      -26.243      -11.098      165.974      110.199       71.842    27547.471    12143.912     5161.285        7.780        2.243      332.643       84.103        0.064      345.181       22.524      858.870
06/15/2013  20:17:00     -407.369      -94.909       -6.848      171.959      177.180       90.022    29570.040    31392.793     8104.024       12.202        3.453      418.279       82.789        0.039      345.172       22.507      858.880
06/15/2013  20:18:00     -231.684      -86.231       12.241      171.425      154.882       78.496    29386.542    23988.439     6161.550        6.039        2.977      247.211       76.942        0.097      345.132       22.442      858.881
06/15/2013  20:19:00     -361.108     -151.615        1.818      180.038      120.749       84.956    32413.764    14580.308     7217.527       10.379        2.711      391.645       90.045        0.053      345.122       22.424      858.908
06/15/2013  20:20:00     -384.697      -71.433      -20.930      225.313      182.487       86.162    50765.889    33301.615     7423.885       12.249        4.575      391.273       93.575        0.057      345.111       22.404      858.925
06/15/2013  20:21:00     -374.021      -86.537       -3.441      158.250      135.693       85.545    25043.074    18412.564     7317.880        9.907        2.539      383.902       90.867        0.056      345.110       22.402      858.944
06/15/2013  20:22:00     -244.100      -45.377       16.063      190.746      134.538       83.344    36384.027    18100.538     6946.216        6.165        3.072      248.282       94.186        0.144      345.065       22.325      858.961
06/15/2013  20:23:00     -308.465     -104.243       -9.617      186.209      131.231       84.086    34673.940    17221.614     7070.500        8.253        2.948      325.603       80.703        0.061      345.093       22.374      858.990
06/15/2013  20:24:00     -315.529     -112.612       -3.864      202.062      146.003       86.089    40829.228    21316.756     7411.266        9.089        3.478      335.022      100.830        0.091      345.080       22.352      859.032
06/15/2013  20:25:00     -466.674      -52.125      -43.632      193.284      158.384       71.500    37358.655    25085.438     5112.215       14.497        3.378      469.576       78.737        0.028      345.057       22.313      859.076
06/15/2013  20:26:00     -528.150     -102.115       -4.683      248.466      192.759      104.191    61735.124    37155.992    10855.771       19.955        5.487      537.932      109.460        0.041      345.016       22.244      859.070
06/15/2013  20:27:00     -556.103     -126.064       -6.343      239.720      148.490       99.682    57465.687    22049.371     9936.453       20.730        4.473      570.213      118.666        0.043      345.001       22.216      859.085
06/15/2013  20:28:00     -428.903      -78.377      -18.649      180.174      125.254       71.528    32462.533    15688.664     5116.295       12.185        2.663      436.005       71.192        0.027      344.995       22.208      859.111
06/15/2013  20:29:00     -313.539      -43.135      -10.650      161.127      138.693       72.309    25961.963    19235.675     5228.530        7.534        2.521      316.492       74.915        0.056      344.970       22.162      859.108
06/15/2013  20:30:00     -274.552      -60.074       -7.604      178.225      128.727       74.605    31764.069    16570.539     5565.834        6.646        2.695      281.048       77.862        0.077      344.943       22.118      859.089
06/15/2013  20:31:00     -282.231     -153.208        3.356      210.992      171.722       78.087    44517.831    29488.579     6097.631        9.161        4.005      321.134       82.830        0.067      344.912       22.064      859.090
06/15/2013  20:32:00     -409.533     -119.045      -25.906      199.340      141.158       79.983    39736.544    19925.663     6397.272       12.430        3.303      426.484       75.532        0.031      344.913       22.066      859.129
06/15/2013  20:33:00     -279.281      -25.178        4.281      152.013      130.062       73.582    23107.974    16916.012     5414.349        6.204        2.272      280.414       73.655        0.069      344.920       22.078      859.140
06/15/2013  20:34:00     -291.518       18.534      -21.723      116.612      102.891       54.325    13598.451    10586.604     2951.246        5.646        1.357      292.107       48.110        0.027      344.898       22.041      859.148
06/15/2013  20:35:00     -151.604      -54.112       -3.375      105.029      107.522       49.175    11031.006    11560.999     2418.190        2.546        1.251      160.972       45.693        0.081      344.847       21.956      859.182
06/15/2013  20:36:00     -438.339     -147.209      -30.482      207.624      177.317       76.059    43107.654    31441.280     5785.014       14.752        4.017      462.397       95.361        0.043      344.862       21.979      859.180
06/15/2013  20:37:00     -251.446      -83.498      -14.073      128.891      158.721       67.165    16612.848    25192.330     4511.170        5.835        2.316      264.947       72.830        0.076      344.830       21.924      859.219
06/15/2013  20:38:00     -330.280      -37.814      -16.407      124.657      141.145       72.494    15539.322    19922.048     5255.346        7.574        2.036      332.438       72.682        0.048      344.836       21.933      859.245
06/15/2013  20:39:00     -339.944      -12.378      -11.941      212.755      112.582       80.745    45264.528    12674.796     6519.700        9.015        3.223      340.169       99.993        0.086      344.811       21.892      859.248
06/15/2013  20:40:00     -430.841      -75.717      -25.962      187.975      130.181       72.583    35334.754    16947.127     5268.306       12.478        2.878      437.444       76.581        0.031      344.806       21.883      859.258
06/15/2013  20:41:00     -312.835      -72.737       -6.498      165.622      139.657       75.052    27430.609    19503.977     5632.738        7.787        2.628      321.180       70.231        0.048      344.808       21.885      859.256
06/15/2013  20:42:00     -234.725      -67.832       -2.574      158.981      155.299       73.026    25275.114    24117.665     5332.738        5.720        2.736      244.329       67.253        0.076      344.798       21.869      859.288
06/15/2013  20:43:00     -396.537       69.878      -45.864      132.923      111.191       64.832    17668.443    12363.519     4203.170        9.922        1.712      402.647       53.900        0.018      344.779       21.837      859.328
06/15/2013  20:44:00     -214.076      -73.530       -2.408       88.957       72.709       35.808     7913.350     5286.631     1282.198        3.286        0.724      226.352       32.840        0.021      344.755       21.795      859.339
06/15/2013  20:45:00     -315.850      -19.724      -30.460      144.207      107.433       53.383    20795.570    11541.789     2849.759        6.813        1.759      316.466       49.785        0.025      344.737       21.764      859.362
06/15/2013  20:46:00     -318.954     -113.026        1.057      195.424      164.426       77.758    38190.735    27035.845     6046.276        9.288        3.564      338.388       81.893        0.059      344.678       21.664      859.343
06/15/2013  20:47:00     -206.400       -0.622      -28.046      142.491      110.004       60.415    20303.610    12100.794     3649.998        3.971        1.803      206.401       57.711        0.078      344.675       21.659      859.371
06/15/2013  20:48:00     -279.088       25.388      -20.316      134.522       91.025       54.317    18096.055     8285.539     2950.388        5.413        1.467      280.240       62.360        0.050      344.665       21.642      859.411
06/15/2013  20:49:00     -517.675      -85.383      -33.920      190.950      163.431      103.239    36461.940    26709.558    10658.257       17.511        3.691      524.669      114.095        0.047      344.652       21.618      859.435
06/15/2013  20:50:00     -257.233      -80.539       -9.032      159.138      109.119       65.712    25324.898    11906.966     4318.100        5.713        2.077      269.546       80.217        0.089      344.631       21.583      859.499
06/15/2013  20:51:00     -302.735       -3.514      -12.081      133.967      104.959       59.208    17947.027    11016.355     3505.572        6.213        1.623      302.755       57.775        0.036      344.594       21.522      859.523
06/15/2013  20:52:00     -232.066      -43.958      -19.786      130.311       92.747       54.563    16981.030     8602.082     2977.164        4.236        1.428      236.192       65.249        0.076      344.605       21.541      859.510
06/15/2013  20:53:00     -239.404      -91.872       -5.716      169.737      115.038       76.812    28810.645    13233.761     5900.016        5.686        2.397      256.426       82.329        0.103      344.584       21.504      859.514
06/15/2013  20:54:00     -424.464      -28.502      -58.231      179.389      150.401       89.345    32180.277    22620.488     7982.544       12.357        3.139      425.420       86.688        0.042      344.608       21.542      859.543
06/15/2013  20:55:00     -304.480       -9.807      -26.657      148.893      135.034       64.464    22169.148    18234.180     4155.557        6.903        2.228      304.637       70.707        0.054      344.572       21.484      859.564
06/15/2013  20:56:00     -275.640       29.116      -18.333      173.937      150.659       72.908    30253.968    22698.144     5315.577        6.770        2.913      277.173       85.975        0.096      344.540       21.428      859.602
06/15/2013  20:57:00     -238.246      -45.143       -8.333      118.389       82.665       60.708    14015.913     6833.564     3685.471        4.170        1.227      242.485       59.030        0.059      344.539       21.426      859.679
06/15/2013  20:58:00     -150.542       21.166      -15.449       60.603       61.784       33.699     3672.723     3817.247     1135.630        1.599        0.431      152.023       25.878        0.029      344.513       21.384      859.688
06/15/2013  20:59:00     -215.448      -36.841      -11.857       99.485       92.429       57.740     9897.265     8543.105     3333.961        3.484        1.089      218.575       60.867        0.078      344.542       21.433      859.755
06/15/2013  21:00:00     -178.851       29.943      -18.157      110.553       87.176       47.243    12221.964     7599.620     2231.899        2.763        1.103      181.341       49.855        0.076      344.441       21.260      859.776
06/15/2013  21:01:00     -203.884      -73.920       -7.560       83.429       97.079       46.259     6960.456     9424.265     2139.863        3.280        0.926      216.871       47.057        0.047      344.432       21.244      859.790
06/15/2013  21:02:00     -228.895        9.645      -13.051      117.229      110.021       64.512    13742.721    12104.561     4161.763        4.133        1.500      229.098       60.683        0.070      344.419       21.221      859.790
06/15/2013  21:03:00     -192.411       44.460      -15.952      103.902      106.167       53.090    10795.603    11271.464     2818.549        3.206        1.244      197.480       48.583        0.061      344.443       21.263      859.789
06/15/2013  21:04:00      -53.850       12.728        0.684       62.731       59.298       41.665     3935.135     3516.225     1735.939        0.612        0.459       55.334       21.642        0.153      344.395       21.182      859.813
06/15/2013  21:05:00     -136.444       69.772      -12.755       64.822       70.421       55.368     4201.940     4959.183     3065.609        1.793        0.611      153.248       42.904        0.078      344.394       21.179      859.850
06/15/2013  21:06:00      -60.546       26.659       11.694       65.357      103.957       46.834     4271.501    10806.985     2193.423        1.089        0.864       66.155       40.926        0.383      344.317       21.050      859.836
06/15/2013  21:07:00      -35.656       57.273        2.754       60.366      113.191       49.984     3644.035    12812.227     2498.444        1.175        0.948       67.465       38.418        0.324      344.306       21.030      859.836
06/15/2013  21:08:00      -98.307      105.443       13.452      120.392       97.723       68.257    14494.334     9549.839     4658.969        2.483        1.435      144.161       40.752        0.080      344.260       20.950      859.810
06/15/2013  21:09:00     -237.520       78.061      -25.373      175.151      178.629       55.146    30677.776    31908.383     3041.057        6.438        3.281      250.018       49.337        0.039      344.284       20.991      859.824
06/15/2013  21:10:00     -432.461     -115.288      -29.700      177.969      129.647       70.383    31672.988    16808.361     4953.775       12.730        2.672      447.564       71.435        0.025      344.301       21.020      859.896
06/15/2013  21:11:00     -292.081      -82.892      -15.576      138.425      104.247       59.237    19161.516    10867.391     3509.047        6.297        1.677      303.615       63.747        0.044      344.276       20.977      859.996
06/15/2013  21:12:00     -451.759       20.139      -45.171      205.281      135.375       69.360    42140.240    18326.469     4810.776       13.589        3.264      452.208       92.306        0.042      344.288       20.998      860.031
06/15/2013  21:13:00     -306.544      -13.755      -19.953      136.093      118.379       55.990    18521.302    14013.688     3134.900        6.511        1.783      306.852       63.522        0.043      344.302       21.020      860.054
06/15/2013  21:14:00     -326.062       60.821      -28.255      136.676       86.990       65.529    18680.405     7567.241     4294.108        7.067        1.527      331.686       68.581        0.043      344.278       20.981      860.035
06/15/2013  21:15:00     -233.442      -54.977      -25.639       84.500       86.081       39.206     7140.215     7409.895     1537.078        3.713        0.804      239.829       32.491        0.018      344.316       21.044      860.071
06/15/2013  21:16:00     -150.365      -61.492        3.225      111.558       85.835       52.233    12445.215     7367.609     2728.325        2.447        1.127      162.453       63.766        0.154      344.279       20.984      860.097
06/15/2013  21:17:00     -139.246      -21.802      -16.948       85.457       89.495       58.590     7302.923     8009.278     3432.810        1.944        0.937      140.943       36.163        0.066      344.257       20.946      860.139
06/15/2013  21:18:00      -43.169        6.031       15.232       83.644       66.227       40.327     6996.344     4386.032     1626.286        0.757        0.650       43.588       36.206        0.690      344.167       20.792      860.146
06/15/2013  21:19:00      -95.434        5.246        4.797       65.427       58.565       29.923     4280.689     3429.823      895.390        0.888        0.430       95.578       28.127        0.087      344.201       20.853      860.150
06/15/2013  21:20:00     -119.633      108.603      -14.308       73.197      109.070       36.234     5357.822    11896.351     1312.871        2.244        0.928      161.575       38.642        0.057      344.114       20.699      860.163
06/15/2013  21:21:00     -245.024      -28.891      -24.754      160.294       78.416       40.325    25694.048     6149.063     1626.111        4.747        1.673      246.721       47.627        0.037      344.178       20.811      860.206
06/15/2013  21:22:00     -299.051      -73.864      -25.015      114.524      122.651       68.306    13115.806    15043.206     4665.648        6.416        1.641      308.038       43.728        0.020      344.111       20.697      860.214
06/15/2013  21:23:00     -217.852       -8.080      -18.452      168.136      141.671       65.255    28269.590    20070.672     4258.227        5.022        2.630      218.002       82.539        0.143      344.110       20.693      860.237
06/15/2013  21:24:00     -251.963     -111.410       -0.130      112.778       80.911       51.941    12718.987     6546.617     2697.886        4.893        1.098      275.495       39.618        0.021      344.115       20.703      860.237
06/15/2013  21:25:00     -245.730      -79.151       -9.501      136.871       78.252       62.675    18733.639     6123.439     3928.097        4.776        1.439      258.163       73.724        0.082      344.051       20.593      860.275
06/15/2013  21:26:00     -290.077      -54.711      -18.319      107.855       93.511       56.086    11632.751     8744.250     3145.695        5.549        1.176      295.192       50.663        0.029      344.114       20.701      860.298
06/15/2013  21:27:00     -247.302      -97.431      -31.443      140.765      115.276       59.283    19814.674    13288.447     3514.520        5.412        1.831      265.803       56.700        0.046      344.105       20.685      860.306
06/15/2013  21:28:00     -334.635        2.081      -48.049      120.533      119.074       67.476    14528.213    14178.585     4553.070        7.377        1.663      334.641       58.102        0.030      344.116       20.702      860.329
06/15/2013  21:29:00     -281.926     -101.901      -19.681      111.776      117.063       55.970    12493.817    13703.685     3132.635        5.979        1.467      299.777       40.663        0.018      344.076       20.633      860.345
06/15/2013  21:30:00     -292.608     -121.229      -16.759      111.706      105.229       59.093    12478.175    11073.169     3491.967        6.381        1.352      316.726       53.205        0.028      344.062       20.610      860.364
06/15/2013  21:31:00     -427.359        0.370      -46.160      162.273      140.738       58.523    26332.547    19807.112     3424.885       11.716        2.478      427.359       64.855        0.023      344.080       20.643      860.384
06/15/2013  21:32:00     -311.839      -36.188      -22.376      165.856       83.501       63.226    27508.243     6972.431     3997.551        6.876        1.924      313.932       70.755        0.051      344.061       20.610      860.380
06/15/2013  21:33:00     -304.273      -11.900      -27.363      132.032      102.417       57.367    17432.407    10489.163     3290.926        6.234        1.561      304.505       60.426        0.039      344.056       20.602      860.395
06/15/2013  21:34:00     -383.398     -156.712      -53.479      153.884      101.474       69.663    23680.165    10296.967     4852.968       10.661        1.942      414.189       59.866        0.021      344.032       20.559      860.403
06/15/2013  21:35:00     -224.579      -45.453      -19.152      126.601      102.946       54.494    16027.705    10597.873     2969.550        4.123        1.480      229.132       34.051        0.022      344.004       20.515      860.423
06/15/2013  21:36:00     -195.550      -65.406      -13.481      131.360       85.499       56.179    17255.500     7309.999     3156.050        3.520        1.386      206.198       63.966        0.096      343.955       20.430      860.445
06/15/2013  21:37:00     -216.382      -94.362       -9.172       82.807       91.511       50.679     6856.989     8374.207     2568.311        3.680        0.890      236.062       46.778        0.039      343.906       20.344      860.465
06/15/2013  21:38:00     -356.504     -129.055      -11.665      176.604      158.222       72.131    31189.001    25034.320     5202.825       10.264        3.071      379.144       69.041        0.033      343.921       20.369      860.462
06/15/2013  21:39:00     -537.473        2.142      -56.632      154.933      143.060       72.420    24004.313    20466.261     5244.642       17.089        2.486      537.477       71.788        0.018      343.972       20.458      860.481
06/15/2013  21:40:00     -382.004     -117.021      -23.920      151.987      146.230       68.081    23100.007    21383.191     4634.998       10.465        2.456      399.526       62.286        0.024      343.963       20.442      860.466
06/15/2013  21:41:00     -256.145       27.016      -43.896      109.774      142.879       57.763    12050.369    20414.520     3336.552        5.203        1.790      257.565       47.473        0.034      343.962       20.440      860.466
06/15/2013  21:42:00     -188.541       47.795      -13.369      124.149      100.310       64.518    15412.871    10062.091     4162.548        3.382        1.482      194.504       44.417        0.052      343.943       20.409      860.459
06/15/2013  21:43:00     -196.093        8.208      -12.829      148.478      176.875       83.696    22045.682    31284.683     7004.992        4.950        3.017      196.265       71.161        0.131      343.922       20.371      860.485
06/15/2013  21:44:00     -180.513       -1.136       -8.111      120.259      141.676       79.797    14462.126    20072.115     6367.588        3.677        2.045      180.517       62.637        0.120      343.879       20.299      860.513
06/15/2013  21:45:00     -124.556      -17.035       -6.674       88.538       91.965       58.569     7838.964     8457.580     3430.383        1.778        0.986      125.716       53.077        0.178      343.836       20.228      860.529
06/15/2013  21:46:00     -202.335       96.974      -40.683       81.790      111.669       62.750     6689.579    12469.916     3937.617        3.754        1.155      224.373       52.278        0.054      343.837       20.226      860.511
06/15/2013  21:47:00     -259.297      -72.136      -17.751      119.686       81.729       53.274    14324.694     6679.664     2838.067        4.829        1.192      269.144       42.092        0.024      343.795       20.156      860.519
06/15/2013  21:48:00     -360.535      -10.402      -36.736      206.794      135.910       78.811    42763.669    18471.400     6211.102        9.943        3.372      360.685       92.442        0.066      343.782       20.133      860.536
06/15/2013  21:49:00     -502.804      -45.772      -35.329      203.058      166.155       81.241    41232.380    27607.535     6600.167       16.578        3.772      504.884       95.709        0.036      343.858       20.263      860.572
06/15/2013  21:50:00     -405.000      -72.172      -20.785      113.755      108.966       63.607    12940.293    11873.542     4045.897        9.926        1.443      411.380       52.548        0.016      343.835       20.222      860.599
06/15/2013  21:51:00     -107.126      -69.959       23.803      154.022      127.508       66.484    23722.895    16258.391     4420.076        3.066        2.220      127.946       81.060        0.401      343.763       20.102      860.582
06/15/2013  21:52:00     -320.606      -50.219      -30.680      244.689      127.629       82.040    59872.781    16289.101     6730.510        9.456        4.145      324.515      103.377        0.101      343.793       20.153      860.549
06/15/2013  21:53:00     -375.402     -168.093      -13.409      196.802      154.332       77.885    38731.029    23818.311     6066.019       11.897        3.431      411.318       77.372        0.035      343.736       20.055      860.552
06/15/2013  21:54:00     -514.975      -97.842      -34.965      174.518      133.919       78.165    30456.505    17934.406     6109.786       16.524        2.725      524.187       78.604        0.022      343.754       20.084      860.614
06/15/2013  21:55:00     -341.510      -22.148      -32.931      114.251      144.979       66.638    13053.306    21018.811     4440.620        7.835        1.926      342.227       51.345        0.023      343.782       20.134      860.630
06/15/2013  21:56:00     -161.822      121.527      -18.119      137.421      173.398       69.858    18884.595    30066.767     4880.086        4.755        2.692      202.374       61.706        0.093      343.764       20.102      860.552
06/15/2013  21:57:00     -202.142      124.024      -40.434       95.238      117.456       49.294     9070.289    13795.989     2429.910        4.158        1.265      237.156       36.418        0.024      343.706       20.003      860.515
06/15/2013  21:58:00     -418.726      -91.227      -12.635      176.990      121.862       63.734    31325.396    14850.309     4062.028       11.702        2.512      428.549       64.434        0.023      343.692       19.979      860.575
06/15/2013  21:59:00     -301.180      -89.472        1.914      128.636       97.290       66.695    16547.150     9465.413     4448.263        6.458        1.523      314.189       63.657        0.041      343.684       19.966      860.613
06/15/2013  22:00:00     -333.548      -58.457      -21.229      270.495      152.332       89.583    73167.329    23205.049     8025.167       10.974        5.220      338.631      121.563        0.129      343.700       19.992      860.637
06/15/2013  22:01:00     -435.281      -13.118      -38.195      247.366      149.428       85.682    61189.952    22328.605     7341.463       14.096        4.543      435.479      119.465        0.075      343.755       20.087      860.620
06/15/2013  22:02:00     -352.788      -60.720      -30.814      117.692      111.024       58.212    13851.361    12326.313     3388.646        7.933        1.478      357.975       49.678        0.019      343.700       19.991      860.633
06/15/2013  22:03:00     -224.186      -84.746       -8.965      127.977      125.038       61.032    16378.042    15634.550     3724.862        4.662        1.787      239.669       55.929        0.054      343.623       19.862      860.622
06/15/2013  22:04:00     -458.566      -71.439      -37.814      160.023      118.982       76.418    25607.388    14156.706     5839.672       13.120        2.280      464.097       79.442        0.029      343.643       19.895      860.612
06/15/2013  22:05:00     -509.117     -164.893      -16.000      160.433      146.902       79.163    25738.816    21580.082     6266.819       17.010        2.679      535.154       76.415        0.020      343.607       19.835      860.647
06/15/2013  22:06:00     -532.148      -97.324      -17.361      181.044      119.296       77.721    32776.778    14231.546     6040.573       17.299        2.652      540.974       90.857        0.028      343.612       19.843      860.712
06/15/2013  22:07:00     -487.272       36.515      -37.628      146.735      145.854       69.614    21531.230    21273.349     4846.072       14.391        2.383      488.638       66.952        0.019      343.640       19.890      860.707
06/15/2013  22:08:00     -357.693      -43.720       -5.909      171.042      123.102       73.071    29255.373    15154.118     5339.368        8.981        2.487      360.355       73.020        0.041      343.578       19.785      860.668
06/15/2013  22:09:00     -314.735     -132.751      -15.680      201.989      132.962       77.096    40799.413    17678.913     5943.721        9.066        3.221      341.586       88.694        0.067      343.552       19.742      860.637
06/15/2013  22:10:00     -285.132      -97.965       -7.167      124.229      116.623       65.917    15432.795    13600.914     4345.102        6.216        1.669      301.492       57.882        0.037      343.520       19.685      860.676
06/15/2013  22:11:00     -536.711       11.943      -39.021      199.716      129.491       79.334    39886.366    16767.926     6293.864       17.632        3.147      536.844       94.248        0.031      343.555       19.746      860.724
06/15/2013  22:12:00     -315.191      -56.232      -17.667      118.988      108.804       56.761    14158.233    11838.391     3221.857        6.601        1.461      320.168       51.455        0.026      343.517       19.680      860.750
06/15/2013  22:13:00     -294.721      -53.190      -12.184      117.399       98.166       56.328    13782.532     9636.519     3172.805        5.821        1.330      299.483       50.926        0.029      343.506       19.661      860.762
06/15/2013  22:14:00     -310.418      -76.435      -20.739      123.460      121.365       61.587    15242.455    14729.445     3792.927        6.819        1.688      319.689       53.266        0.028      343.527       19.698      860.753
06/15/2013  22:15:00     -314.831      -19.548      -21.473       98.629       91.517       52.093     9727.754     8375.330     2713.711        6.038        1.041      315.437       47.162        0.022      343.534       19.707      860.769
06/15/2013  22:16:00     -157.076      -37.835        0.433      125.046       93.197       66.231    15636.403     8685.594     4386.524        2.740        1.435      161.568       68.244        0.178      343.496       19.646      860.749
06/15/2013  22:17:00     -423.789       33.408      -40.692      184.112      129.800       61.442    33897.180    16847.920     3775.072       11.843        2.726      425.103       61.325        0.021      343.529       19.700      860.735
06/15/2013  22:18:00     -519.218     -200.008      -21.581      155.764      154.226       78.431    24262.577    23785.642     6151.456       18.212        2.710      556.408       74.324        0.018      343.540       19.719      860.757
06/15/2013  22:19:00     -404.523     -126.886       -8.129      204.636      151.970       88.949    41875.843    23094.919     7911.845       12.633        3.644      423.957       93.529        0.049      343.533       19.707      860.766
06/15/2013  22:20:00     -462.724      -13.748      -44.425      191.906      132.252       67.477    36827.734    17490.642     4553.193       13.756        2.944      462.928       78.722        0.029      343.568       19.767      860.797
06/15/2013  22:21:00     -332.403      -67.795       -2.596      133.170      150.606       78.264    17734.291    22682.024     6125.182        8.081        2.327      339.246       75.064        0.049      343.509       19.667      860.814
06/15/2013  22:22:00     -392.654      -33.494      -29.815      183.315      139.647       73.805    33604.424    19501.230     5447.239       10.736        2.928      394.080       80.321        0.042      343.541       19.723      860.826
06/15/2013  22:23:00     -422.792     -127.022        1.400      214.958      169.910       78.335    46206.783    28869.423     6136.396       13.803        4.061      441.461       96.887        0.048      343.539       19.720      860.782
06/15/2013  22:24:00     -478.674     -173.775      -25.128      161.273      149.179       84.351    26008.896    22254.238     7115.031       15.766        2.769      509.242       75.552        0.022      343.560       19.755      860.796
06/15/2013  22:25:00     -310.301     -118.081      -16.359      129.835      163.348       61.936    16857.051    26682.633     3836.080        7.893        2.369      332.009       63.446        0.037      343.582       19.792      860.806
06/15/2013  22:26:00     -525.976      -91.984      -29.154      160.451      103.868       66.444    25744.382    10788.482     4414.810       16.345        2.047      533.958       69.742        0.017      343.532       19.708      860.829
06/15/2013  22:27:00     -384.917      -99.249      -21.576      222.478      125.488       71.832    49496.359    15747.246     5159.796       11.443        3.520      397.507       93.594        0.055      343.517       19.682      860.818
06/15/2013  22:28:00     -356.258        5.985      -10.793      223.100      140.401       80.391    49773.433    19712.554     6462.726       10.149        3.797      356.308      102.093        0.082      343.496       19.646      860.837
06/15/2013  22:29:00     -332.796     -125.275       -1.012      208.798      167.444       94.269    43596.444    28037.530     8886.662       10.347        4.026      355.594      108.533        0.093      343.522       19.690      860.802
06/15/2013  22:30:00     -437.761      -86.307      -23.278      177.071      140.939       82.722    31354.053    19863.734     6842.874       12.883        2.903      446.188       80.856        0.033      343.524       19.692      860.811
06/15/2013  22:31:00     -318.303      -73.924        5.471      172.565      137.168       73.926    29778.574    18815.036     5465.064        8.042        2.703      326.775       83.236        0.065      343.475       19.610      860.803
06/15/2013  22:32:00     -349.733      -93.891       -6.026      196.421      143.182       84.367    38581.099    20501.130     7117.866        9.867        3.310      362.117       99.427        0.075      343.487       19.629      860.810
06/15/2013  22:33:00     -474.704      -87.244      -28.911      185.222      135.936       76.430    34307.212    18478.576     5841.519       14.620        2.931      482.654       86.627        0.032      343.517       19.681      860.819
06/15/2013  22:34:00     -461.239     -159.830      -11.766      175.231      158.519       89.927    30705.809    25128.149     8086.781       15.116        3.196      488.147       78.762        0.026      343.567       19.766      860.820
06/15/2013  22:35:00     -446.569     -133.392       -3.499      190.603      143.072       86.116    36329.517    20469.735     7415.958       14.071        3.211      466.066       89.222        0.037      343.559       19.754      860.849
06/15/2013  22:36:00     -623.308     -102.928      -31.820      246.921      147.252       92.872    60970.053    21683.178     8625.153       24.568        4.564      631.749      106.039        0.028      343.624       19.862      860.843
06/15/2013  22:37:00     -392.997      -94.669       -7.433      189.834      148.923       80.077    36036.841    22178.089     6412.349       11.403        3.231      404.238       81.497        0.041      343.575       19.778      860.844
06/15/2013  22:38:00     -420.149       51.740      -42.169      173.120      119.373       63.757    29970.680    14249.913     4064.961       11.462        2.414      423.323       75.352        0.032      343.546       19.732      860.864
06/15/2013  22:39:00     -342.519        5.167      -15.580      198.288      139.483       80.050    39318.115    19455.504     6407.964        9.137        3.259      342.558       96.179        0.079      343.495       19.644      860.841
06/15/2013  22:40:00     -350.585     -116.793        7.866      249.656      111.525       87.497    62328.159    12437.773     7655.801       10.950        4.121      369.527      118.756        0.103      343.485       19.625      860.862
06/15/2013  22:41:00     -446.440      -87.390      -20.199      153.145      121.645       72.546    23453.511    14797.622     5262.894       12.543        2.176      454.913       56.242        0.015      343.519       19.684      860.878
06/15/2013  22:42:00     -476.656      -11.377      -36.899      143.912      122.350       65.072    20710.687    14969.558     4234.367       13.430        1.996      476.792       67.842        0.020      343.521       19.688      860.924
06/15/2013  22:43:00     -441.082      -98.059      -24.611      250.965      172.485       79.376    62983.390    29751.194     6300.521       15.188        4.952      451.850      106.705        0.056      343.536       19.714      860.917
06/15/2013  22:44:00     -296.679      -87.099       14.588      142.167      158.561       80.731    20211.476    25141.504     6517.426        7.383        2.594      309.200       73.901        0.057      343.538       19.717      860.938
06/15/2013  22:45:00     -508.542      -63.620      -35.874      191.449      126.591       77.048    36652.842    16025.185     5936.449       16.127        2.931      512.506       83.590        0.027      343.569       19.769      860.955
06/15/2013  22:46:00     -429.042      -40.117      -19.342      213.645      106.825       73.765    45644.131    11411.687     5441.339       12.427        3.125      430.913       95.504        0.049      343.562       19.756      860.985
06/15/2013  22:47:00     -362.942     -126.570       -3.921      158.719      139.888       83.495    25191.695    19568.650     6971.389        9.974        2.587      384.379       84.051        0.048      343.531       19.705      861.003
06/15/2013  22:48:00     -347.086     -111.502       -6.917      164.365      154.934       66.087    27015.872    24004.491     4367.544        9.416        2.769      364.556       73.047        0.040      343.521       19.687      860.985
06/15/2013  22:49:00     -439.832     -103.624       -2.144      176.824      126.648       76.272    31266.647    16039.711     5817.411       12.865        2.656      451.874       81.519        0.033      343.513       19.674      860.993
06/15/2013  22:50:00     -473.421     -104.441      -16.100      200.312      136.990       86.236    40124.758    18766.379     7436.620       15.080        3.316      484.805       88.517        0.033      343.521       19.686      861.000
06/15/2013  22:51:00     -448.993      -79.250      -15.338      200.976      123.699       79.836    40391.305    15301.489     6373.819       13.508        3.103      455.933       82.333        0.033      343.593       19.810      861.036
06/15/2013  22:52:00     -306.523      -32.594      -24.077      141.286      138.420       67.371    19961.749    19160.040     4538.819        6.962        2.183      308.251       62.260        0.041      343.567       19.768      861.063
06/15/2013  22:53:00     -332.006      -38.736      -15.515      153.450      119.763       73.608    23546.768    14343.267     5418.086        7.763        2.165      334.259       74.520        0.050      343.587       19.801      861.063
06/15/2013  22:54:00     -395.083      -97.568       -3.028      144.793      102.597       68.467    20965.084    10526.080     4687.747       10.089        1.809      406.952       73.864        0.033      343.573       19.776      861.058
06/15/2013  22:55:00     -270.198     -120.466       -2.670      127.130       92.971       58.348    16162.162     8643.641     3404.520        5.786        1.411      295.836       57.733        0.038      343.518       19.682      861.078
06/15/2013  22:56:00     -391.863      -58.839      -25.647      151.373      139.188       71.813    22913.807    19373.300     5157.055       10.255        2.372      396.256       62.290        0.025      343.527       19.698      861.107
06/15/2013  22:57:00     -411.860     -126.206      -24.584      165.610      113.019       70.043    27426.522    12773.350     4905.988       11.562        2.255      430.763       65.255        0.023      343.533       19.707      861.131
06/15/2013  22:58:00     -300.129       -2.423       -7.033      172.106      131.494       75.171    29620.532    17290.773     5650.747        7.134        2.628      300.139       80.077        0.071      343.486       19.629      861.137
06/15/2013  22:59:00     -404.828      -75.735      -24.018      200.336      139.209       74.756    40134.387    19379.121     5588.529       11.764        3.255      411.851       76.780        0.035      343.507       19.664      861.132
06/15/2013  23:00:00     -405.342      -75.353      -20.001      149.350      167.641       68.996    22305.306    28103.572     4760.396       11.276        2.758      412.286       48.957        0.014      343.506       19.662      861.106
06/15/2013  23:01:00     -346.144      -46.909      -32.264       95.488      100.955       48.286     9118.034    10191.821     2331.523        7.234        1.082      349.308       41.280        0.014      343.479       19.616      861.114
06/15/2013  23:02:00     -277.594      -91.463       -4.271      145.126      105.628       59.597    21061.423    11157.249     3551.821        6.060        1.789      292.274       58.770        0.040      343.464       19.590      861.121
06/15/2013  23:03:00     -394.400      -25.995      -31.156      149.867      124.042       61.080    22460.117    15386.306     3730.731        9.938        2.079      395.256       63.995        0.026      343.505       19.662      861.118
06/15/2013  23:04:00     -356.981     -128.043      -33.482       98.029      104.570       58.508     9609.601    10934.938     3423.202        8.445        1.198      379.250       50.257        0.018      343.472       19.605      861.099
06/15/2013  23:05:00     -495.329       -0.947      -54.128      192.825      126.033       63.945    37181.517    15884.259     4088.948       15.271        2.858      495.330       74.295        0.022      343.485       19.627      861.109
06/15/2013  23:06:00     -480.712     -118.036      -28.910      109.254      126.703       65.712    11936.391    16053.701     4318.104       13.907        1.615      494.991       53.546        0.012      343.477       19.613      861.105
06/15/2013  23:07:00     -361.835      -63.310      -17.290      204.875      149.730       80.374    41973.592    22418.931     6459.974       10.303        3.543      367.332       92.297        0.063      343.446       19.562      861.106
06/15/2013  23:08:00     -291.004      -28.789       -6.121      145.615      118.491       67.697    21203.724    14040.150     4582.874        6.268        1.991      292.424       70.467        0.058      343.405       19.492      861.128
06/15/2013  23:09:00     -389.902      -88.303       -8.080      186.236      176.543       87.725    34684.020    31167.380     7695.602       11.670        3.677      399.776       99.710        0.062      343.442       19.553      861.126
06/15/2013  23:10:00     -408.440     -121.216      -27.911      145.090      134.993       76.718    21051.244    18223.065     5885.704       11.372        2.258      426.048       75.058        0.031      343.480       19.619      861.122
06/15/2013  23:11:00     -462.235     -107.417      -14.488      211.528      165.311       95.038    44744.183    27327.647     9032.288       15.324        4.055      474.552      113.024        0.057      343.527       19.698      861.128
06/15/2013  23:12:00     -390.131     -134.345      -18.567      167.236      138.872       72.677    27968.035    19285.375     5281.881       11.155        2.627      412.614       87.258        0.045      343.490       19.635      861.130
06/15/2013  23:13:00     -400.336      -87.253      -24.378      152.238      141.819       67.432    23176.495    20112.641     4547.110       10.815        2.392      409.734       67.428        0.027      343.476       19.610      861.122
06/15/2013  23:14:00     -319.977      -39.930      -16.245      196.250      133.296       76.734    38513.956    17767.739     5888.069        8.319        3.108      322.459       95.694        0.088      343.438       19.546      861.104
06/15/2013  23:15:00     -405.206      -85.945      -13.155      128.768      115.880       68.755    16581.148    13428.212     4727.193       10.324        1.737      414.220       64.831        0.024      343.420       19.516      861.088
06/15/2013  23:16:00     -404.597      -55.342      -43.114      133.411      110.594       61.736    17798.383    12231.079     3811.276       10.122        1.692      408.365       61.400        0.023      343.415       19.507      861.087
06/15/2013  23:17:00     -371.230      -83.358      -29.974      144.027      110.346       71.554    20743.795    12176.179     5119.982        9.184        1.902      380.473       72.412        0.036      343.403       19.487      861.083
06/15/2013  23:18:00     -299.364     -152.282      -14.890      135.702       96.608       64.574    18415.061     9333.157     4169.842        7.247        1.596      335.870       72.486        0.047      343.357       19.407      861.056
06/15/2013  23:19:00     -375.242      -70.410      -17.218      183.383      105.248       59.842    33629.497    11077.147     3581.028        9.716        2.414      381.791       71.459        0.035      343.353       19.401      861.048
06/15/2013  23:20:00     -496.319     -128.017      -23.278      166.662      123.954       83.136    27776.256    15364.642     6911.622       15.665        2.503      512.563       85.476        0.028      343.391       19.466      861.049
06/15/2013  23:21:00     -350.453      -48.562      -12.846      156.137      100.560       68.702    24378.632    10112.363     4720.015        8.227        1.961      353.802       78.862        0.050      343.338       19.377      861.046
06/15/2013  23:22:00     -325.130      -71.594      -15.627      122.878      128.595       67.324    15098.963    16536.768     4532.508        7.362        1.808      332.919       54.631        0.027      343.309       19.325      861.027
06/15/2013  23:23:00     -349.293      -95.104       -8.318      175.708      157.152       72.145    30873.342    24696.845     5204.849        9.593        3.039      362.008       89.039        0.060      343.330       19.362      861.029
06/15/2013  23:24:00     -361.007        8.133      -17.102      194.208      118.715       88.487    37716.636    14093.262     7829.977        9.515        2.982      361.099      104.196        0.083      343.340       19.380      861.033
06/15/2013  23:25:00     -320.155       44.060      -29.227      150.572      122.541       81.611    22671.802    15016.412     6660.374        7.481        2.217      323.173       80.136        0.061      343.289       19.293      861.032
06/15/2013  23:26:00     -416.589      -92.757      -37.246      144.525      148.548       73.752    20887.496    22066.526     5439.330       11.596        2.420      426.791       62.832        0.022      343.304       19.317      861.013
06/15/2013  23:27:00     -401.313      -67.754      -12.923      176.739      128.565       71.186    31236.555    16528.857     5067.470       10.931        2.642      406.992       84.227        0.043      343.284       19.283      861.029
06/15/2013  23:28:00     -378.278     -111.922      -10.449      126.755      119.594       66.202    16066.741    14302.837     4382.735        9.523        1.738      394.488       64.028        0.026      343.277       19.272      861.011
06/15/2013  23:29:00     -393.404      -64.239      -32.093      105.014      123.490       62.596    11027.958    15249.868     3918.297        9.505        1.510      398.615       45.570        0.013      343.281       19.278      860.992
06/15/2013  23:30:00     -389.593     -125.429      -13.946      147.588      138.477       65.701    21782.330    19175.779     4316.671       10.648        2.264      409.286       64.315        0.025      343.273       19.265      860.978
06/15/2013  23:31:00     -455.196     -110.824      -25.307      142.277      129.481       77.004    20242.699    16765.369     5929.659       13.152        2.147      468.492       76.865        0.027      343.278       19.274      860.984
06/15/2013  23:32:00     -512.456      -95.949      -30.733      156.908      139.389       70.693    24620.113    19429.399     4997.548       16.089        2.452      521.361       70.012        0.018      343.287       19.287      860.988
06/15/2013  23:33:00     -381.282     -119.195      -21.560      198.643      155.148       78.341    39459.097    24070.849     6137.371       11.484        3.483      399.479       72.849        0.033      343.276       19.270      860.966
06/15/2013  23:34:00     -506.704      -67.453      -25.228      155.152      193.844       75.508    24072.151    37575.352     5701.510       16.463        3.367      511.174       78.614        0.024      343.302       19.314      860.973
06/15/2013  23:35:00     -459.673      -56.105      -33.828      174.686      136.720       87.745    30515.072    18692.457     7699.164       13.624        2.845      463.085      101.530        0.048      343.274       19.265      860.977
06/15/2013  23:36:00     -469.157      -24.478      -21.302      179.265      173.748       78.382    32135.971    30188.461     6143.689       14.480        3.423      469.795       82.000        0.030      343.304       19.317      860.961
06/15/2013  23:37:00     -310.572     -112.210      -13.453      174.007      165.666       88.044    30278.393    27445.252     7751.717        8.734        3.274      330.221       92.718        0.079      343.277       19.270      860.945
06/15/2013  23:38:00     -370.342     -147.578       -9.287      180.761      112.861       74.295    32674.389    12737.655     5519.710       10.497        2.547      398.664       85.853        0.046      343.267       19.255      860.977
06/15/2013  23:39:00     -446.831      -84.084      -29.393      132.689      139.422       72.200    17606.425    19438.456     5212.809       12.492        2.113      454.674       66.814        0.022      343.277       19.271      861.006
06/15/2013  23:40:00     -417.165      -81.226      -21.762      152.960      161.734       74.474    23396.639    26157.967     5546.443       11.809        2.755      424.999       83.596        0.039      343.256       19.237      861.015
06/15/2013  23:41:00     -430.966      -39.447      -21.546      151.586      138.934       78.554    22978.176    19302.536     6170.788       11.809        2.423      432.768       70.164        0.026      343.250       19.226      861.027
06/15/2013  23:42:00     -341.194     -120.094      -15.025      152.593      170.549       71.532    23284.742    29086.837     5116.846        9.426        2.874      361.712       71.034        0.039      343.213       19.161      861.061
06/15/2013  23:43:00     -390.015      -25.261      -22.365      147.327      127.049       73.473    21705.367    16141.472     5398.318        9.824        2.162      390.832       79.467        0.041      343.196       19.134      861.088
06/15/2013  23:44:00     -487.591     -100.797      -38.902      150.629      120.685       73.720    22689.142    14564.901     5434.613       14.604        2.134      497.901       74.782        0.023      343.199       19.139      861.092
06/15/2013  23:45:00     -400.519     -112.574      -24.976      144.397      132.131       75.649    20850.590    17458.609     5722.778       10.886        2.202      416.039       74.472        0.032      343.219       19.172      861.090
06/15/2013  23:46:00     -257.773      -99.597        4.119      139.937      135.737       78.444    19582.270    18424.415     6153.494        6.026        2.208      276.345       83.425        0.091      343.134       19.027      861.089
06/15/2013  23:47:00     -421.476      -70.651      -20.051      114.967      123.422       55.208    13217.469    15233.055     3047.894       10.726        1.575      427.357       53.513        0.016      343.124       19.012      861.106
06/15/2013  23:48:00     -376.417      -65.774      -16.248      152.462      131.593       66.345    23244.526    17316.711     4401.672        9.561        2.248      382.120       68.175        0.032      343.128       19.019      861.105
06/15/2013  23:49:00     -328.346      -64.730      -17.268      151.457      113.321       65.267    22939.271    12841.746     4259.817        7.616        2.002      334.665       72.391        0.047      343.090       18.954      861.117
06/15/2013  23:50:00     -407.976      -38.834      -16.956      153.639      119.778       77.701    23605.068    14346.698     6037.470       10.611        2.199      409.821       77.123        0.035      343.088       18.949      861.124
06/15/2013  23:51:00     -398.684      -90.723       -9.806      155.598      125.410       75.450    24210.624    15727.560     5692.747       10.644        2.282      408.876       80.455        0.039      343.095       18.963      861.125
06/15/2013  23:52:00     -383.048      -87.298      -21.795      140.321      116.598       73.066    19690.055    13595.012     5338.568        9.671        1.931      392.870       80.258        0.042      343.065       18.910      861.129
06/15/2013  23:53:00     -353.954      -44.849      -18.728      135.245      120.445       65.865    18291.130    14506.899     4338.156        8.238        1.857      356.784       60.869        0.029      343.062       18.905      861.148
06/15/2013  23:54:00     -357.155      -43.732      -20.568      110.399      107.050       57.951    12187.866    11459.618     3358.313        7.844        1.350      359.822       52.504        0.021      343.077       18.930      861.156
06/15/2013  23:55:00     -303.989      -57.210       -9.910      120.373      114.497       66.214    14489.661    13109.591     4384.321        6.388        1.599      309.326       62.003        0.040      343.046       18.877      861.157
06/15/2013  23:56:00     -350.499     -132.674      -26.433      145.708      118.528       59.136    21230.693    14048.994     3497.101        8.996        1.939      374.769       58.597        0.024      343.052       18.888      861.152
06/15/2013  23:57:00     -377.772       41.947      -39.153      139.369       95.358       66.067    19423.842     9093.135     4364.858        8.944        1.644      380.094       62.796        0.027      343.045       18.878      861.171
06/15/2013  23:58:00     -332.338     -111.329      -21.449       98.701       91.097       54.218     9741.811     8298.618     2939.616        7.214        1.049      350.489       36.382        0.011      343.040       18.868      861.180
06/15/2013  23:59:00     -280.225      -69.377      -19.850      115.397      117.686       54.825    13316.469    13849.977     3005.818        5.695        1.509      288.685       46.426        0.026      343.036       18.861      861.185
